[[[{"header":{"parameterUnit":"kt","parameterCategory":2,"dx":1,"dy":1,"la1":29.285339999999998,"la2":30.599998999999997,"lo1":-89.70041500000002,"lo2":-87.6738589999976,"nx":112,"ny":82,"refTime":"2022-10-14T06:00:00:Z","depth":0,"parameterNumber":1,"parameterNumberName":"U-component_of_WINDS"},"data":[14.7978,14.7076,14.5948,14.482,14.452,0.0,14.3768,0.0,0.0,0.0,0.0,0.0,0.0,0.0,0.0,0.0,0.0,0.0,0.0,12.8566,0.0,0.0,0.0,0.0,0.0,0.0,0.0,0.0,15.6201,15.9358,16.3844,16.5197,16.6626,16.828,16.8356,16.8356,16.8356,16.8356,16.8304,16.8304,16.8304,16.8251,16.8197,16.8197,16.8498,16.9099,17.0715,17.2498,17.4207,17.5727,17.7137,17.8226,17.8281,17.8281,17.8281,17.8281,17.8281,17.8281,17.8281,17.8281,17.8281,17.8281,17.8281,17.8281,17.8281,17.8281,17.8281,17.8281,17.8281,17.8281,17.8281,17.8281,17.8281,17.8281,17.8281,17.8281,17.8281,17.8281,17.8281,17.8281,17.8281,17.8281,17.8281,17.8281,17.8281,17.8281,17.8281,17.8281,17.8281,17.8281,17.8281,17.8281,17.8281,17.8281,17.8281,17.8281,17.8281,17.8281,18.0762,18.2266,18.2266,18.4898,18.6101,18.5575,18.6101,18.5575,18.392,18.2792,18.174,18.0762,17.9033,17.8281,14.5196,0.0,14.264,14.2113,0.0,0.0,0.0,0.0,0.0,0.0,0.0,0.0,0.0,0.0,0.0,0.0,0.0,0.0,0.0,0.0,0.0,0.0,0.0,0.0,0.0,0.0,0.0,0.0,15.8355,16.1212,16.5573,16.6325,16.7152,16.828,16.8356,16.8356,16.8356,16.8356,16.8356,16.8356,16.8356,16.8356,16.8356,16.8356,16.8356,16.8431,17.0054,17.1707,17.3469,17.5014,17.6592,17.8281,17.8281,17.8281,17.8281,17.8281,17.8281,17.8281,17.8281,17.8281,17.8281,17.8281,17.8281,17.8281,17.8281,17.8281,17.8281,17.8281,17.8281,17.8281,17.8281,17.8281,17.8281,17.8281,17.8281,17.8281,17.8281,17.8281,17.8281,17.8281,17.8281,17.8281,17.8281,17.8281,17.8281,17.8281,17.8281,17.8281,17.8281,17.8281,17.8281,17.8281,17.8281,17.8281,17.8281,17.8281,17.8281,17.8281,18.1289,18.3093,18.3093,18.6327,18.8131,18.8131,18.8131,18.7605,18.6477,18.4747,18.3093,18.1514,17.986,17.9108,0.0,0.0,0.0,13.873,0.0,0.0,0.0,0.0,13.3241,0.0,0.0,0.0,0.0,0.0,0.0,0.0,0.0,0.0,0.0,0.0,0.0,0.0,0.0,0.0,0.0,15.1137,15.3317,0.0,16.0084,16.2491,16.5724,16.7453,16.8356,16.8356,16.8356,16.8356,16.8356,16.8356,16.8356,16.8356,16.8356,16.8356,16.8356,16.8356,16.8356,16.8431,17.0085,17.1739,17.3393,17.4972,17.6627,17.8206,17.8206,17.8281,17.8281,17.8281,17.8281,17.8281,17.8281,17.8281,17.8281,17.8281,17.8281,17.8281,17.8281,17.8281,17.8281,17.8281,17.8281,17.8281,17.8281,17.8281,17.8281,17.8281,17.8281,17.8281,17.8281,17.8281,17.8281,17.8281,17.8281,17.8281,17.8281,17.8281,17.8281,17.8281,17.8281,17.8281,17.8281,17.8281,17.8281,17.8281,17.8281,17.8281,17.8281,17.8281,17.8281,17.8281,18.1289,18.3093,18.3093,18.6327,18.8131,18.8131,18.8131,18.8131,18.8131,18.6477,18.4823,18.3168,18.1589,18.0837,13.8504,0.0,0.0,0.0,0.0,0.0,0.0,0.0,0.0,0.0,0.0,0.0,0.0,0.0,0.0,0.0,0.0,13.8203,0.0,13.9482,0.0,0.0,0.0,0.0,0.0,15.4295,15.7453,16.0084,16.2866,16.5423,16.7528,16.8055,16.8356,16.8356,16.8356,16.8356,16.8356,16.8356,16.8356,16.8356,16.8356,16.8356,16.8356,16.8356,16.8356,16.8356,16.8807,17.001,17.1664,17.3318,17.4972,17.6551,17.7755,17.8281,17.8281,17.8281,17.8281,17.8281,17.8281,17.8281,17.8281,17.8281,17.8281,17.8281,17.8281,17.8281,17.8281,17.8281,17.8281,17.8281,17.8281,17.8281,17.8281,17.8281,17.8281,17.8281,17.8281,17.8281,17.8281,17.8281,17.8281,17.8281,17.8281,17.8281,17.8281,17.8281,17.8281,17.8281,17.8281,17.8281,17.8281,17.8281,17.8281,17.8281,17.8281,17.8281,17.8281,17.8281,18.1289,18.3093,18.3093,18.6327,18.8131,18.8131,18.8131,18.8131,18.8131,18.6477,18.5424,18.4898,18.3244,18.189,0.0,0.0,0.0,0.0,0.0,0.0,12.9782,0.0,13.1511,0.0,0.0,0.0,0.0,0.0,0.0,0.0,14.0158,14.1813,14.061,14.2865,14.5497,14.7828,14.9633,15.1287,15.2941,15.7002,16.046,16.2791,16.4746,16.6551,16.828,16.8356,16.8356,16.8356,16.8356,16.8356,16.8356,16.8356,16.8356,16.8356,16.8356,16.8356,16.8356,16.8356,16.8356,16.8356,16.8356,16.9333,17.0987,17.2717,17.4296,17.5875,17.7604,17.8281,17.8281,17.8281,17.8281,17.8281,17.8281,17.8281,17.8281,17.8281,17.8281,17.8356,17.9108,17.9334,17.9334,17.9334,17.9334,17.9183,17.8431,17.8281,17.8281,17.8281,17.8281,17.8281,17.8281,17.8281,17.8281,17.8281,17.8281,17.8281,17.8281,17.8281,17.8281,17.8281,17.8281,17.8281,17.8281,17.8281,17.8281,17.8281,17.8281,17.8281,17.8281,17.8281,17.8281,17.8281,18.001,18.1665,18.3018,18.6327,18.8131,18.8131,18.8131,18.8131,18.8131,18.7154,18.6702,18.6627,18.4221,18.2642,0.0,0.0,0.0,0.0,12.7075,0.0,0.0,0.0,0.0,13.1962,0.0,13.6925,0.0,0.0,0.0,13.7677,14.0986,14.2414,13.8053,14.3016,14.8204,15.1212,15.3092,15.4746,15.6325,15.9182,16.234,16.5573,16.5949,16.6777,16.828,16.8356,16.8356,16.8356,16.8356,16.8356,16.8356,16.8356,16.8356,16.8356,16.8356,16.8356,16.8356,16.8356,16.8356,16.8356,16.8356,16.9183,17.0762,17.2642,17.4221,17.5649,17.7529,17.8281,17.8281,17.8281,17.8281,17.8281,17.8281,17.8281,17.8281,17.8281,17.8281,17.8507,18.001,18.0612,18.0837,18.0988,18.1063,18.0687,17.8958,17.8582,17.8507,17.8281,17.8281,17.8281,17.8281,17.8281,17.8281,17.8281,17.8281,17.8281,17.8281,17.8281,17.8281,17.8281,17.8281,17.8281,17.8281,17.8281,17.8281,17.8281,17.8281,17.8281,17.8281,17.8281,17.8281,17.8281,17.8281,17.971,18.2943,18.5951,18.7755,18.8131,18.8131,18.8131,18.8131,18.8131,18.8131,18.8056,18.4898,18.3244,0.0,0.0,0.0,0.0,0.0,12.5045,0.0,0.0,0.0,13.6624,13.9858,14.2189,14.2189,14.2715,14.3392,14.3993,14.4896,14.5647,14.6023,15.0685,15.4219,15.4896,15.6475,15.8129,15.9784,16.0536,16.234,16.5573,16.7077,16.798,16.8356,16.8356,16.8356,16.8356,16.8356,16.8356,16.8356,16.8356,16.8356,16.8356,16.8356,16.8356,16.8356,16.8356,16.8356,16.8356,16.8356,16.8506,16.9032,17.2115,17.3544,17.4145,17.7078,17.8281,17.8281,17.8281,17.8281,17.8281,17.8281,17.8281,17.8281,17.8281,17.8281,17.8281,17.8657,17.971,18.1063,18.2341,18.2642,18.2266,18.0687,18.0311,17.9935,17.8582,17.8281,17.8281,17.8281,17.8281,17.8281,17.8281,17.8281,17.8281,17.8281,17.8281,17.8281,17.8281,17.8281,17.8281,17.8281,17.8281,17.8281,17.8281,17.8281,17.8281,17.8281,17.8281,17.8281,17.8281,17.8281,17.971,18.2943,18.3695,18.5349,18.8131,18.8131,18.8131,18.8131,18.8131,18.8131,18.8131,18.6101,18.4372,0.0,0.0,0.0,12.4443,0.0,0.0,0.0,13.3166,13.685,13.9331,14.1888,14.3918,14.467,14.482,14.5647,14.8129,14.8505,14.9407,15.1888,15.5798,15.843,15.843,15.9934,16.1588,16.3242,16.3393,16.4446,16.6927,16.7829,16.8356,16.8356,16.8356,16.8356,16.8356,16.8356,16.8356,16.8356,16.8356,16.8356,16.8356,16.8356,16.8356,16.8356,16.8356,16.8356,16.8356,16.8356,16.8356,16.8581,17.1965,17.3845,17.4822,17.7303,17.8281,17.8281,17.8281,17.8281,17.8281,17.8281,17.8281,17.8281,17.8281,17.8281,17.8431,17.9258,18.0687,18.2266,18.392,18.4372,18.3996,18.2341,18.1364,18.0537,17.971,17.8882,17.8281,17.8281,17.8281,17.8281,17.8281,17.8281,17.8281,17.8281,17.8281,17.8281,17.8281,17.8281,17.8281,17.8281,17.8281,17.8281,17.8281,17.8281,17.8281,17.8281,17.8281,17.8281,17.8281,17.8281,17.971,18.2943,18.3093,18.4672,18.8131,18.8131,18.8131,18.8131,18.8131,18.8131,18.8131,18.6402,18.4747,0.0,0.0,0.0,0.0,0.0,0.0,13.1812,13.6023,13.9632,14.1662,14.3392,14.5121,14.67,14.7001,14.7978,15.1061,15.1813,15.3242,15.6851,16.0009,16.1889,16.1889,16.3393,16.4897,16.6175,16.6325,16.6852,16.828,16.8356,16.8356,16.8356,16.8356,16.8356,16.8356,16.8356,16.8356,16.8356,16.8356,16.8356,16.8356,16.8356,16.8356,16.8356,16.8356,16.8356,16.8356,16.8356,16.8506,16.9107,17.2115,17.4296,17.5875,17.7604,17.8281,17.8281,17.8281,17.8281,17.8281,17.8281,17.8281,17.8281,17.8281,17.8281,17.8582,18.0311,18.189,18.3469,18.5123,18.5875,18.5725,18.3996,18.2642,18.1589,18.0913,17.971,17.8657,17.8356,17.8281,17.8281,17.8281,17.8281,17.8281,17.8281,17.8281,17.8281,17.8281,17.8281,17.8281,17.8281,17.8281,17.8281,17.8281,17.8281,17.8281,17.8281,17.8281,17.8281,17.8281,17.8281,17.971,18.2943,18.3093,18.4672,18.8131,18.8131,18.8131,18.8131,18.8131,18.8131,18.8131,18.6778,18.5048,12.1135,12.2413,12.4067,12.7526,0.0,0.0,13.67,13.9407,14.1737,14.482,14.6775,14.8505,15.0159,15.046,15.1061,15.2941,15.4445,15.7077,16.1964,16.4145,16.5273,16.5273,16.6777,16.7904,16.8055,16.8055,16.813,16.8356,16.8356,16.8356,16.8356,16.8356,16.8356,16.8356,16.8356,16.8356,16.8356,16.8356,16.8356,16.8356,16.8356,16.8356,16.8356,16.8356,16.8356,16.8356,16.8356,16.9183,17.0762,17.2642,17.4296,17.5875,17.7604,17.8281,17.8281,17.8281,17.8281,17.8281,17.8281,17.8281,17.8281,17.8281,17.8281,17.8582,18.0311,18.189,18.3469,18.5123,18.6702,18.7454,18.58,18.5199,18.4372,18.1439,18.0612,18.0086,17.8582,17.8281,17.8281,17.8281,17.8281,17.8281,17.8281,17.8281,17.8281,17.8281,17.8281,17.8281,17.8281,17.8281,17.8281,17.8281,17.8281,17.8281,17.8281,17.8281,17.8281,17.8281,17.8281,17.971,18.2943,18.3093,18.4672,18.8131,18.8131,18.8131,18.8131,18.8131,18.8131,18.8131,18.7981,18.6176,12.0834,12.2563,12.4819,12.9105,0.0,0.0,13.7903,14.1362,14.4595,14.7001,14.8806,15.046,15.2189,15.3242,15.4445,15.6099,15.9332,16.2415,16.4521,16.625,16.7303,16.7303,16.7904,16.8356,16.8356,16.8356,16.8356,16.8356,16.8356,16.8356,16.8356,16.8356,16.8356,16.8356,16.8356,16.8356,16.8356,16.8356,16.8356,16.8356,16.8356,16.8356,16.8356,16.8356,16.8356,16.8356,16.8356,16.9333,17.0987,17.2717,17.4897,17.7228,17.798,17.8281,17.8281,17.8281,17.8281,17.8281,17.8281,17.8281,17.8281,17.8281,17.8281,17.8732,18.1364,18.2567,18.3695,18.6327,18.7605,18.7981,18.7304,18.6402,18.5048,18.2717,18.1439,18.0311,17.8657,17.8281,17.8281,17.8281,17.8281,17.8281,17.8281,17.8281,17.8281,17.8281,17.8281,17.8281,17.8281,17.8281,17.8281,17.8281,17.8281,17.8281,17.8281,17.8281,17.8281,17.8281,17.8281,17.971,18.2943,18.3093,18.4672,18.8131,18.8131,18.8131,18.8131,18.8131,18.8131,18.8131,18.8131,18.6853,12.1285,0.0,0.0,0.0,0.0,0.0,13.9482,14.3467,14.7151,14.8881,15.0535,15.234,15.452,15.5874,15.7453,16.0084,16.3844,16.6551,16.6551,16.7528,16.8356,16.8356,16.8356,16.8356,16.8356,16.8356,16.8356,16.8356,16.8356,16.8356,16.8356,16.8356,16.8356,16.8356,16.8356,16.8356,16.8356,16.8356,16.8356,16.8356,16.8356,16.8356,16.8356,16.8356,16.8356,16.8356,16.8356,16.9559,17.1664,17.2867,17.5273,17.8281,17.8281,17.8281,17.8281,17.8281,17.8281,17.8281,17.8281,17.8281,17.8281,17.8281,17.8582,17.9484,18.2266,18.3394,18.4372,18.7379,18.8131,18.8131,18.8131,18.7229,18.5875,18.4221,18.2567,18.0988,17.9334,17.8958,17.8807,17.8356,17.8281,17.8281,17.8281,17.8281,17.8281,17.8281,17.8281,17.8281,17.8281,17.8281,17.8281,17.8281,17.8281,17.8281,17.8281,17.8281,17.8281,17.8281,17.8281,17.971,18.2943,18.3093,18.4672,18.8131,18.8131,18.8131,18.8131,18.8131,18.8131,18.8131,18.8131,18.7229,0.0,0.0,0.0,13.2414,13.6098,13.9407,14.2715,14.6023,14.8881,15.061,15.2264,15.4445,15.7678,15.8355,15.9934,16.4822,16.7077,16.828,16.828,16.828,16.8356,16.8356,16.8356,16.8356,16.8356,16.8356,16.8356,16.8356,16.8356,16.8356,16.8356,16.8356,16.8356,16.8356,16.8356,16.8356,16.8356,16.8356,16.8356,16.8356,16.8356,16.8356,16.8356,16.8356,16.8356,16.8356,16.8356,17.0235,17.3318,17.3393,17.5273,17.8281,17.8281,17.8281,17.8281,17.8281,17.8281,17.8281,17.8281,17.8281,17.8281,17.8281,17.9334,18.0988,18.2642,18.4221,18.5951,18.768,18.8131,18.8131,18.8131,18.8131,18.768,18.5951,18.4296,18.2567,18.1063,18.0687,18.0236,17.8582,17.8281,17.8281,17.8281,17.8281,17.8281,17.8281,17.8281,17.8281,17.8281,17.8281,17.8281,17.8281,17.8281,17.8281,17.8281,17.8281,17.8281,17.8281,17.8281,17.971,18.2943,18.3093,18.4672,18.8131,18.8131,18.8131,18.8131,18.8131,18.8131,18.8131,18.8131,18.7229,12.4142,12.7526,13.0759,13.5722,13.9482,14.279,14.6099,14.858,15.0986,15.3693,15.5573,15.7453,15.9708,16.1889,16.422,16.7077,16.798,16.8356,16.8356,16.8356,16.8356,16.8356,16.8356,16.8356,16.8356,16.8356,16.8356,16.8356,16.8356,16.8356,16.8356,16.8356,16.8356,16.8356,16.8356,16.8356,16.8356,16.8356,16.8356,16.8356,16.8356,16.8356,16.8356,16.8356,16.8356,16.8356,16.8356,17.0235,17.3393,17.3393,17.5273,17.8281,17.8281,17.8281,17.8281,17.8281,17.8281,17.8281,17.8281,17.8281,17.8281,17.8281,17.9409,18.1063,18.2642,18.4296,18.5951,18.768,18.8131,18.8131,18.8131,18.8131,18.7755,18.6026,18.5199,18.4071,18.1364,18.0762,18.0612,18.001,17.9033,17.8281,17.8281,17.8281,17.8281,17.8281,17.8281,17.8281,17.8281,17.8281,17.8281,17.8281,17.8281,17.8281,17.8281,17.8281,17.8281,17.8281,17.8281,17.971,18.2943,18.3093,18.4672,18.8131,18.8131,18.8131,18.8131,18.8131,18.8131,18.8131,18.8131,18.783,12.497,12.8729,13.2414,13.7376,14.1136,14.452,14.7753,15.0309,15.2866,15.6174,15.8129,16.0009,16.2265,16.4897,16.7077,16.8205,16.8356,16.8356,16.8356,16.8356,16.8356,16.8356,16.8356,16.8356,16.8356,16.8356,16.8356,16.8356,16.8356,16.8356,16.8356,16.8356,16.8356,16.8356,16.8356,16.8356,16.8356,16.8356,16.8356,16.8356,16.8356,16.8356,16.8356,16.8356,16.8356,16.8356,16.8356,17.0235,17.3393,17.3393,17.5273,17.8281,17.8281,17.8281,17.8281,17.8281,17.8281,17.8281,17.8281,17.8281,17.8356,17.8958,18.0311,18.189,18.3544,18.5199,18.6778,18.783,18.8131,18.8131,18.8131,18.8131,18.7906,18.6778,18.6552,18.565,18.2341,18.1589,18.1289,18.0086,17.8958,17.8281,17.8281,17.8281,17.8281,17.8281,17.8281,17.8281,17.8281,17.8281,17.8281,17.8281,17.8281,17.8281,17.8281,17.8281,17.8281,17.8281,17.8281,17.971,18.2943,18.3093,18.4672,18.8131,18.8131,18.8131,18.8131,18.8131,18.8131,18.8131,18.8131,18.8131,12.5045,12.888,13.2564,13.7602,14.1362,14.467,14.7978,15.1287,15.4595,15.7904,15.9934,16.2039,16.5197,16.7228,16.8356,16.8356,16.8356,16.8356,16.8356,16.8356,16.8356,16.8356,16.8356,16.8356,16.8356,16.8356,16.8356,16.8356,16.8356,16.8356,16.8356,16.8356,16.8356,16.8356,16.8356,16.8356,16.8356,16.8356,16.8356,16.8356,16.8356,16.8356,16.8356,16.8356,16.8356,16.8356,16.8356,17.0235,17.3393,17.3393,17.5348,17.8356,17.8356,17.8356,17.8356,17.8356,17.8356,17.8281,17.8356,17.8356,17.8657,18.0386,18.1965,18.3544,18.5123,18.6853,18.8131,18.8131,18.8131,18.8131,18.8131,18.8131,18.8131,18.8131,18.8131,18.7304,18.4071,18.3319,18.2266,17.9033,17.8281,17.8281,17.8281,17.8281,17.8281,17.8281,17.8281,17.8281,17.8281,17.8281,17.8281,17.8281,17.8281,17.8281,17.8281,17.8281,17.8281,17.8281,17.8281,17.971,18.2943,18.3093,18.4672,18.8131,18.8131,18.8131,18.8131,18.8131,18.8131,18.8131,18.8131,18.8131,12.5722,13.0534,13.4594,14.0835,14.3918,14.6625,15.1212,15.3843,15.625,15.9633,16.1663,16.3468,16.5423,16.7228,16.8356,16.8356,16.8356,16.8356,16.8356,16.8356,16.8356,16.8356,16.8356,16.8356,16.8356,16.8356,16.8356,16.8356,16.8356,16.8356,16.8356,16.8356,16.8356,16.8356,16.8356,16.8356,16.8356,16.8356,16.8356,16.8356,16.8356,16.8356,16.8356,16.8356,16.8356,16.8356,16.8356,17.0235,17.3393,17.3393,17.6025,18.0161,18.0161,18.0161,18.0161,18.0161,17.9334,17.8431,17.971,18.0161,18.0386,18.1965,18.362,18.5048,18.5499,18.6853,18.8131,18.8131,18.8131,18.8131,18.8131,18.8131,18.8131,18.8131,18.8131,18.7906,18.7078,18.5875,18.3996,18.0762,17.9108,17.8281,17.8281,17.8281,17.8281,17.8281,17.8281,17.8281,17.8281,17.8281,17.8281,17.8281,17.8281,17.8281,17.8281,17.8281,17.8281,17.8281,17.8281,17.971,18.2943,18.3093,18.4672,18.8131,18.8131,18.8131,18.8131,18.8131,18.8131,18.8131,18.8131,18.8131,12.4443,13.0534,13.6173,14.2189,14.5347,14.8204,15.2565,15.4746,15.6851,16.0235,16.2265,16.3994,16.5498,16.7228,16.8356,16.8356,16.8356,16.8356,16.8356,16.8356,16.8356,16.8356,16.8356,16.8356,16.8356,16.8356,16.8356,16.8356,16.8356,16.8356,16.8356,16.8356,16.8356,16.8356,16.8356,16.8356,16.8356,16.8356,16.8356,16.8356,16.8356,16.8356,16.8356,16.8356,16.8356,16.8356,16.8356,17.0235,17.3393,17.3393,17.6326,18.0762,18.0762,18.1213,18.1815,18.1815,18.1213,18.0537,18.1514,18.1815,18.2116,18.3695,18.4823,18.58,18.6552,18.7379,18.8131,18.8131,18.8131,18.8131,18.8131,18.8131,18.8131,18.8131,18.8131,18.7981,18.7229,18.5199,18.2943,18.1138,17.9409,17.8281,17.8281,17.8281,17.8281,17.8281,17.8281,17.8281,17.8281,17.8281,17.8281,17.8281,17.8281,17.8281,17.8281,17.8281,17.8281,17.8281,17.8281,17.971,18.2943,18.3093,18.4672,18.8131,18.8131,18.8131,18.8131,18.8131,18.8131,18.8131,18.8131,18.8131,12.2488,12.9481,13.6775,14.2264,14.6249,14.9633,15.2866,15.4971,15.7152,16.031,16.2115,16.3618,16.5197,16.6852,16.8055,16.828,16.8356,16.8356,16.8356,16.8356,16.8356,16.8356,16.8356,16.8356,16.8356,16.8356,16.8356,16.8356,16.8356,16.8356,16.8356,16.8356,16.8356,16.8356,16.8356,16.8356,16.8356,16.8356,16.8356,16.8356,16.8356,16.8356,16.8356,16.8356,16.8356,16.8356,16.8356,17.0235,17.3393,17.3619,17.6627,18.1138,18.1364,18.2266,18.3394,18.3394,18.3319,18.3168,18.3319,18.3394,18.3695,18.5424,18.5951,18.6251,18.768,18.8131,18.8131,18.8131,18.8131,18.8131,18.8131,18.8131,18.8131,18.8131,18.8131,18.7605,18.5725,18.3093,18.0988,18.0537,17.9258,17.8281,17.8281,17.8281,17.8281,17.8281,17.8281,17.8281,17.8281,17.8281,17.8281,17.8281,17.8281,17.8281,17.8281,17.8281,17.8281,17.8281,17.8281,17.971,18.2943,18.3093,18.4672,18.8131,18.8131,18.8131,18.8131,18.8131,18.8131,18.8131,18.8131,18.8131,12.2488,12.7827,13.3917,14.1737,14.7151,15.1137,15.3092,15.5874,15.8581,16.0536,16.1137,16.1889,16.3543,16.5197,16.6701,16.813,16.8356,16.8356,16.8356,16.8356,16.8356,16.8356,16.8356,16.8356,16.8356,16.8356,16.8356,16.8356,16.8356,16.8356,16.8356,16.8356,16.8356,16.8356,16.8356,16.8356,16.8356,16.8356,16.8356,16.8356,16.8356,16.8356,16.8356,16.8356,16.8356,16.8356,16.8356,17.0235,17.3469,17.4822,17.8206,18.2792,18.4221,18.4973,18.5199,18.5199,18.4296,18.3319,18.4747,18.5199,18.5499,18.7154,18.7755,18.7755,18.8056,18.8131,18.8131,18.8131,18.8131,18.8131,18.8131,18.8131,18.8131,18.8131,18.8131,18.7304,18.4221,18.3093,18.189,17.9183,17.8431,17.8281,17.8281,17.8281,17.8281,17.8281,17.8281,17.8281,17.8281,17.8281,17.8281,17.8281,17.8281,17.8281,17.8281,17.8281,17.8281,17.8281,17.8281,17.971,18.2943,18.3093,18.4672,18.8131,18.8131,18.8131,18.8131,18.8131,18.8131,18.8131,18.8131,18.8131,12.2714,12.8052,13.3692,13.8504,14.4745,15.0385,15.2941,15.5422,15.7603,15.9257,16.031,16.1212,16.2039,16.4145,16.61,16.6852,16.7754,16.8356,16.8356,16.8356,16.8356,16.8356,16.8356,16.8356,16.8356,16.8356,16.8356,16.8356,16.8356,16.8356,16.8356,16.8356,16.8356,16.8356,16.8356,16.8356,16.8356,16.8356,16.8356,16.8356,16.8356,16.8356,16.8356,16.8356,16.8356,16.8356,16.8356,17.0235,17.3469,17.5048,17.8657,18.3244,18.4973,18.6176,18.6928,18.6928,18.6402,18.5875,18.6627,18.6928,18.7078,18.7906,18.8131,18.8131,18.8131,18.8131,18.8131,18.8131,18.8131,18.8131,18.8131,18.8131,18.8131,18.8131,18.6853,18.5123,18.3469,18.174,18.0086,17.8582,17.8281,17.8281,17.8281,17.8281,17.8281,17.8281,17.8281,17.8281,17.8281,17.8281,17.8281,17.8281,17.8281,17.8281,17.8281,17.8281,17.8281,17.8281,17.8281,17.971,18.2943,18.3093,18.4672,18.8131,18.8131,18.8131,18.8131,18.8131,18.8131,18.8131,18.8131,18.8131,12.3015,12.8654,13.4143,13.5647,14.1813,14.8505,15.264,15.452,15.5874,15.7528,15.9257,16.0536,16.0912,16.3318,16.5423,16.5724,16.7228,16.8356,16.8356,16.8356,16.8356,16.8356,16.8356,16.8356,16.8356,16.8356,16.8356,16.8356,16.8356,16.8356,16.8356,16.8356,16.8356,16.8356,16.8356,16.8356,16.8356,16.8356,16.8356,16.8356,16.8356,16.8356,16.8356,16.8356,16.8356,16.8356,16.8356,17.0235,17.3544,17.5499,17.8958,18.3319,18.5349,18.7003,18.8131,18.8131,18.8131,18.8131,18.8131,18.8131,18.8131,18.8131,18.8131,18.8131,18.8131,18.8131,18.8131,18.8131,18.8131,18.8131,18.8131,18.8131,18.8131,18.8131,18.5875,18.3544,18.3168,18.0837,17.8657,17.8356,17.8281,17.8281,17.8281,17.8281,17.8281,17.8281,17.8281,17.8281,17.8281,17.8281,17.8281,17.8281,17.8281,17.8281,17.8281,17.8281,17.8281,17.8281,17.8281,17.971,18.2943,18.3469,18.5048,18.8131,18.8131,18.8131,18.8131,18.8131,18.8131,18.8131,18.8131,18.8131,12.3315,12.8654,13.4143,13.5647,14.0083,14.5723,15.2114,15.3693,15.4219,15.5798,15.7453,15.9107,16.0686,16.2415,16.4145,16.5573,16.7228,16.8356,16.8356,16.8356,16.8356,16.8356,16.8356,16.8356,16.8356,16.8356,16.8356,16.8356,16.8356,16.8356,16.8356,16.8356,16.8356,16.8356,16.8356,16.8356,16.8356,16.8356,16.8356,16.8356,16.8356,16.8356,16.8356,16.8356,16.8356,16.8356,16.8356,17.0235,17.3619,17.6702,18.001,18.3394,18.6627,18.8056,18.8131,18.8131,18.8131,18.8131,18.8131,18.8131,18.8131,18.8131,18.8131,18.8131,18.8131,18.8131,18.8131,18.8131,18.8131,18.8131,18.8131,18.8131,18.8131,18.8131,18.6778,18.4973,18.3394,18.174,18.0086,17.8582,17.8281,17.8281,17.8281,17.8281,17.8281,17.8281,17.8281,17.8281,17.8281,17.8281,17.8281,17.8281,17.8281,17.8281,17.8281,17.8281,17.8281,17.8281,17.8281,17.971,18.2943,18.4597,18.6251,18.8131,18.8131,18.8131,18.8131,18.8131,18.8131,18.8131,18.8131,18.8131,12.3315,12.8654,13.4143,13.5647,13.9858,14.4595,14.8204,15.0535,15.2791,15.5347,15.6475,15.7453,15.9107,16.0836,0.0,16.4145,16.5724,16.7152,16.8205,16.8356,16.8356,16.8356,16.8356,16.8356,16.8356,16.8356,16.8356,16.8356,16.8356,16.8356,16.8356,16.8356,16.8356,16.8356,16.8356,16.8356,16.8356,16.8356,16.8356,16.8356,16.8356,16.8356,16.8356,16.8356,16.8356,16.8356,16.8356,16.9107,17.0762,17.61,18.0161,18.3394,18.6853,18.8131,18.8131,18.8131,18.8131,18.8131,18.8131,18.8131,18.8131,18.8131,18.8131,18.8131,18.8131,18.8131,18.8131,18.8131,18.8131,18.8131,18.8131,18.8131,18.7906,18.6853,18.5349,18.3695,18.2041,18.0386,17.9033,17.8356,17.8281,17.8281,17.8281,17.8281,17.8281,17.8281,17.8281,17.8281,17.8281,17.8281,17.8281,17.8281,17.8281,17.8281,17.8281,17.8281,17.8281,17.8281,17.9183,18.0762,18.3018,18.4747,18.6402,18.8131,18.8131,18.8131,18.8131,18.8131,18.8131,18.8131,18.8131,18.7605,12.3315,12.8654,13.3993,13.5121,13.9557,14.3918,14.5046,14.7527,15.046,15.3768,15.4821,15.5723,15.7377,15.9032,0.0,16.3092,16.4822,16.6401,16.813,16.8356,16.8356,16.8356,16.8356,16.8356,16.8356,16.8356,16.8356,16.8356,16.8356,16.8356,16.8356,16.8356,16.8356,16.8356,16.8356,16.8356,16.8356,16.8356,16.8356,16.8356,16.8356,16.8356,16.8356,16.8356,16.8356,16.8356,16.8356,16.8656,16.9483,17.4672,17.9334,18.3394,18.6853,18.8131,18.8131,18.8131,18.8131,18.8131,18.8131,18.8131,18.8131,18.8131,18.8131,18.8131,18.8131,18.8131,18.8131,18.8131,18.8131,18.8131,18.8131,18.8131,18.7755,18.6026,18.4296,18.2642,18.1138,17.9484,17.8281,17.8281,17.8281,17.8281,17.8281,17.8281,17.8281,17.8281,17.8281,17.8281,17.8281,17.8281,17.8281,17.8281,17.8281,17.8281,17.8281,17.8281,17.8281,17.8281,17.986,18.1514,18.3018,18.5199,18.6928,18.8131,18.8131,18.8131,18.8131,18.8131,18.7906,18.7379,18.7379,18.6477,12.3315,12.8654,13.3767,13.3767,13.873,14.3617,14.3692,14.4896,14.7001,15.0385,15.2415,15.4069,15.5648,15.7302,15.9558,16.2942,16.4822,16.6401,16.813,16.8356,16.8356,16.8356,16.8356,16.8356,16.8356,16.8356,16.8356,16.8356,16.8356,16.8356,16.8356,16.8356,16.8356,16.8356,16.8356,16.8356,16.8356,16.8356,16.8356,16.8356,16.8356,16.8356,16.8356,16.8356,16.8356,16.8356,16.8356,16.9333,17.0987,17.2717,17.7228,18.3394,18.6853,18.8131,18.8131,18.8131,18.8131,18.8131,18.8131,18.8131,18.8131,18.8131,18.8131,18.8131,18.8131,18.8131,18.8131,18.8131,18.8131,18.8131,18.8131,18.8131,18.7755,18.6026,18.4296,18.2642,18.1138,17.9484,17.8281,17.8281,17.8281,17.8281,17.8281,17.8281,17.8281,17.8281,17.8281,17.8281,17.8281,17.8281,17.8281,17.8281,17.8281,17.8281,17.8281,17.8281,17.8281,17.8281,17.986,18.1514,18.3018,18.6327,18.8131,18.8131,18.8131,18.8131,18.8131,18.8131,18.7304,18.565,18.565,18.4747,12.3315,12.7,13.106,13.4519,13.7752,14.0534,14.1662,14.3993,14.6324,14.7377,14.9858,15.234,15.3994,15.5573,15.7453,15.9633,16.234,16.4746,16.6401,16.7604,16.8356,16.8356,16.8356,16.8356,16.8356,16.8356,16.8356,16.8356,16.8356,16.8356,16.8356,16.8356,16.8356,16.8356,16.8356,16.8356,16.8356,16.8356,16.8356,16.8356,16.8356,16.8356,16.8356,16.8356,16.8356,16.8356,16.8356,16.9333,17.0987,17.2717,17.595,18.0236,18.4672,18.7154,18.8131,18.8131,18.8131,18.8131,18.8131,18.8131,18.8131,18.8131,18.8131,18.8131,18.8131,18.8131,18.8131,18.8131,18.8131,18.8131,18.8131,18.8131,18.7454,18.4597,18.3469,18.2341,17.9634,17.8657,17.8281,17.8281,17.8281,17.8281,17.8281,17.8281,17.8281,17.8281,17.8281,17.8281,17.8281,17.8281,17.8281,17.8281,17.8281,17.8281,17.8281,17.8281,17.8281,17.8281,18.0837,18.3093,18.4747,18.7003,18.8131,18.8131,18.8131,18.8131,18.8131,18.7003,18.6176,18.5575,18.4447,18.3018,12.3015,12.6173,12.9707,13.4068,13.5497,13.6549,13.9482,14.1737,14.3768,14.5572,14.7678,14.9633,15.1362,15.3467,15.5798,15.8054,16.0761,16.3242,16.5498,16.6701,16.7604,16.828,16.8356,16.8356,16.8356,16.8356,16.8356,16.8356,16.8356,16.8356,16.8356,16.8356,16.8356,16.8356,16.8356,16.8356,16.8356,16.8356,16.8356,16.8356,16.8356,16.8356,16.8356,16.8356,16.8356,16.8356,16.9032,17.0235,17.1965,17.3619,17.6251,17.9559,18.3244,18.6101,18.8131,18.8131,18.8131,18.8131,18.8131,18.8131,18.8131,18.8131,18.8131,18.8131,18.8131,18.8131,18.8131,18.8131,18.8131,18.8131,18.8131,18.8131,18.7304,18.392,18.3093,18.2191,17.8958,17.8281,17.8281,17.8281,17.8281,17.8281,17.8281,17.8281,17.8281,17.8281,17.8281,17.8281,17.8281,17.8281,17.8281,17.8281,17.8281,17.8281,17.8281,17.8281,17.8507,17.9183,18.1665,18.3845,18.5575,18.7304,18.8131,18.8131,18.8131,18.8131,18.8131,18.6477,18.5274,18.4672,18.3018,18.1364,12.2488,12.6022,12.918,13.2714,13.2414,13.2489,13.7301,13.8504,13.9933,14.467,14.5873,14.6475,14.8054,15.0986,15.4295,15.7528,15.9558,16.1889,16.5197,0.0,16.6401,16.813,16.8356,16.8356,16.8356,16.8356,16.8356,16.8356,16.8356,16.8356,16.8356,16.8356,16.8356,16.8356,16.8356,16.8356,16.8356,16.8356,16.8356,16.8356,16.8356,16.8356,16.8356,16.8356,16.8356,16.8431,17.016,17.1814,17.3469,17.5048,17.7679,18.0762,18.2341,18.4898,18.783,18.8056,18.8131,18.8131,18.8131,18.8131,18.8131,18.8131,18.8131,18.8131,18.8131,18.8131,18.8131,18.8131,18.8131,18.8131,18.8131,18.8131,18.7304,18.392,18.3093,18.2191,17.8958,17.8281,17.8281,17.8281,17.8281,17.8281,17.8281,17.8281,17.8281,17.8431,17.8356,17.8281,17.8431,17.8356,17.8281,17.8281,17.8281,17.8281,17.8281,17.8281,17.9033,18.0837,18.2416,18.3996,18.5725,18.7304,18.8131,18.8131,18.8131,18.8131,18.8131,18.6327,18.4672,18.3093,18.1364,17.9785,12.2789,12.4368,12.6022,13.0684,13.1511,13.2188,13.5797,13.7677,13.9256,14.1737,14.4294,14.6099,14.655,14.8279,15.0761,15.4144,15.7152,16.016,16.3543,16.5047,16.6401,16.813,16.8356,16.8356,16.8356,16.8356,16.8356,16.8356,16.8356,16.8356,16.8356,16.8356,16.8356,16.8356,16.8356,16.8356,16.8356,16.8356,16.8356,16.8356,16.8356,16.8356,16.8356,16.8356,16.8356,16.8431,17.016,17.1814,17.3469,17.5048,17.6927,17.9033,18.0687,18.2567,18.4597,18.7229,18.8131,18.8131,18.8131,18.8131,18.8131,18.8131,18.8131,18.8131,18.8131,18.8131,18.8131,18.8131,18.8131,18.8131,18.8131,18.8131,18.7304,18.392,18.3093,18.2191,17.8958,17.8281,17.8281,17.8281,17.8281,17.8281,17.8281,17.8281,17.8732,18.001,17.9108,17.8732,18.001,17.9033,17.8281,17.8281,17.8281,17.8281,17.8281,17.8281,17.9484,18.2341,18.4146,18.58,18.753,18.7981,18.8131,18.8131,18.8131,18.8131,18.8131,18.5123,18.3469,18.3018,18.0161,17.8657,12.2864,12.4368,12.5797,12.918,13.0007,13.091,13.4218,13.5722,13.7301,14.0459,14.2489,14.4219,14.5723,14.67,14.843,15.1813,15.5122,15.8731,16.2866,16.422,16.5649,0.0,0.0,16.8356,16.8356,16.8356,16.8356,16.8356,16.8356,16.8356,16.8356,16.8356,16.8356,16.8356,16.8356,16.8356,16.8356,16.8356,16.8356,16.8356,16.8356,16.8356,16.8356,16.8356,16.8356,16.8506,17.0987,17.2566,17.3544,17.595,17.7454,17.8431,18.0161,18.174,18.3394,18.6026,18.753,18.8131,18.8131,18.8131,18.8131,18.8131,18.8131,18.8131,18.8131,18.8131,18.8131,18.8131,18.8131,18.8131,18.8131,18.8131,18.7304,18.392,18.3093,18.2191,17.8958,17.8281,17.8281,17.8281,17.8281,17.8281,17.8281,17.8281,17.8807,18.0537,18.001,17.9785,18.0687,18.001,17.9108,17.8356,17.8281,17.8281,17.8281,17.8281,17.9334,18.189,18.3544,18.5575,18.8056,18.8131,18.8131,18.8131,18.8131,18.8131,18.8131,18.4747,18.3093,18.3018,17.9785,17.8281,12.2939,12.5195,12.7,12.8353,12.8654,12.9481,13.2639,13.3542,13.497,13.9407,14.076,14.1963,14.4745,14.5647,14.6926,14.9783,15.3242,15.7302,16.234,16.3318,16.4596,16.7604,16.8205,16.8356,16.8356,16.8356,16.8356,16.8356,16.8356,16.8356,16.8356,16.8356,16.8356,16.8356,16.8356,16.8356,16.8356,16.8356,16.8356,16.8356,16.8356,16.8356,16.8356,16.8356,16.8356,16.8506,17.189,17.3393,17.3619,17.6927,17.8281,17.8356,17.986,18.1364,18.2943,18.4597,18.6327,18.7755,18.7755,18.7755,18.7755,18.7755,18.7981,18.8131,18.8131,18.8131,18.8131,18.8131,18.8131,18.8131,18.8131,18.8131,18.7304,18.392,18.3093,18.2191,17.8958,17.8281,17.8281,17.8281,17.8281,17.8281,17.8281,17.8281,17.8882,18.0837,18.0913,18.0837,18.1138,18.0913,18.0161,17.8431,17.8281,17.8281,17.8281,17.8281,17.9033,18.0988,18.2642,18.4898,18.8056,18.8131,18.8131,18.8131,18.8131,18.8131,18.8131,18.4747,18.3093,18.3018,17.9785,17.8281,12.3315,12.6022,12.8353,12.8654,12.8654,12.918,13.1135,13.2714,13.4293,13.6399,13.9106,14.1286,14.1737,14.4144,14.6174,14.67,15.0761,15.5648,16.0611,16.2566,16.4145,16.5949,16.7453,16.8356,16.8356,16.8356,16.8356,16.8356,16.8356,16.8356,16.8356,16.8356,16.8356,16.8356,16.8356,16.8356,16.8356,16.8356,16.8356,16.8356,16.8356,16.8356,16.8356,16.8356,16.8356,16.8506,17.189,17.3393,17.3619,17.6927,17.8281,17.8281,17.8582,17.9634,18.1289,18.2943,18.4597,18.6026,18.6026,18.6026,18.6026,18.6026,18.7003,18.8131,18.8131,18.8131,18.8131,18.8131,18.8131,18.8131,18.8131,18.8131,18.7304,18.392,18.3093,18.2191,17.8958,17.8281,17.8281,17.8281,17.8281,17.8281,17.8281,17.8281,17.9258,18.2266,18.1665,18.1289,18.2567,18.1589,18.0161,17.8431,17.8281,17.8281,17.8281,17.8281,17.9559,18.2567,18.4296,18.6101,18.8056,18.8131,18.8131,18.8131,18.8131,18.8131,18.8131,18.4747,18.3093,18.3018,17.9785,17.8281,12.4744,12.6925,12.8654,12.8654,12.8654,12.9105,13.0835,13.1812,13.2865,13.4444,13.67,13.8655,13.9557,14.2489,14.4971,14.5873,14.9482,15.3317,15.6475,16.0686,16.407,16.5649,16.7303,16.8356,16.8356,16.8356,16.8356,16.8356,16.8356,16.8356,16.8356,16.8356,16.8356,16.8356,16.8356,16.8356,16.8356,16.8356,16.8356,16.8356,16.8356,16.8356,16.8356,16.8356,16.8356,16.8506,17.189,17.3393,17.3619,17.6927,17.8281,17.8281,17.8281,17.9258,18.0837,18.1589,18.2868,18.4296,18.4296,18.4296,18.4372,18.5349,18.6778,18.8131,18.8131,18.8131,18.8131,18.8131,18.8131,18.8131,18.8131,18.8131,18.7304,18.392,18.3093,18.2191,17.8958,17.8281,17.8281,17.8281,17.8281,17.8281,17.8281,17.9033,18.0386,18.2717,18.3319,18.3695,18.4372,18.3018,18.1439,17.9785,17.8807,17.8281,17.8281,17.9108,18.0988,18.4296,18.5199,18.6402,18.8056,18.8131,18.8131,18.8131,18.8131,18.8131,18.8131,18.4747,18.3093,18.3018,17.9785,17.7755,12.6925,0.0,12.9331,12.9782,12.9857,13.0083,0.0,13.1511,13.2038,13.294,13.4669,13.6474,13.7752,14.076,14.3542,14.5196,14.8279,15.1137,15.3242,15.828,16.2566,16.4972,16.7077,16.8356,16.8356,16.8356,16.8356,16.8356,16.8356,16.8356,16.8356,16.8356,16.8356,16.8356,16.8356,16.8356,16.8356,16.8356,16.8356,16.8356,16.8356,16.8356,16.8356,16.8356,16.8356,16.8506,17.189,17.3393,17.3619,17.6927,17.8281,17.8281,17.8281,17.8807,17.9634,18.001,18.0687,18.1439,18.1815,18.1965,18.2341,18.4372,18.6477,18.8131,18.8131,18.8131,18.8131,18.8131,18.8131,18.8131,18.8131,18.8131,18.7304,18.392,18.3093,18.2191,17.8958,17.8281,17.8281,17.8281,17.8281,17.8281,17.8281,17.9634,18.1289,18.2868,18.4522,18.565,18.565,18.4146,18.2492,18.0988,17.9258,17.8431,17.8807,18.0386,18.2567,18.5424,18.6026,18.6778,18.8131,18.8131,18.8131,18.8131,18.8131,18.8131,18.8131,18.4747,18.2943,18.2492,17.9183,17.6777,0.0,13.091,13.1436,13.3015,13.3391,13.3015,13.1511,13.2414,0.0,13.1737,13.3917,13.6098,13.6248,13.9031,14.1888,14.3542,14.655,14.9858,15.3092,15.5197,15.8205,16.3092,16.6401,16.8356,16.8356,16.8356,16.8356,16.8356,16.8356,16.8356,16.8356,16.8356,16.8356,16.8356,16.8356,16.8356,16.8356,16.8356,16.8356,16.8356,16.8356,16.8356,16.8356,16.8356,16.8356,16.8506,17.189,17.3393,17.3619,17.6927,17.8281,17.8281,17.8281,17.7379,17.6251,17.783,17.7529,17.6476,17.8055,17.8582,17.9108,18.2266,18.5499,18.8131,18.8131,18.8131,18.8131,18.8131,18.8131,18.8131,18.8131,18.8131,18.7304,18.392,18.3093,18.2191,17.8958,17.8281,17.8281,17.8281,17.8281,17.8281,17.8281,17.9634,18.1289,18.2868,18.4522,18.565,18.565,18.4146,18.2492,18.0988,17.9258,17.8882,18.0461,18.2041,18.3695,18.5499,18.7078,18.8056,18.8131,18.8131,18.8131,18.8131,18.8131,18.8131,18.8131,18.4747,18.2341,18.0837,17.7454,17.5048,13.091,13.1962,13.294,13.3617,13.3767,13.3542,13.294,13.3241,13.3542,13.294,13.4519,13.6023,13.6023,13.8805,14.1662,14.3392,14.6399,14.9708,15.3092,15.5798,15.8957,16.3017,16.6325,16.8356,16.8356,16.8356,16.8356,16.8356,16.8356,16.8356,16.8356,16.8356,16.8356,16.8356,16.8356,16.8356,16.8356,16.8356,16.8356,16.8356,16.8356,16.8356,16.8356,16.8356,16.8356,16.8506,17.0837,17.2416,0.0,17.5724,17.7303,17.8131,17.7078,17.6251,17.5649,17.5348,17.4822,17.4371,17.4972,17.5198,17.595,18.0236,18.2567,18.4146,18.7229,18.8131,18.8131,18.8131,18.8131,18.8131,18.8131,18.8131,18.7304,18.392,18.3093,18.2191,17.8958,17.8281,17.8281,17.8281,17.8281,17.8582,17.9634,18.1138,18.2792,18.4447,18.6101,18.7229,18.7229,18.5725,18.4071,18.2416,18.0762,18.0913,18.3544,18.4372,18.5424,18.7078,18.783,18.8131,18.8131,18.8131,18.8131,18.8131,18.8131,18.8131,18.8131,18.58,18.2792,17.9108,17.58,17.3393,13.309,13.4369,13.5421,13.5948,13.6098,13.5797,13.4745,13.4444,13.4369,13.3842,13.497,13.6023,13.6023,13.8805,14.1662,14.3392,14.6399,14.9708,15.3092,15.5949,15.9107,16.3017,16.5423,16.7228,16.828,16.8356,16.8356,16.8356,16.8356,16.8356,16.8356,16.8356,16.8356,16.8356,16.8356,16.8356,16.8356,16.8356,16.8356,16.8356,16.8356,16.8356,16.8356,16.8356,16.8356,16.8431,17.016,17.1514,17.2717,17.4296,17.5649,17.6627,17.5424,17.4672,17.407,17.3017,17.2266,17.189,17.2416,17.2566,17.3318,17.7755,17.9935,18.1514,18.5349,18.6251,18.5951,18.6402,18.7304,18.8131,18.8131,18.8131,18.7454,18.4597,18.392,18.3168,18.0386,17.9785,17.9785,17.9785,17.9785,18.0161,18.1289,18.2868,18.4296,18.5424,18.7078,18.8131,18.8131,18.6702,18.5199,18.3996,18.2492,18.2642,18.5424,18.565,18.6327,18.8056,18.8131,18.8131,18.8131,18.8131,18.8131,18.8131,18.8131,18.7906,18.7379,18.565,18.2567,17.8206,17.4897,17.219,13.7301,13.8579,13.9031,14.076,14.1136,14.0234,13.685,13.6098,13.5647,13.4143,13.5045,13.6098,13.6098,13.888,14.1662,14.3392,14.6399,14.9708,15.3092,15.4971,15.7829,16.2866,16.3468,16.4746,16.8055,16.8356,16.8356,16.8356,16.8356,16.8356,16.8356,16.8356,16.8356,16.8356,16.8356,16.8356,16.8356,16.8356,16.8356,16.8356,16.8356,16.8356,16.8356,16.8356,16.8356,16.8431,17.0085,17.0837,17.0987,17.2642,17.3393,17.3393,17.3393,17.2341,17.0912,17.0837,16.9784,16.8581,17.0235,17.0837,17.1363,17.4672,17.798,18.0988,18.2567,18.1965,18.1063,18.2642,18.5499,18.8056,18.8056,18.8131,18.768,18.6026,18.565,18.5199,18.3469,18.3093,18.3093,18.3093,18.3093,18.3093,18.3093,18.4522,18.565,18.565,18.7078,18.8131,18.8131,18.6702,18.565,18.565,18.4146,18.3845,18.5499,18.565,18.6402,18.8056,18.8131,18.8131,18.8131,18.8131,18.8131,18.8131,18.8131,18.7304,18.5575,18.3845,18.1364,17.8131,17.4897,17.1589,13.8203,14.0309,14.2264,14.279,14.1963,14.0835,13.9858,13.873,13.7752,13.7226,13.7527,13.8203,13.9407,14.0459,14.2038,14.482,14.8129,15.1061,15.3242,15.6926,16.046,16.3167,16.4446,16.5949,16.813,16.8356,16.8356,16.8356,16.8356,16.8356,16.8356,16.8356,16.8356,16.8356,16.8356,16.8356,16.8356,16.8356,16.8356,16.8356,16.8356,16.8356,16.8356,16.8356,16.8356,16.8356,16.8882,16.9784,17.0912,17.1438,17.2341,17.3243,17.204,17.1288,17.0762,16.9559,16.8807,16.8431,16.8957,16.9107,16.9634,17.2942,17.4747,17.5649,17.61,17.7529,17.9108,17.9559,18.0386,18.1439,18.2642,18.4672,18.6251,18.5725,18.565,18.5199,18.3469,18.3093,18.3093,18.3093,18.3093,18.3469,18.4672,18.5274,18.6026,18.7229,18.783,18.8131,18.8131,18.768,18.6928,18.58,18.6251,18.6853,18.7379,18.7454,18.7605,18.8131,18.8131,18.8131,18.8131,18.8131,18.8131,18.8131,18.7003,18.5575,18.3845,18.1063,17.798,17.4747,17.2642,17.0461,14.0986,14.3016,14.4595,14.4595,14.3843,14.2865,14.2264,14.1362,14.061,14.061,14.061,14.091,14.1963,14.264,14.3918,14.655,14.9858,15.264,15.4295,15.7678,16.0836,16.3167,16.4295,16.5799,16.813,16.8356,16.8356,16.8356,16.8356,16.8356,16.8356,16.8356,16.8356,16.8356,16.8356,16.8356,16.8356,16.8356,16.8356,16.8356,16.8356,16.8356,16.8356,16.8356,16.8356,16.8356,16.8356,16.8957,16.9859,16.9859,17.0461,17.1288,17.0235,16.9859,16.9709,16.8731,16.8356,16.8356,16.8356,16.8356,16.8656,17.0686,17.1363,17.1363,17.1363,17.3243,17.5424,17.61,17.6777,17.7604,17.9334,18.1213,18.2868,18.3544,18.4146,18.4522,18.4221,18.4672,18.5123,18.5123,18.5123,18.5424,18.6477,18.6627,18.7003,18.7981,18.8131,18.8131,18.8131,18.8131,18.7755,18.6778,18.753,18.8131,18.8131,18.8131,18.8131,18.8131,18.8131,18.8131,18.8131,18.753,18.7154,18.7154,18.4898,18.2868,18.1138,17.7905,17.4972,17.2341,17.0686,16.9333,14.452,14.6023,14.6249,14.6249,14.6099,14.5647,14.4219,14.3768,14.3617,14.3617,14.3617,14.3692,14.3843,14.5046,14.6625,14.843,15.1437,15.4144,15.5723,15.7377,15.9708,16.3092,16.3468,16.4746,16.8055,16.8356,16.8356,16.8356,16.8356,16.8356,16.8356,16.8356,16.8356,16.8356,16.8356,16.8356,16.8356,16.8356,16.8356,16.8356,16.8356,16.8356,16.8356,16.8356,16.8356,16.8356,16.8356,16.8356,16.8356,16.8356,16.8356,16.8356,16.8356,16.8356,16.8356,16.8356,16.8356,16.8356,16.8356,16.8356,16.8356,16.8356,16.8356,16.8356,16.8356,16.9408,17.0987,17.2491,17.392,17.5424,17.7153,17.7679,17.8206,17.9935,18.1514,18.3093,18.4597,18.6402,18.768,18.768,18.7981,18.8131,18.8131,18.8131,18.8131,18.8131,18.8131,18.8131,18.8131,18.8131,18.8131,18.8131,18.8131,18.8131,18.8131,18.8131,18.8131,18.7981,18.7906,18.783,18.768,18.6101,18.5199,18.5199,18.1965,17.9484,17.783,17.4672,17.2266,17.0611,16.9032,16.8356,14.3843,14.6023,14.7978,14.7978,14.7001,14.5873,14.5572,14.452,14.3617,14.3617,14.3617,14.3993,14.5272,14.5798,14.7001,15.0009,15.2189,15.4144,15.5723,15.7377,15.9708,16.3092,16.3468,16.4746,16.8055,16.8356,16.8356,16.8356,16.8356,16.8356,16.8356,16.8356,16.8356,16.8356,16.8356,16.8356,16.8356,16.8356,16.8356,16.8356,16.8356,16.8356,16.8356,16.8356,16.8356,16.8356,16.8356,16.8356,16.8356,16.8356,16.8356,16.8356,16.8356,16.8356,16.8356,16.8356,16.8356,16.8356,16.8356,16.8356,16.8356,16.8356,16.8356,16.8356,16.8356,16.8581,16.8957,16.9333,16.9634,17.0311,17.204,17.3469,17.4822,17.6401,17.8055,17.9409,17.9785,18.2116,18.4221,18.4221,18.6327,18.8131,18.8131,18.8131,18.8131,18.8131,18.8131,18.8131,18.8131,18.8131,18.8131,18.8131,18.8131,18.8131,18.8131,18.8131,18.7605,18.6251,18.6176,18.5575,18.4221,18.2642,18.1815,18.1815,17.8507,17.6025,17.4446,17.2416,17.0536,16.8882,16.8506,16.8356,14.4369,14.6023,14.7527,14.8279,14.7828,14.7227,14.7227,14.655,14.5948,14.5948,14.6099,14.6399,14.7076,14.7302,14.843,15.1738,15.2941,15.437,15.6776,15.7904,15.9408,16.1964,16.3017,16.4446,16.6852,16.7829,16.8356,16.8356,16.8356,16.8356,16.8356,16.8356,16.8356,16.8356,16.8356,16.8356,16.8356,16.8356,16.8356,16.8356,16.8356,16.8356,16.8356,16.8356,16.8356,16.8356,16.8356,16.8356,16.8356,16.8356,16.8356,16.8356,16.8356,16.8356,16.8356,16.8356,16.8356,16.8356,16.8356,16.8356,16.8356,16.8356,16.8356,16.8356,16.8356,16.8356,16.8356,16.8356,16.8356,16.8506,16.9408,17.0311,17.1138,17.1965,17.3469,17.4897,17.5724,17.8507,18.0762,18.0762,18.2868,18.4597,18.4597,18.5875,18.6928,18.6928,18.7605,18.8131,18.8131,18.6778,18.5725,18.5725,18.5725,18.5725,18.5725,18.5725,18.5349,18.4447,18.3695,18.2943,18.2041,17.9634,17.8356,17.8356,17.5123,17.3017,17.219,17.0461,16.9183,16.8356,16.8356,16.8356,14.4444,14.5572,14.6324,14.7678,14.8279,14.8505,14.8505,14.8505,14.858,14.858,14.873,14.8806,14.858,14.8956,15.0234,15.3092,15.3768,15.4971,15.7979,15.843,15.9032,16.0761,16.219,16.3769,16.5649,16.7077,0.0,0.0,16.8055,16.8055,16.8356,16.8356,16.8356,16.8356,16.8356,16.8356,16.8356,16.8356,16.8356,16.8356,16.8356,16.8356,16.8356,16.8356,16.8356,16.8356,16.8356,16.8356,16.8356,16.8356,16.8356,16.8356,16.8356,16.8356,16.8356,16.8356,16.8356,16.8356,16.8356,16.8356,16.8356,16.8356,16.8356,16.8356,16.8356,16.8356,16.8356,16.8356,16.8356,16.8356,16.8356,16.8356,16.8356,16.8356,16.9408,17.0837,17.219,17.4597,17.6702,17.7303,17.8958,18.0311,18.0311,18.2792,18.4823,18.4823,18.6251,18.7304,18.7304,18.4597,18.2717,18.2717,18.2943,18.3093,18.3093,18.2868,18.2567,18.2266,18.0762,17.9785,17.9484,17.6551,17.4897,17.4897,17.1965,17.0461,17.0461,16.9032,16.8356,16.8356,16.8356,16.8356,14.1662,14.3843,14.6023,14.6249,14.7452,14.8505,14.8505,14.8655,14.8806,14.8806,14.8881,14.8881,14.8806,14.9858,15.1362,15.3242,15.4746,15.625,15.8129,15.843,15.9032,16.0761,16.1137,16.2491,16.5498,16.6025,16.6777,16.8205,16.7002,16.6777,16.828,16.8356,16.8356,16.8356,16.8356,16.8356,16.8356,16.8356,16.8356,16.8356,16.8356,16.8356,16.8356,16.8356,16.8356,16.8356,16.8356,16.8356,16.8356,16.8356,16.8356,16.8356,16.8356,16.8356,16.8356,16.8356,16.8356,16.8356,16.8356,16.8356,16.8356,16.8356,16.8356,16.8356,16.8356,16.8356,16.8356,16.8356,16.8356,16.8356,16.8356,16.8356,16.8356,16.8356,16.8506,16.8731,16.8957,16.9333,17.0536,17.3469,17.6476,17.8582,17.8582,18.0161,18.1439,18.1439,18.2792,18.377,18.377,18.2191,18.1063,18.1063,18.2266,18.3093,18.3093,18.189,18.0461,17.8958,17.7303,17.58,17.4446,17.2566,17.1514,17.1514,16.9634,16.8656,16.8656,16.8431,16.8356,16.8356,16.8356,16.8356,14.0384,14.1437,14.2264,14.4219,14.5873,14.7076,14.7076,14.7903,14.8655,14.8655,14.8806,14.8806,14.8655,14.9407,15.0836,15.3167,15.4295,0.0,15.8054,15.843,15.8731,0.0,16.0385,0.0,16.2942,16.3919,16.5197,0.0,16.5423,16.5197,16.6852,16.6927,16.7378,16.828,16.8356,16.8356,16.8356,16.8356,16.8356,16.8356,16.8356,16.8356,16.8356,16.8356,16.8356,16.8356,16.8356,16.8356,16.8356,16.8356,16.8356,16.8356,16.8356,16.8356,16.8356,16.8356,16.8356,16.8356,16.8356,16.8356,16.8356,16.8356,16.8356,16.8356,16.8356,16.8356,16.8356,16.8356,16.8356,16.8356,16.8356,16.8356,16.8356,16.8356,16.8356,16.8356,16.8356,16.8356,16.8807,17.0235,17.2491,17.4145,17.4145,17.6251,17.798,17.798,17.9334,17.971,17.7905,17.7078,17.6627,17.6627,17.7228,17.7604,17.7604,17.7003,17.6326,17.5574,17.392,17.2717,17.204,17.0311,16.9483,16.9483,16.8731,16.8356,16.8356,16.8356,16.8356,16.8356,16.8356,16.8356,13.8354,13.9031,13.9331,14.1813,14.3918,14.5422,14.5422,14.6475,14.7452,14.7903,14.8129,14.8354,14.858,14.9182,15.0626,15.3242,15.4087,0.0,15.8129,15.8505,0.0,15.843,0.0,16.046,16.0912,16.2115,0.0,0.0,16.3468,16.3543,16.5122,16.5197,16.5799,16.7077,16.7453,16.7679,16.7679,16.813,16.8356,16.8356,16.8356,16.8356,16.8356,16.8356,16.8356,16.8356,16.8356,16.8356,16.8356,16.8356,16.8356,16.8356,16.8356,16.8356,16.8356,16.8356,16.8356,16.8356,16.8356,16.8356,16.8356,16.8356,16.8356,16.8356,16.8356,16.8356,16.8356,16.8356,16.8356,16.8356,16.8356,16.8356,16.8356,16.8356,16.8356,16.8356,16.8356,16.8356,16.8356,16.8356,16.9333,17.0235,17.0235,17.2566,17.4446,17.4446,17.595,17.58,17.2491,17.2491,17.2717,17.2717,17.3168,17.3393,17.3393,17.3017,17.2717,17.2717,17.1138,17.0461,17.0837,16.9634,16.9183,16.9634,16.9634,16.9408,16.8957,16.8957,16.8807,16.8356,16.8356,16.8356,13.4327,13.6582,13.8988,13.9181,14.1512,14.3843,14.3874,14.4144,14.4714,14.6218,14.6475,14.7001,0.0,0.0,15.1585,15.3592,15.4992,15.6475,15.8505,15.8581,15.843,0.0,0.0,0.0,0.0,0.0,0.0,16.1137,16.1137,16.1814,16.3543,16.3618,16.3618,16.3694,16.5197,16.5949,16.5949,16.7528,16.8356,16.8356,16.8356,16.8356,16.8356,16.8356,16.8356,16.8356,16.8356,16.8356,16.8356,16.8356,16.8356,16.8356,16.8356,16.8356,16.8356,16.8356,16.8356,16.8356,16.8356,16.8356,16.8356,16.8356,16.8356,16.8356,16.8356,16.8356,16.8356,16.8356,16.8356,16.8356,16.8356,16.8356,16.8356,16.8356,16.8356,16.8356,16.8356,16.8356,16.8356,16.8356,16.8431,16.8506,16.8506,16.9935,17.1138,17.1138,17.2566,17.2416,16.9032,17.001,17.0987,17.0987,17.2416,17.3393,17.3393,17.189,17.0987,17.0987,16.9408,16.9183,17.0837,17.0762,17.1514,17.3093,17.3093,17.2341,17.0762,17.0762,16.9935,16.8356,16.8356,16.8356,13.336,13.4261,13.4628,13.5755,13.7654,13.9595,14.0728,14.1769,14.3016,14.467,14.5873,14.6775,14.7452,14.8806,15.04,15.2046,15.3639,15.5183,15.6673,15.7829,15.843,15.843,15.843,15.8656,0.0,0.0,15.9332,15.9332,15.9332,16.0084,16.1739,16.1814,16.234,16.3468,16.3994,16.4295,16.4295,16.4897,16.5724,16.6701,16.7829,16.8356,16.8356,16.8356,16.8356,16.8356,16.8356,16.8356,16.8356,16.8356,16.8356,16.8356,16.8356,16.8356,16.8356,16.8356,16.8356,16.8356,16.8356,16.8356,16.8356,16.8356,16.8356,16.8356,16.8356,16.8356,16.8356,16.8356,16.8356,16.8356,16.8356,16.8356,16.8356,16.8356,16.8356,16.8356,16.8356,16.8356,16.8356,16.8356,16.8356,16.8356,16.8356,16.8882,16.9258,16.9258,16.9784,16.9709,16.8506,16.8882,16.9258,16.9258,16.9784,17.016,17.016,16.9559,16.9709,17.0762,16.9258,16.9107,17.0762,16.9859,16.9559,17.016,17.016,16.9859,16.9258,16.9258,16.8957,16.8356,16.8356,16.8356,13.0152,13.0643,13.0498,13.1623,13.3509,13.5475,13.6632,13.8142,13.9689,14.1347,14.3081,14.4438,14.4966,14.6889,14.8922,15.0581,15.2087,15.3865,15.5846,15.7002,15.7829,15.8355,15.843,0.0,0.0,0.0,15.843,15.843,15.843,15.8881,16.0009,16.0084,16.0611,16.1739,16.234,16.2641,16.2641,16.3167,16.3994,16.5047,16.6175,16.6701,16.6701,16.6701,16.6701,16.6701,16.6701,16.6701,16.6777,16.7303,16.7453,16.7528,16.813,16.8356,16.8356,16.8356,16.7679,16.6701,16.6701,16.6701,16.6777,16.7303,16.7453,16.7604,16.8205,16.8356,16.8356,16.8356,16.8356,16.8356,16.8356,16.8356,16.8356,16.8356,16.8356,16.8356,16.8356,16.8356,16.8356,16.8356,16.8356,16.8356,16.8356,16.8356,16.8356,16.8356,16.8356,16.8356,16.8356,16.8356,16.8356,16.8356,16.8356,16.8356,16.8356,16.8356,16.8807,16.9935,16.8957,16.9107,17.0762,16.9784,16.9483,17.001,17.001,16.9784,16.9183,16.9183,16.8882,16.8356,16.8356,16.8356,12.4525,12.5643,12.6881,12.6996,12.9298,13.1567,13.1969,13.3133,13.458,13.6376,13.8042,13.973,14.1245,14.435,14.7276,14.9133,15.0581,15.2565,15.5976,15.6051,15.6475,15.8129,15.8355,15.8355,0.0,15.8355,15.8355,15.843,15.843,15.843,15.843,15.843,15.843,15.843,16.0009,16.0836,16.0836,16.2491,16.3318,16.3393,16.3393,16.3393,16.3468,16.3468,16.3468,16.3468,16.3468,16.3468,16.3618,16.5122,16.5724,16.5874,16.7528,16.8205,16.8205,16.8205,16.6175,16.3468,16.3468,16.3468,16.3694,16.5273,16.5724,16.6025,16.7679,16.8205,16.8205,16.8205,16.8205,16.828,16.828,16.828,16.8356,16.8356,16.8356,16.8356,16.8356,16.8356,16.8356,16.8356,16.8356,16.8356,16.8356,16.8356,16.8356,16.8356,16.8356,16.8356,16.8356,16.8356,16.8356,16.8356,16.8356,16.8356,16.8356,16.8356,16.8356,16.8431,16.8356,16.9107,17.0762,17.0837,17.1514,17.3093,17.3168,17.2341,17.0611,17.0611,16.9784,16.8205,16.8205,16.8205,12.0855,12.1537,0.0,12.3462,12.4368,12.5706,12.8225,12.9099,13.0191,13.3152,13.505,13.6644,13.8314,14.1251,14.3528,14.4099,14.7416,15.0124,15.0957,15.3044,15.5047,15.64,15.6626,15.6626,15.6626,15.6626,15.7077,15.8355,15.843,15.843,15.843,15.843,15.843,15.843,15.8881,15.9107,15.9107,15.9558,16.046,16.1663,16.1663,16.2265,16.3468,16.3468,16.3468,16.3468,16.3468,16.3468,16.3543,16.3919,16.4145,16.4145,16.4671,16.4822,16.4822,16.4822,16.422,16.3468,16.3468,16.3468,16.3543,16.3994,16.4145,16.422,16.4671,16.4822,16.4822,16.4822,16.5649,16.6551,16.6551,16.7453,16.8356,16.8356,16.8356,16.8356,16.8356,16.8356,16.8356,16.8356,16.8356,16.8356,16.8356,16.8356,16.8356,16.8356,16.8356,16.8356,16.8356,16.8356,16.8356,16.8356,16.8356,16.8356,16.8356,16.8356,16.8882,17.0085,16.9032,16.9107,17.0762,16.9709,16.8656,16.7904,16.7904,16.7077,16.5498,16.5498,16.5273,16.4822,16.4822,16.4822,11.5641,11.5795,11.6175,0.0,11.8832,12.0047,12.2705,12.4375,12.597,12.7944,13.0222,13.2348,13.4019,13.6974,13.956,0.0,14.4059,14.6737,14.8008,15.0291,15.2368,15.3871,15.342,15.3242,15.3843,15.452,15.5347,15.6325,15.7002,15.7377,15.7377,15.8054,15.843,15.843,15.843,15.843,15.843,15.843,15.8881,15.9934,15.9934,16.0385,16.1363,16.1363,16.1363,16.1363,16.1363,16.1363,16.1438,16.2115,16.2415,16.2491,16.3167,16.3468,16.3318,16.1889,16.1363,16.1363,16.1363,16.1363,16.1513,16.219,16.2415,16.2566,16.3242,16.3468,16.3468,16.3468,16.4145,16.4822,16.4822,16.5573,16.6325,16.6325,16.6325,16.6476,16.7152,16.7303,16.7453,16.8205,16.8356,16.8356,16.8356,16.8356,16.8356,16.8356,16.8356,16.8356,16.8356,16.8356,16.8356,16.8356,16.8356,16.8356,16.8356,16.8356,16.8807,16.9709,16.8205,16.7754,16.8731,16.7152,16.5874,16.4822,16.4822,16.437,16.3468,16.3468,16.3468,16.3468,16.3468,16.2866,10.9797,10.9493,10.9873,11.1543,11.3138,11.4656,0.0,0.0,12.1186,12.1566,12.4148,12.6957,12.8855,13.1893,13.5082,13.8347,14.0238,14.25,14.5839,14.7388,14.8638,14.9915,14.891,14.876,15.0385,15.2039,15.3092,15.3242,15.4746,15.5648,15.5648,15.7077,15.7979,15.8129,15.8129,15.8205,15.843,15.843,15.843,15.843,15.843,15.843,15.843,15.843,15.843,15.843,15.843,15.843,15.8581,16.0084,16.0686,16.0836,16.234,16.2942,16.2566,15.9558,15.843,15.843,15.843,15.843,15.8656,16.016,16.0686,16.0912,16.2415,16.2942,16.2942,16.2942,16.3017,16.3167,16.3167,16.3318,16.3468,16.3468,16.3468,16.3844,16.5273,16.5573,16.5949,16.7528,16.7829,16.7829,16.8055,16.8055,16.798,16.7829,16.7829,16.7829,16.7829,16.7829,16.7829,16.7829,16.7829,16.7829,16.7829,16.7829,16.7829,16.7829,16.6401,16.5573,16.5573,16.422,16.3393,16.3167,16.3167,16.3092,16.2942,16.2942,16.2942,16.2942,16.2942,16.1385,0.0,0.0,0.0,0.0,0.0,0.0,0.0,0.0,11.3213,11.5947,11.7997,12.0275,12.3388,12.6653,12.9615,13.1665,13.453,13.75,14.0652,14.243,14.3031,14.198,14.2626,14.4174,14.6956,14.876,15.0263,15.1437,15.3092,15.3994,15.3994,15.4295,15.5122,15.6325,15.64,15.7077,15.843,15.843,15.843,15.843,15.843,15.843,15.843,15.843,15.843,15.843,15.843,15.843,15.843,15.8806,15.8881,15.8957,15.9257,15.9408,15.9332,15.8656,15.843,15.843,15.843,15.843,15.8505,15.8806,15.8881,15.8957,15.9332,15.9408,15.9408,15.9408,16.0385,16.1438,16.1438,16.2415,16.3468,16.3468,16.3468,16.3543,16.3844,16.3919,16.3994,16.437,16.4446,16.4822,16.61,16.6325,16.5874,16.4596,16.4446,16.4446,16.4446,16.4446,16.4446,16.4446,16.4446,16.4446,16.4446,16.4446,16.4446,16.4446,16.4145,16.3919,16.3919,16.3618,16.2866,16.1438,16.1438,16.0761,15.9408,15.9408,15.9483,15.9708,15.9708,15.82,0.0,0.0,0.0,0.0,0.0,0.0,0.0,0.0,0.0,0.0,0.0,11.5719,0.0,0.0,12.4527,12.7109,12.9691,13.2404,13.5586,13.7463,13.7803,13.612,13.7247,13.9449,14.2623,14.4356,14.5903,14.7377,14.9031,15.0309,15.0986,15.1813,15.3016,15.4671,15.4746,15.5122,15.6024,15.6024,15.6024,15.6024,15.6776,15.7152,15.7227,15.8054,15.843,15.843,15.843,15.843,15.843,15.843,15.843,15.828,15.6626,15.6024,15.6024,15.6024,15.6024,15.6024,15.6024,15.6024,15.6024,15.6024,15.655,15.7152,15.7152,15.7753,15.843,15.843,15.9032,15.9708,15.9708,16.031,16.0987,16.0987,16.0987,16.1212,16.2039,16.219,16.2491,16.3318,16.3468,16.3694,16.4521,16.3919,16.3393,16.3468,16.3468,16.3468,16.3468,16.3468,16.3468,16.3468,16.3468,16.3468,16.3468,16.3468,16.3468,16.3468,16.2641,16.219,16.219,16.1363,16.0536,15.9708,15.8881,15.8054,15.7329,15.6626,15.6276,15.6427,15.4846,15.3409,0.0,0.0,0.0,0.0,0.0,0.0,0.0,0.0,0.0,0.0,0.0,0.0,0.0,0.0,0.0,12.2933,12.4983,12.7337,13.1057,13.1757,13.1703,13.1321,13.2492,13.4557,13.7691,13.9426,14.0986,14.2398,14.4338,14.5903,14.7076,14.873,15.0385,15.2039,15.2114,15.2415,15.3092,15.3092,15.3242,15.3618,15.4821,0.0,15.5498,15.6851,15.7528,15.7528,15.7528,15.7528,15.7528,15.7528,15.7528,15.7152,15.3843,15.2565,15.2565,15.2565,15.2565,15.2565,15.2565,15.2791,15.3092,15.3092,15.4144,15.5422,15.5422,15.64,0.0,15.7528,15.7528,15.7528,15.7528,15.7678,15.7979,15.7979,15.8205,15.8806,16.016,16.046,16.0836,16.2265,16.2491,16.2566,16.2942,16.1588,16.0912,16.2265,16.2491,16.2491,16.2491,16.2491,16.2491,16.2491,16.2491,16.2491,16.2491,16.2491,16.2491,16.2491,16.1212,16.046,16.046,15.8881,15.7979,15.7979,15.6051,15.5149,15.5299,15.3721,15.3063,15.3091,14.9275,14.7672,0.0,0.0,0.0,0.0,0.0,0.0,0.0,0.0,0.0,0.0,0.0,0.0,0.0,0.0,0.0,0.0,11.9668,12.2477,12.7413,12.4368,12.3213,12.7545,12.8228,12.9527,13.2646,13.4543,13.607,13.7518,14.0406,14.2145,14.2295,0.0,0.0,0.0,0.0,14.8279,15.1287,15.1287,15.2039,15.3543,15.3768,15.3843,15.3843,15.3994,15.4144,15.4144,15.4144,15.4144,15.4144,15.4144,15.4144,15.3768,15.0385,14.9031,14.9031,14.9031,14.9031,14.9031,14.9031,0.0,0.0,15.1287,15.2415,15.3843,15.3843,15.3919,15.4144,15.4144,15.4144,15.4144,15.4144,15.5122,15.6174,15.6174,15.7377,15.8505,15.8656,15.8731,15.8806,15.8957,15.9032,15.9483,16.0987,15.9859,15.8806,15.8957,15.9032,15.9032,15.9032,15.9032,15.9032,15.9032,15.9032,0.0,15.9032,15.9032,15.9032,15.9032,15.8806,15.8731,15.8731,15.7254,15.6427,15.6174,15.3597,15.2094,15.1588,15.0188,14.9564,14.9703,14.3756,14.1079,0.0,0.0,0.0,0.0,0.0,0.0,0.0,0.0,0.0,0.0,0.0,0.0,0.0,0.0,0.0,0.0,11.4504,11.6403,11.8529,11.701,11.7542,12.2553,12.3085,12.4812,12.9087,13.0095,13.116,13.252,13.4751,13.6421,13.7322,13.8643,14.019,14.1844,14.2715,14.3843,14.5272,14.6249,14.7076,14.7828,14.873,14.9182,14.9182,15.0159,15.061,15.061,15.061,15.061,15.061,15.061,15.061,15.0084,0.0,0.0,0.0,0.0,14.2715,14.2715,14.2715,14.3843,14.5272,14.5272,14.7001,14.9182,14.9182,14.9858,15.061,15.061,15.061,15.0836,15.1813,15.2565,15.3317,15.4295,15.5122,15.5573,15.5573,15.6325,15.6926,15.6926,15.7753,0.0,15.6851,15.6099,15.5949,15.6851,15.6926,15.7302,15.828,15.843,15.843,15.843,15.843,15.843,15.843,15.843,0.0,0.0,0.0,15.6926,15.6926,15.5498,0.0,0.0,0.0,14.7142,14.7051,14.4622,0.0,0.0,13.2951,13.1437,0.0,0.0,0.0,0.0,0.0,0.0,0.0,0.0,0.0,0.0,0.0,0.0,0.0,0.0,0.0,0.0,0.0,11.048,11.048,11.086,11.2834,11.739,11.7921,11.9895,12.4983,12.5438,12.6291,12.8225,12.9898,13.1245,13.227,13.37,13.5018,13.6131,13.7635,13.873,13.9106,14.076,14.1813,14.2264,14.3392,14.3993,14.3993,14.5196,14.5798,14.5798,14.5798,14.5798,14.5798,14.5798,14.5798,14.5121,13.8429,13.5872,13.5872,13.5872,13.5872,13.5872,13.5872,13.7,13.8504,13.8955,14.0986,14.3317,14.3843,14.482,14.5798,14.5798,14.6099,14.6775,14.7978,14.8956,14.9933,15.1212,15.1813,15.2264,15.2791,15.3768,15.4671,15.5197,15.5498,15.4971,15.2565,15.2565,15.3242,15.437,15.4971,15.5723,15.6926,15.7453,15.7753,15.7753,15.8129,15.843,15.843,15.7979,15.7753,15.7753,15.6174,15.5047,15.4595,15.3467,15.1663,14.9182,14.3993,14.1384,0.0,0.0,0.0,0.0,0.0,0.0,0.0,0.0,0.0,0.0,0.0,0.0,0.0,0.0,0.0,0.0,0.0,0.0,0.0,0.0,0.0,0.0,0.0,0.0,10.5165,10.6607,10.8961,11.2378,11.2758,11.4732,11.9668,12.0199,12.1566,12.4906,12.6448,12.7226,12.7149,12.861,12.932,12.8994,13.0869,13.2598,13.3993,13.5497,13.7151,13.873,13.8805,13.8805,13.8805,13.888,13.888,13.888,13.888,13.888,13.888,13.888,13.888,13.8203,13.1587,12.8955,12.8955,12.8955,12.8955,12.8955,12.8955,13.0083,13.1812,13.3466,13.5045,13.67,13.8354,13.888,13.888,13.888,14.0083,14.1362,14.1437,14.3768,14.6174,14.6249,14.7452,14.9106,15.0761,15.1137,15.1663,15.3317,15.1061,14.8806,14.8655,15.0009,15.1137,15.1137,15.2565,0.0,15.3693,15.5047,15.5949,15.5949,15.7453,15.843,15.843,15.6926,15.5949,15.5949,15.452,15.2866,15.1212,15.1137,14.8956,14.4338,13.8136,13.4713,13.4213,0.0,0.0,0.0,0.0,0.0,0.0,0.0,0.0,0.0,0.0,0.0,0.0,0.0,0.0,0.0,0.0,0.0,0.0,0.0,0.0,0.0,0.0,0.0,0.0,0.0,10.2583,10.6987,10.7519,10.9493,11.458,11.5036,11.6023,11.8225,12.0894,12.2349,12.2276,12.4682,12.5946,12.5843,12.7333,12.8353,12.8804,13.0383,13.1436,13.2038,13.2038,13.2038,13.2038,13.2038,13.2639,13.3692,13.3692,13.3692,13.3692,13.3692,13.1737,12.8579,12.6323,12.5421,12.5421,12.5421,12.5421,12.5421,12.5421,12.5872,12.6624,12.8278,12.9932,13.1286,13.1812,13.2038,13.2038,13.2038,13.3241,13.482,13.5948,13.7827,13.9707,14.0835,14.1512,14.2414,14.4068,14.5347,14.6625,14.8279,14.5076,14.2521,14.3467,14.4068,14.5196,14.7377,14.9106,15.061,15.1738,15.3317,15.437,15.437,15.4896,15.5197,15.5197,15.4671,15.437,15.437,15.1738,14.9557,14.8054,14.5723,14.2189,13.7452,13.5237,13.2571,12.9286,0.0,0.0,0.0,0.0,0.0,0.0,0.0,0.0,0.0,0.0,0.0,0.0,0.0,0.0,0.0,0.0,0.0,0.0,0.0,0.0,0.0,0.0,0.0,0.0,0.0,0.0,10.19,10.2355,0.0,10.9341,10.9873,11.0784,11.3062,11.5188,11.6617,11.7179,11.9072,12.0427,12.0829,12.2251,12.3202,12.3767,12.527,12.6323,12.6925,12.6925,12.6925,12.6925,12.6925,12.7526,12.8579,12.8579,12.8579,12.8428,12.6699,12.3691,12.0308,12.0308,12.0308,12.0308,12.0308,12.0308,12.0308,12.0308,12.0308,12.0458,12.1586,12.3015,12.4443,12.497,12.5571,12.6097,12.6097,12.7677,12.9707,13.0835,13.2263,13.3692,13.482,13.5045,13.5722,13.7978,13.9407,14.0158,13.9858,13.7334,13.583,13.7452,13.8203,13.9707,14.2972,14.4971,14.67,14.8279,15.046,15.1964,15.1992,15.3016,15.3693,15.3768,15.2716,15.2039,15.2039,14.8279,14.5347,14.3843,14.0384,13.6474,13.2263,13.1025,12.8121,0.0,0.0,0.0,0.0,0.0,0.0,0.0,0.0,0.0,0.0,0.0,0.0,0.0,0.0,0.0,0.0,0.0,0.0,0.0,0.0,0.0,0.0,0.0,0.0,0.0,0.0,0.0,9.6964,9.7192,0.0,0.0,0.0,0.0,10.9265,10.9569,11.0233,11.1577,11.2046,11.2843,11.4107,11.5649,11.7227,11.8767,12.012,12.1661,12.3315,12.3315,12.3315,12.3315,12.3315,12.3391,12.3466,12.3466,12.3466,12.3015,11.8127,11.5119,11.3616,11.3616,11.3616,11.3616,11.3616,11.3616,11.3616,11.3616,11.3616,11.3616,11.3616,11.4743,11.6322,11.7826,11.9405,0.0,0.0,12.3165,12.5722,12.5797,12.7075,12.8278,12.8278,12.8353,12.9331,13.2639,13.3466,13.2448,12.888,12.8278,12.8955,13.0874,0.0,13.4745,13.8128,14.0115,14.1844,14.3347,14.6475,14.8609,14.8938,15.1663,15.3514,15.3618,15.0761,14.9001,14.8881,14.4144,14.0534,13.8655,13.5346,13.1962,12.8654,12.5383,0.0,0.0,0.0,0.0,0.0,0.0,0.0,0.0,0.0,0.0,0.0,0.0,0.0,0.0,0.0,0.0,0.0,0.0,0.0,0.0,0.0,0.0,0.0,0.0,0.0,0.0,8.6182,8.8612,9.1573,9.1953,9.3927,0.0,0.0,0.0,0.0,0.0,0.0,10.4932,10.7261,10.8768,10.9155,11.0572,11.2136,11.3806,11.3921,11.4897,11.6587,11.6473,11.6398,11.6398,11.6398,11.715,11.8277,11.8277,11.8277,11.7902,11.2864,11.0533,11.0157,11.0157,11.0157,11.0157,11.0157,11.0157,11.0157,11.0157,11.0157,11.0157,11.0157,11.0457,11.0909,11.1285,0.0,0.0,0.0,0.0,11.7375,11.8653,12.106,12.3165,12.3165,12.4142,12.5646,12.7752,12.8278,12.6925,12.2488,12.2676,12.418,12.5908,12.7618,0.0,0.0,0.0,13.6915,13.989,14.2101,14.3834,14.5121,14.5903,14.6475,14.6475,14.5647,14.4595,14.3317,14.076,13.7602,13.3617,13.1436,12.7601,12.1962,0.0,0.0,0.0,0.0,0.0,0.0,0.0,0.0,0.0,0.0,0.0,0.0,0.0,0.0,0.0,0.0,0.0,0.0,0.0,0.0,0.0,0.0,0.0,0.0,0.0,0.0,0.0,8.1246,8.3752,8.6334,8.6106,8.7321,0.0,0.0,0.0,0.0,0.0,0.0,0.0,0.0,0.0,10.4064,10.4763,10.5964,10.7654,10.8175,10.9227,11.099,11.1476,11.1736,11.1852,11.1736,11.2187,11.3089,11.3089,11.1435,10.8578,10.572,10.4517,10.4517,0.0,0.0,0.0,0.0,10.4517,10.4517,10.4517,10.4517,10.4517,10.4517,0.0,0.0,0.0,0.0,0.0,0.0,0.0,11.0909,11.1811,11.4518,11.6999,11.6999,11.8277,11.9932,12.1661,12.0383,11.8166,11.5385,11.573,11.72,11.9742,12.1567,0.0,0.0,0.0,13.3175,13.5654,13.8069,14.0199,14.1958,14.2664,14.3152,14.3253,14.2489,14.1061,13.8612,13.6098,13.3166,12.9782,12.6549,12.2803,0.0,0.0,0.0,0.0,0.0,0.0,0.0,0.0,0.0,0.0,0.0,0.0,0.0,0.0,0.0,0.0,0.0,0.0,0.0,0.0,0.0,0.0,0.0,0.0,0.0,0.0,0.0,0.0,0.0,7.9196,8.1246,0.0,0.0,0.0,0.0,0.0,0.0,0.0,0.0,0.0,0.0,0.0,0.0,0.0,9.9284,10.0244,10.224,10.416,10.5962,10.7106,10.774,10.7984,10.7717,10.7567,10.76,10.7149,0.0,9.7976,9.802,0.0,0.0,0.0,0.0,0.0,0.0,0.0,0.0,0.0,0.0,0.0,0.0,0.0,0.0,0.0,0.0,0.0,0.0,0.0,0.0,0.0,0.0,11.0123,11.0423,11.1736,11.3199,11.4019,11.0976,10.8117,10.8135,10.8558,10.9798,0.0,0.0,0.0,0.0,0.0,0.0,13.1554,13.4299,13.6849,13.9025,14.0389,14.1206,14.1379,13.9833,13.7615,13.4489,13.1216,12.8355,12.6211,12.1607,0.0,0.0,0.0,0.0,0.0,0.0,0.0,0.0,0.0,0.0,0.0,0.0,0.0,0.0,0.0,0.0,0.0,0.0,0.0,0.0,0.0,0.0,0.0,0.0,0.0,0.0,0.0,0.0,0.0,0.0,0.0,0.0,0.0,0.0,0.0,0.0,0.0,0.0,0.0,0.0,0.0,0.0,0.0,0.0,0.0,0.0,0.0,0.0,0.0,0.0,10.1068,10.1143,10.1221,10.1221,10.1071,10.0845,9.8126,9.5494,9.2984,9.3134,0.0,0.0,0.0,0.0,0.0,0.0,0.0,0.0,0.0,0.0,0.0,0.0,0.0,0.0,0.0,0.0,0.0,0.0,0.0,0.0,0.0,0.0,10.3776,10.5211,10.6782,10.7006,10.3245,0.0,0.0,0.0,0.0,0.0,0.0,0.0,0.0,0.0,0.0,0.0,12.94,13.06,13.2171,13.5309,13.5889,13.5998,13.6098,13.4311,13.2399,13.0456,12.8488,12.5386,0.0,0.0,0.0,0.0,0.0,0.0,0.0,0.0,0.0,0.0,0.0,0.0,0.0,0.0,0.0,0.0,0.0,0.0,0.0,0.0,0.0,0.0,0.0,0.0,0.0,0.0,0.0,0.0,0.0,0.0,0.0,0.0,0.0,0.0,0.0,0.0,0.0,0.0,0.0,0.0,0.0,0.0,0.0,0.0,0.0,0.0,0.0,0.0,0.0,0.0,0.0,0.0,0.0,0.0,0.0,0.0,0.0,0.0,0.0,8.7544,0.0,0.0,0.0,0.0,0.0,0.0,0.0,0.0,0.0,0.0,0.0,0.0,0.0,0.0,0.0,0.0,0.0,0.0,0.0,0.0,0.0,0.0,0.0,0.0,0.0,0.0,0.0,0.0,0.0,0.0,0.0,0.0,0.0,0.0,0.0,0.0,0.0,0.0,0.0,0.0,12.4185,12.6139,12.8552,13.1893,13.1464,13.1324,13.2177,13.0589,12.8473,12.5893,12.4224,0.0,0.0,0.0,0.0,0.0,0.0,0.0,0.0,0.0,0.0,0.0,0.0,0.0,0.0,0.0,0.0,0.0,0.0,0.0,0.0,0.0,0.0,0.0,0.0,0.0,0.0,0.0,0.0,0.0,0.0,0.0,0.0,0.0,0.0,0.0,0.0,0.0,0.0,0.0,0.0,0.0,0.0,0.0,0.0,0.0,0.0,0.0,0.0,0.0,0.0,0.0,0.0,0.0,0.0,0.0,0.0,0.0,0.0,0.0,8.3957,0.0,0.0,0.0,0.0,0.0,0.0,0.0,0.0,0.0,0.0,0.0,0.0,0.0,0.0,0.0,0.0,0.0,0.0,0.0,0.0,0.0,0.0,0.0,0.0,0.0,0.0,0.0,0.0,0.0,0.0,0.0,0.0,0.0,0.0,0.0,0.0,0.0,0.0,0.0,0.0,0.0,11.982,12.2553,12.5742,12.9159,12.802,12.764,12.9387,12.764,12.5135,12.2097,12.0047,0.0,0.0,0.0,0.0,0.0,0.0,0.0,0.0,0.0,0.0,0.0,0.0,0.0,0.0,0.0,0.0,0.0,0.0,0.0,0.0,0.0,0.0,0.0,0.0,0.0,0.0,0.0,0.0,0.0,0.0,0.0,0.0,0.0,0.0,0.0,0.0,0.0,0.0,0.0,0.0,0.0,0.0,0.0,0.0,0.0,0.0,0.0,0.0,0.0,0.0,0.0,0.0,0.0,0.0,0.0,0.0,0.0,0.0,0.0,0.0,0.0,0.0,0.0,0.0,0.0,0.0,0.0,0.0,0.0,0.0,0.0,0.0,0.0,0.0,0.0,0.0,0.0,0.0,0.0,0.0,0.0,0.0,0.0,0.0,0.0,0.0,0.0,0.0,0.0,0.0,0.0,0.0,0.0,0.0,0.0,0.0,0.0,0.0,0.0,0.0,0.0,11.9364,12.1566,12.3996,12.7413,12.6198,12.5894,12.764,12.4831,12.2097,12.0275,0.0,0.0,0.0,0.0,0.0,0.0,0.0,0.0,0.0,0.0,0.0,0.0,0.0,0.0,0.0,0.0,0.0,0.0,0.0,0.0,0.0,0.0,0.0,0.0,0.0,0.0,0.0,0.0,0.0,0.0,0.0,0.0,0.0,0.0,0.0,0.0,0.0,0.0,0.0,0.0,0.0,0.0,0.0,0.0,0.0,0.0,0.0,0.0,0.0,0.0,0.0,0.0,0.0,0.0,0.0,0.0,0.0,0.0,0.0,0.0,0.0,0.0,0.0,0.0,0.0,0.0,0.0,0.0,0.0,0.0,0.0,0.0,0.0,0.0,0.0,0.0,0.0,0.0,0.0,0.0,0.0,0.0,0.0,0.0,0.0,0.0,0.0,0.0,0.0,0.0,0.0,0.0,0.0,0.0,0.0,0.0,0.0,0.0,0.0,0.0,0.0,0.0,11.6479,11.8453,12.0731,12.4148,12.2933,12.2629,12.4299,12.2325,12.0199,11.8529,0.0,0.0,0.0,0.0,0.0,0.0,0.0,0.0,0.0,0.0,0.0,0.0,0.0,0.0,0.0,0.0,0.0,0.0,0.0,0.0,0.0,0.0,0.0,0.0,0.0,0.0,0.0,0.0,0.0,0.0,0.0,0.0,0.0,0.0,0.0,0.0,0.0,0.0,0.0,0.0,0.0,0.0,0.0,0.0,0.0,0.0,0.0,0.0,0.0,0.0,0.0,0.0,0.0,0.0,0.0,0.0,0.0,0.0,0.0,0.0,0.0,0.0,0.0,0.0,0.0,0.0,0.0,0.0,0.0,0.0,0.0,0.0,0.0,0.0,0.0,0.0,0.0,0.0,0.0,0.0,0.0,0.0,0.0,0.0,0.0,0.0,0.0,0.0,0.0,0.0,0.0,0.0,0.0,0.0,0.0,0.0,0.0,0.0,0.0,0.0,0.0,0.0,11.3138,11.5795,11.8528,12.1409,12.0654,12.0579,12.2325,12.0427,11.8301,11.6099,0.0,0.0,0.0,0.0,0.0,0.0,0.0,0.0,0.0,0.0,0.0,0.0,0.0,0.0,0.0,0.0,0.0,0.0,0.0,0.0,0.0,0.0,0.0,0.0,0.0,0.0,0.0,0.0,0.0,0.0,0.0,0.0,0.0,0.0,0.0,0.0,0.0,0.0,0.0,0.0,0.0,0.0,0.0,0.0,0.0,0.0,0.0,0.0,0.0,0.0,0.0,0.0,0.0,0.0,0.0,0.0,0.0,0.0,0.0,0.0,0.0,0.0,0.0,0.0,0.0,0.0,0.0,0.0,0.0,0.0,0.0,0.0,0.0,0.0,0.0,0.0,0.0,0.0,0.0,0.0,0.0,0.0,0.0,0.0,0.0,0.0,0.0,0.0,0.0,0.0,0.0,0.0,0.0,0.0,0.0,0.0,0.0,0.0,0.0,0.0,0.0,0.0,10.9645,11.4352,11.8069,11.9764,11.9961,12.0579,12.2325,11.9364,11.6023,0.0,0.0,0.0,0.0,0.0,0.0,0.0,0.0,0.0,0.0,0.0,0.0,0.0,0.0,0.0,0.0,0.0,0.0,0.0,0.0,0.0,0.0,0.0,0.0,0.0,0.0,0.0,0.0,0.0,0.0,0.0,0.0,0.0,0.0,0.0,0.0,0.0,0.0,0.0,0.0,0.0,0.0,0.0,0.0,0.0,0.0,0.0,0.0,0.0,0.0,0.0,0.0,0.0,0.0,0.0,0.0,0.0,0.0,0.0,0.0,0.0,0.0,0.0,0.0,0.0,0.0,0.0,0.0,0.0,0.0,0.0,0.0,0.0,0.0,0.0,0.0,0.0,0.0,0.0,0.0,0.0,0.0,0.0,0.0,0.0,0.0,0.0,0.0,0.0,0.0,0.0,0.0,0.0,0.0,0.0,0.0,0.0,0.0,0.0,0.0,0.0,0.0,0.0,10.9417,11.2445,11.471,0.0,11.6629,11.6858,11.739,11.6403,11.4427,11.1005,0.0,0.0,0.0,0.0,0.0,0.0,0.0,0.0,0.0,0.0,0.0,0.0,0.0,0.0,0.0,0.0,0.0,0.0,0.0,0.0,0.0,0.0,0.0,0.0,0.0,0.0,0.0,0.0,0.0,0.0,0.0,0.0,0.0,0.0,0.0,0.0,0.0,0.0,0.0,0.0,0.0,0.0,0.0,0.0,0.0,0.0,0.0,0.0,0.0,0.0,0.0,0.0,0.0,0.0,0.0,0.0,0.0,0.0,0.0,0.0,0.0,0.0,0.0,0.0,0.0,0.0,0.0,0.0,0.0,0.0,0.0,0.0,0.0,0.0,0.0,0.0,0.0,0.0,0.0,0.0,0.0,0.0,0.0,0.0,0.0,0.0,0.0,0.0,0.0,0.0,0.0,0.0,0.0,0.0,0.0,0.0,0.0,0.0,0.0,0.0,0.0,0.0,0.0,10.9324,11.1986,0.0,11.4352,11.5112,11.5112,11.3893,11.1986,10.9244,0.0,0.0,0.0,0.0,0.0,0.0,0.0,0.0,0.0,0.0,0.0,0.0,0.0,0.0,0.0,0.0,0.0,0.0,0.0,0.0,0.0,0.0,0.0,0.0,0.0,0.0,0.0,0.0,0.0,0.0,0.0,0.0,0.0,0.0,0.0,0.0,0.0,0.0,0.0,0.0,0.0,0.0,0.0,0.0,0.0,0.0,0.0,0.0,0.0,0.0,0.0,0.0,0.0,0.0,0.0,0.0,0.0,0.0,0.0,0.0,0.0,0.0,0.0,0.0,0.0,0.0,0.0,0.0,0.0,0.0,0.0,0.0,0.0,0.0,0.0,0.0,0.0,0.0,0.0,0.0,0.0,0.0,0.0,0.0,0.0,0.0,0.0,0.0,0.0,0.0,0.0,0.0,0.0,0.0,0.0,0.0,0.0,0.0,0.0,0.0,0.0,0.0,0.0,10.5763,10.9873,10.9873,11.2758,11.4656,11.458,11.1668,10.8979,10.7108,10.0941,0.0,0.0,0.0,0.0,0.0,0.0,0.0,0.0,0.0,0.0,0.0,0.0,0.0,0.0,0.0,0.0,0.0,0.0,0.0,0.0,0.0,0.0,0.0,0.0,0.0,0.0,0.0,0.0,0.0,0.0,0.0,0.0,0.0,0.0,0.0,0.0,0.0,0.0,0.0,0.0,0.0,0.0,0.0,0.0,0.0,0.0,0.0,0.0,0.0,0.0,0.0,0.0,0.0,0.0,0.0,0.0,0.0,0.0,0.0,0.0,0.0,0.0,0.0,0.0,0.0,0.0,0.0,0.0,0.0,0.0,0.0,0.0,0.0,0.0,0.0,0.0,0.0,0.0,0.0,0.0,0.0,0.0,0.0,0.0,0.0,0.0,0.0,0.0,0.0,0.0,0.0,0.0,0.0,0.0,0.0,0.0,0.0,0.0,0.0,0.0,0.0,0.0,10.47,10.8126,10.8126,10.9948,11.0705,10.9379,10.8524,10.6239,10.1997,9.8961,0.0,0.0,0.0,0.0,0.0,0.0,0.0,0.0,0.0,0.0,0.0,0.0,0.0,0.0,0.0,0.0,0.0,0.0,0.0,0.0,0.0,0.0,0.0,0.0,0.0,0.0,0.0,0.0,0.0,0.0,0.0,0.0,0.0,0.0,0.0,0.0,0.0,0.0,0.0,0.0,0.0,0.0,0.0,0.0,0.0,0.0,0.0,0.0,0.0,0.0,0.0,0.0,0.0,0.0,0.0,0.0,0.0,0.0,0.0,0.0,0.0,0.0,0.0,0.0,0.0,0.0,0.0,0.0,0.0,0.0,0.0,0.0,0.0,0.0,0.0,0.0,0.0,0.0,0.0,0.0,0.0,0.0,0.0,0.0,0.0,0.0,0.0,0.0,0.0,0.0,0.0,0.0,0.0,0.0,0.0,0.0,0.0,0.0,0.0,0.0,0.0,0.0,9.9385,10.1824,10.4861,10.6683,10.7668,10.7482,10.5336,10.2824,10.0092,9.6222,0.0,0.0,0.0,0.0,0.0,0.0,0.0,0.0,0.0,0.0,0.0,0.0,0.0,0.0,0.0,0.0,0.0,0.0,0.0,0.0,0.0,0.0,0.0,0.0,0.0,0.0,0.0,0.0,0.0,0.0,0.0,0.0,0.0,0.0,0.0,0.0,0.0,0.0,0.0,0.0,0.0,0.0,0.0,0.0,0.0,0.0,0.0,0.0,0.0,0.0,0.0,0.0,0.0,0.0,0.0,0.0,0.0,0.0,0.0,0.0,0.0,0.0,0.0,0.0,0.0,0.0,0.0,0.0,0.0,0.0,0.0,0.0,0.0,0.0,0.0,0.0,0.0,0.0,0.0,0.0,0.0,0.0,0.0,0.0,0.0,0.0,0.0,0.0,0.0,0.0,0.0,0.0,0.0,0.0,0.0,0.0,0.0,0.0,0.0,0.0,0.0,0.0,0.0,9.4989,10.1367,10.3797,10.5314,10.6283,10.239,9.9561,9.8878,0.0,0.0,0.0,0.0,0.0,0.0,0.0,0.0,0.0,0.0,0.0,0.0,0.0,0.0,0.0,0.0,0.0,0.0,0.0,0.0,0.0,0.0,0.0,0.0,0.0,0.0,0.0,0.0,0.0,0.0,0.0,0.0,0.0,0.0,0.0,0.0,0.0,0.0,0.0,0.0,0.0,0.0,0.0,0.0,0.0,0.0,0.0,0.0,0.0,0.0,0.0,0.0,0.0,0.0,0.0,0.0,0.0,0.0,0.0,0.0,0.0,0.0,0.0,0.0,0.0,0.0,0.0,0.0,0.0,0.0,0.0,0.0,0.0,0.0,0.0,0.0,0.0,0.0,0.0,0.0,0.0,0.0,0.0,0.0,0.0,0.0,0.0,0.0,0.0,0.0,0.0,0.0,0.0,0.0,0.0,0.0,0.0,0.0,0.0,0.0,0.0,0.0,0.0,0.0,0.0,9.9739,10.3095,10.3934,10.1321,10.0327,9.8119,9.3946,0.0,0.0,0.0,0.0,0.0,0.0,0.0,0.0,0.0,0.0,0.0,0.0,0.0,0.0]}],[{"header":{"parameterUnit":"kt","parameterCategory":2,"dx":1,"dy":1,"la1":29.285339999999998,"la2":30.599998999999997,"lo1":-89.70041500000002,"lo2":-87.6738589999976,"nx":112,"ny":82,"refTime":"2022-10-14T06:00:00:Z","depth":0,"parameterNumber":2,"parameterNumberName":"V-component_of_WINDS"},"data":[2.0797,2.067,2.0512,2.0353,2.0311,0.0,2.0205,0.0,0.0,0.0,0.0,0.0,0.0,0.0,0.0,0.0,0.0,0.0,0.0,1.9214,0.0,0.0,0.0,0.0,0.0,0.0,0.0,0.0,2.23,2.2751,2.3027,2.3217,2.3418,2.365,2.3661,2.3661,2.3661,2.3661,2.4028,2.4028,2.4028,2.4395,2.4762,2.4762,2.4806,2.4895,2.5894,2.578,2.5647,2.6263,2.6078,2.5445,2.5056,2.5056,2.5056,2.5056,2.5056,2.5056,2.5056,2.5056,2.5056,2.5056,2.5056,2.5056,2.5056,2.5056,2.5056,2.5056,2.5056,2.5056,2.5056,2.5056,2.5056,2.5056,2.5056,2.5056,2.5056,2.5056,2.5056,2.5056,2.5056,2.5056,2.5056,2.5056,2.5056,2.5056,2.5056,2.5056,2.5056,2.5056,2.5056,2.5056,2.5056,2.5056,2.5056,2.5056,2.5056,2.5056,2.5404,2.5616,2.5616,2.5986,2.6155,2.6081,2.6155,2.6081,2.5848,2.569,2.5542,2.5404,2.5161,2.5056,2.0406,0.0,2.0047,1.9973,0.0,0.0,0.0,0.0,0.0,0.0,0.0,0.0,0.0,0.0,0.0,0.0,0.0,0.0,0.0,0.0,0.0,0.0,0.0,0.0,0.0,0.0,0.0,0.0,2.2255,2.2657,2.327,2.3376,2.3492,2.365,2.3661,2.3661,2.3661,2.3661,2.3661,2.3661,2.3661,2.3661,2.3661,2.3661,2.3661,2.3671,2.4657,2.4896,2.4379,2.5376,2.5605,2.5056,2.5056,2.5056,2.5056,2.5056,2.5056,2.5056,2.5056,2.5056,2.5056,2.5056,2.5056,2.5056,2.5056,2.5056,2.5056,2.5056,2.5056,2.5056,2.5056,2.5056,2.5056,2.5056,2.5056,2.5056,2.5056,2.5056,2.5056,2.5056,2.5056,2.5056,2.5056,2.5056,2.5056,2.5056,2.5056,2.5056,2.5056,2.5056,2.5056,2.5056,2.5056,2.5056,2.5056,2.5056,2.5056,2.5056,2.5478,2.5732,2.5732,2.6186,2.644,2.644,2.644,2.6366,2.6208,2.5965,2.5732,2.551,2.5278,2.5172,0.0,0.0,0.0,1.9497,0.0,0.0,0.0,0.0,1.8726,0.0,0.0,0.0,0.0,0.0,0.0,0.0,0.0,0.0,0.0,0.0,0.0,0.0,0.0,0.0,0.0,2.1241,2.1547,0.0,2.2498,2.2837,2.3291,2.3534,2.3661,2.3661,2.3661,2.3661,2.3661,2.3661,2.3661,2.3661,2.3661,2.3661,2.3661,2.3661,2.3661,2.3671,2.3904,2.4136,2.4369,2.4591,2.4823,2.5045,2.5045,2.5056,2.5056,2.5056,2.5056,2.5056,2.5056,2.5056,2.5056,2.5056,2.5056,2.5056,2.5056,2.5056,2.5056,2.5056,2.5056,2.5056,2.5056,2.5056,2.5056,2.5056,2.5056,2.5056,2.5056,2.5056,2.5056,2.5056,2.5056,2.5056,2.5056,2.5056,2.5056,2.5056,2.5056,2.5056,2.5056,2.5056,2.5056,2.5056,2.5056,2.5056,2.5056,2.5056,2.5056,2.5056,2.5478,2.5732,2.5732,2.6186,2.644,2.644,2.644,2.644,2.644,2.6208,2.5975,2.5743,2.5521,2.5415,1.9465,0.0,0.0,0.0,0.0,0.0,0.0,0.0,0.0,0.0,0.0,0.0,0.0,0.0,0.0,0.0,0.0,1.9423,0.0,1.9603,0.0,0.0,0.0,0.0,0.0,2.1685,2.2129,2.2498,2.2889,2.3249,2.3545,2.3619,2.3661,2.3661,2.3661,2.3661,2.3661,2.3661,2.3661,2.3661,2.3661,2.3661,2.3661,2.3661,2.3661,2.3661,2.3724,2.3893,2.4126,2.4358,2.4591,2.4813,2.4982,2.5056,2.5056,2.5056,2.5056,2.5056,2.5056,2.5056,2.5056,2.5056,2.5056,2.5056,2.5056,2.5056,2.5056,2.5056,2.5056,2.5056,2.5056,2.5056,2.5056,2.5056,2.5056,2.5056,2.5056,2.5056,2.5056,2.5056,2.5056,2.5056,2.5056,2.5056,2.5056,2.5056,2.5056,2.5056,2.5056,2.5056,2.5056,2.5056,2.5056,2.5056,2.5056,2.5056,2.5056,2.5056,2.5478,2.5732,2.5732,2.6186,2.644,2.644,2.644,2.644,2.644,2.6208,2.606,2.5986,2.5753,2.5563,0.0,0.0,0.0,0.0,0.0,0.0,1.824,0.0,1.8483,0.0,0.0,0.0,0.0,0.0,0.0,0.0,1.9698,1.993,1.9761,2.0078,2.0448,2.0776,2.103,2.1262,2.1494,2.2065,2.2551,2.2879,2.3154,2.3407,2.365,2.3661,2.3661,2.3661,2.3661,2.3661,2.3661,2.3661,2.3661,2.3661,2.3661,2.3661,2.3661,2.3661,2.3661,2.3661,2.3661,2.3798,2.4031,2.4274,2.4496,2.4718,2.4961,2.5056,2.5056,2.5056,2.5056,2.5056,2.5056,2.5056,2.5056,2.5056,2.5056,2.5066,2.5172,2.5204,2.5204,2.5204,2.5204,2.5183,2.5077,2.5056,2.5056,2.5056,2.5056,2.5056,2.5056,2.5056,2.5056,2.5056,2.5056,2.5056,2.5056,2.5056,2.5056,2.5056,2.5056,2.5056,2.5056,2.5056,2.5056,2.5056,2.5056,2.5056,2.5056,2.5056,2.5056,2.5056,2.5299,2.5531,2.5722,2.6186,2.644,2.644,2.644,2.644,2.644,2.6303,2.6239,2.6229,2.5891,2.5669,0.0,0.0,0.0,0.0,1.7859,0.0,0.0,0.0,0.0,1.8546,0.0,1.9244,0.0,0.0,0.0,1.9349,1.9814,2.0015,1.9402,2.01,2.0829,2.1251,2.1516,2.1748,2.197,2.2372,2.2815,2.327,2.3323,2.3439,2.365,2.3661,2.3661,2.3661,2.3661,2.3661,2.3661,2.3661,2.3661,2.3661,2.3661,2.3661,2.3661,2.3661,2.3661,2.3661,2.3661,2.3777,2.3999,2.4263,2.4485,2.4686,2.495,2.5056,2.5056,2.5056,2.5056,2.5056,2.5056,2.5056,2.5056,2.5056,2.5056,2.5087,2.5299,2.5383,2.5415,2.5436,2.5447,2.5394,2.5151,2.5098,2.5087,2.5056,2.5056,2.5056,2.5056,2.5056,2.5056,2.5056,2.5056,2.5056,2.5056,2.5056,2.5056,2.5056,2.5056,2.5056,2.5056,2.5056,2.5056,2.5056,2.5056,2.5056,2.5056,2.5056,2.5056,2.5056,2.5056,2.5257,2.5711,2.6134,2.6387,2.644,2.644,2.644,2.644,2.644,2.644,2.643,2.5986,2.5753,0.0,0.0,0.0,0.0,0.0,1.7574,0.0,0.0,0.0,1.9201,1.9656,1.9983,1.9983,2.0057,2.0152,2.0237,2.0364,2.0469,2.0522,2.1177,2.1674,2.1769,2.1991,2.2224,2.2456,2.2562,2.2815,2.327,2.3481,2.3608,2.3661,2.3661,2.3661,2.3661,2.3661,2.3661,2.3661,2.3661,2.3661,2.3661,2.3661,2.3661,2.3661,2.3661,2.3661,2.3661,2.3661,2.3682,2.3756,2.4189,2.439,2.4475,2.4887,2.5056,2.5056,2.5056,2.5056,2.5056,2.5056,2.5056,2.5056,2.5056,2.5056,2.5056,2.5109,2.5257,2.5447,2.5626,2.5669,2.5616,2.5394,2.5341,2.5288,2.5098,2.5056,2.5056,2.5056,2.5056,2.5056,2.5056,2.5056,2.5056,2.5056,2.5056,2.5056,2.5056,2.5056,2.5056,2.5056,2.5056,2.5056,2.5056,2.5056,2.5056,2.5056,2.5056,2.5056,2.5056,2.5056,2.5257,2.5711,2.5817,2.6049,2.644,2.644,2.644,2.644,2.644,2.644,2.644,2.6155,2.5912,0.0,0.0,0.0,1.7489,0.0,0.0,0.0,1.8715,1.9233,1.9582,1.9941,2.0226,2.0332,2.0353,2.0469,2.0818,2.0871,2.0998,2.1347,2.1896,2.2266,2.2266,2.2477,2.271,2.2942,2.2963,2.3111,2.346,2.3587,2.3661,2.3661,2.3661,2.3661,2.3661,2.3661,2.3661,2.3661,2.3661,2.3661,2.3661,2.3661,2.3661,2.3661,2.3661,2.3661,2.3661,2.3661,2.3661,2.3693,2.4168,2.4432,2.457,2.4918,2.5056,2.5056,2.5056,2.5056,2.5056,2.5056,2.5056,2.5056,2.5056,2.5056,2.5077,2.5193,2.5394,2.5616,2.5848,2.5912,2.5859,2.5626,2.5489,2.5373,2.5257,2.514,2.5056,2.5056,2.5056,2.5056,2.5056,2.5056,2.5056,2.5056,2.5056,2.5056,2.5056,2.5056,2.5056,2.5056,2.5056,2.5056,2.5056,2.5056,2.5056,2.5056,2.5056,2.5056,2.5056,2.5056,2.5257,2.5711,2.5732,2.5954,2.644,2.644,2.644,2.644,2.644,2.644,2.644,2.6197,2.5965,0.0,0.0,0.0,0.0,0.0,0.0,1.8525,1.9117,1.9624,1.9909,2.0152,2.0395,2.0617,2.066,2.0797,2.123,2.1336,2.1537,2.2044,2.2488,2.2752,2.2752,2.2963,2.3175,2.3354,2.3376,2.3449,2.365,2.3661,2.3661,2.3661,2.3661,2.3661,2.3661,2.3661,2.3661,2.3661,2.3661,2.3661,2.3661,2.3661,2.3661,2.3661,2.3661,2.3661,2.3661,2.3661,2.3682,2.3767,2.4189,2.4496,2.4718,2.4961,2.5056,2.5056,2.5056,2.5056,2.5056,2.5056,2.5056,2.5056,2.5056,2.5056,2.5098,2.5341,2.5563,2.5785,2.6017,2.6123,2.6102,2.5859,2.5669,2.5521,2.5426,2.5257,2.5109,2.5066,2.5056,2.5056,2.5056,2.5056,2.5056,2.5056,2.5056,2.5056,2.5056,2.5056,2.5056,2.5056,2.5056,2.5056,2.5056,2.5056,2.5056,2.5056,2.5056,2.5056,2.5056,2.5056,2.5257,2.5711,2.5732,2.5954,2.644,2.644,2.644,2.644,2.644,2.644,2.644,2.625,2.6007,1.7024,1.7204,1.7437,1.7923,0.0,0.0,1.9212,1.9592,1.992,2.0353,2.0628,2.0871,2.1103,2.1146,2.123,2.1494,2.1706,2.2076,2.2763,2.3069,2.3228,2.3228,2.3439,2.3597,2.3619,2.3619,2.3629,2.3661,2.3661,2.3661,2.3661,2.3661,2.3661,2.3661,2.3661,2.3661,2.3661,2.3661,2.3661,2.3661,2.3661,2.3661,2.3661,2.3661,2.3661,2.3661,2.3661,2.3777,2.3999,2.4263,2.4496,2.4718,2.4961,2.5056,2.5056,2.5056,2.5056,2.5056,2.5056,2.5056,2.5056,2.5056,2.5056,2.5098,2.5341,2.5563,2.5785,2.6017,2.6239,2.6345,2.6113,2.6028,2.5912,2.55,2.5383,2.5309,2.5098,2.5056,2.5056,2.5056,2.5056,2.5056,2.5056,2.5056,2.5056,2.5056,2.5056,2.5056,2.5056,2.5056,2.5056,2.5056,2.5056,2.5056,2.5056,2.5056,2.5056,2.5056,2.5056,2.5257,2.5711,2.5732,2.5954,2.644,2.644,2.644,2.644,2.644,2.644,2.644,2.6419,2.6165,1.6982,1.7225,1.7542,1.8145,0.0,0.0,1.9381,1.9867,2.0321,2.066,2.0913,2.1146,2.1389,2.1537,2.1706,2.1938,2.2393,2.2826,2.3122,2.3365,2.3513,2.3513,2.3597,2.3661,2.3661,2.3661,2.3661,2.3661,2.3661,2.3661,2.3661,2.3661,2.3661,2.3661,2.3661,2.3661,2.3661,2.3661,2.3661,2.3661,2.3661,2.3661,2.3661,2.3661,2.3661,2.3661,2.3661,2.3798,2.4031,2.4274,2.458,2.4908,2.5013,2.5056,2.5056,2.5056,2.5056,2.5056,2.5056,2.5056,2.5056,2.5056,2.5056,2.5119,2.5489,2.5658,2.5817,2.6186,2.6366,2.6419,2.6324,2.6197,2.6007,2.5679,2.55,2.5341,2.5109,2.5056,2.5056,2.5056,2.5056,2.5056,2.5056,2.5056,2.5056,2.5056,2.5056,2.5056,2.5056,2.5056,2.5056,2.5056,2.5056,2.5056,2.5056,2.5056,2.5056,2.5056,2.5056,2.5257,2.5711,2.5732,2.5954,2.644,2.644,2.644,2.644,2.644,2.644,2.644,2.644,2.626,1.7046,0.0,0.0,0.0,0.0,0.0,1.9603,2.0163,2.0681,2.0924,2.1156,2.141,2.1716,2.1907,2.2129,2.2498,2.3027,2.3407,2.3407,2.3545,2.3661,2.3661,2.3661,2.3661,2.3661,2.3661,2.3661,2.3661,2.3661,2.3661,2.3661,2.3661,2.3661,2.3661,2.3661,2.3661,2.3661,2.3661,2.3661,2.3661,2.3661,2.3661,2.3661,2.3661,2.3661,2.3661,2.3661,2.383,2.4126,2.4295,2.4633,2.5056,2.5056,2.5056,2.5056,2.5056,2.5056,2.5056,2.5056,2.5056,2.5056,2.5056,2.5098,2.5225,2.5616,2.5774,2.5912,2.6334,2.644,2.644,2.644,2.6313,2.6123,2.5891,2.5658,2.5436,2.5204,2.5151,2.513,2.5066,2.5056,2.5056,2.5056,2.5056,2.5056,2.5056,2.5056,2.5056,2.5056,2.5056,2.5056,2.5056,2.5056,2.5056,2.5056,2.5056,2.5056,2.5056,2.5056,2.5257,2.5711,2.5732,2.5954,2.644,2.644,2.644,2.644,2.644,2.644,2.644,2.644,2.6313,0.0,0.0,0.0,1.861,1.9127,1.9592,2.0057,2.0522,2.0924,2.1167,2.1399,2.1706,2.216,2.2255,2.2477,2.3164,2.3481,2.365,2.365,2.365,2.3661,2.3661,2.3661,2.3661,2.3661,2.3661,2.3661,2.3661,2.3661,2.3661,2.3661,2.3661,2.3661,2.3661,2.3661,2.3661,2.3661,2.3661,2.3661,2.3661,2.3661,2.3661,2.3661,2.3661,2.3661,2.3661,2.3661,2.3925,2.4358,2.4369,2.4633,2.5056,2.5056,2.5056,2.5056,2.5056,2.5056,2.5056,2.5056,2.5056,2.5056,2.5056,2.5204,2.5436,2.5669,2.5891,2.6134,2.6377,2.644,2.644,2.644,2.644,2.6377,2.6134,2.5901,2.5658,2.5447,2.5394,2.5331,2.5098,2.5056,2.5056,2.5056,2.5056,2.5056,2.5056,2.5056,2.5056,2.5056,2.5056,2.5056,2.5056,2.5056,2.5056,2.5056,2.5056,2.5056,2.5056,2.5056,2.5257,2.5711,2.5732,2.5954,2.644,2.644,2.644,2.644,2.644,2.644,2.644,2.644,2.6313,1.7447,1.7923,1.8377,1.9074,1.9603,2.0068,2.0533,2.0882,2.122,2.16,2.1864,2.2129,2.2446,2.2752,2.308,2.3481,2.3608,2.3661,2.3661,2.3661,2.3661,2.3661,2.3661,2.3661,2.3661,2.3661,2.3661,2.3661,2.3661,2.3661,2.3661,2.3661,2.3661,2.3661,2.3661,2.3661,2.3661,2.3661,2.3661,2.3661,2.3661,2.3661,2.3661,2.3661,2.3661,2.3661,2.3661,2.3925,2.4369,2.4369,2.4633,2.5056,2.5056,2.5056,2.5056,2.5056,2.5056,2.5056,2.5056,2.5056,2.5056,2.5056,2.5214,2.5447,2.5669,2.5901,2.6134,2.6377,2.644,2.644,2.644,2.644,2.6387,2.6144,2.6028,2.5869,2.5489,2.5404,2.5383,2.5299,2.5161,2.5056,2.5056,2.5056,2.5056,2.5056,2.5056,2.5056,2.5056,2.5056,2.5056,2.5056,2.5056,2.5056,2.5056,2.5056,2.5056,2.5056,2.5056,2.5257,2.5711,2.5732,2.5954,2.644,2.644,2.644,2.644,2.644,2.644,2.644,2.644,2.6398,1.7563,1.8092,1.861,1.9307,1.9835,2.0311,2.0765,2.1125,2.1484,2.1949,2.2224,2.2488,2.2805,2.3175,2.3481,2.364,2.3661,2.3661,2.3661,2.3661,2.3661,2.3661,2.3661,2.3661,2.3661,2.3661,2.3661,2.3661,2.3661,2.3661,2.3661,2.3661,2.3661,2.3661,2.3661,2.3661,2.3661,2.3661,2.3661,2.3661,2.3661,2.3661,2.3661,2.3661,2.3661,2.3661,2.3661,2.3925,2.4369,2.4369,2.4633,2.5056,2.5056,2.5056,2.5056,2.5056,2.5056,2.5056,2.5056,2.5056,2.5066,2.5151,2.5341,2.5563,2.5795,2.6028,2.625,2.6398,2.644,2.644,2.644,2.644,2.6408,2.625,2.6218,2.6091,2.5626,2.5521,2.5478,2.5309,2.5151,2.5056,2.5056,2.5056,2.5056,2.5056,2.5056,2.5056,2.5056,2.5056,2.5056,2.5056,2.5056,2.5056,2.5056,2.5056,2.5056,2.5056,2.5056,2.5257,2.5711,2.5732,2.5954,2.644,2.644,2.644,2.644,2.644,2.644,2.644,2.644,2.644,1.7574,1.8113,1.8631,1.9339,1.9867,2.0332,2.0797,2.1262,2.1727,2.2192,2.2477,2.2773,2.3217,2.3502,2.3661,2.3661,2.3661,2.3661,2.3661,2.3661,2.3661,2.3661,2.3661,2.3661,2.3661,2.3661,2.3661,2.3661,2.3661,2.3661,2.3661,2.3661,2.3661,2.3661,2.3661,2.3661,2.3661,2.3661,2.3661,2.3661,2.3661,2.3661,2.3661,2.3661,2.3661,2.3661,2.3661,2.3925,2.4369,2.4369,2.4644,2.5066,2.5066,2.5066,2.5066,2.5066,2.5066,2.5056,2.5066,2.5066,2.5109,2.5352,2.5574,2.5795,2.6017,2.626,2.644,2.644,2.644,2.644,2.644,2.644,2.644,2.644,2.644,2.6324,2.5869,2.5764,2.5616,2.5161,2.5056,2.5056,2.5056,2.5056,2.5056,2.5056,2.5056,2.5056,2.5056,2.5056,2.5056,2.5056,2.5056,2.5056,2.5056,2.5056,2.5056,2.5056,2.5056,2.5257,2.5711,2.5732,2.5954,2.644,2.644,2.644,2.644,2.644,2.644,2.644,2.644,2.644,1.7669,1.8345,1.8916,1.9793,2.0226,2.0607,2.1251,2.1621,2.1959,2.2435,2.272,2.2974,2.3249,2.3502,2.3661,2.3661,2.3661,2.3661,2.3661,2.3661,2.3661,2.3661,2.3661,2.3661,2.3661,2.3661,2.3661,2.3661,2.3661,2.3661,2.3661,2.3661,2.3661,2.3661,2.3661,2.3661,2.3661,2.3661,2.3661,2.3661,2.3661,2.3661,2.3661,2.3661,2.3661,2.3661,2.3661,2.3925,2.4369,2.4369,2.4739,2.532,2.532,2.532,2.532,2.532,2.5204,2.5077,2.5257,2.532,2.5352,2.5574,2.5806,2.6007,2.607,2.626,2.644,2.644,2.644,2.644,2.644,2.644,2.644,2.644,2.644,2.6408,2.6292,2.6123,2.5859,2.5404,2.5172,2.5056,2.5056,2.5056,2.5056,2.5056,2.5056,2.5056,2.5056,2.5056,2.5056,2.5056,2.5056,2.5056,2.5056,2.5056,2.5056,2.5056,2.5056,2.5257,2.5711,2.5732,2.5954,2.644,2.644,2.644,2.644,2.644,2.644,2.644,2.644,2.644,1.7489,1.8345,1.9138,1.9983,2.0427,2.0829,2.1442,2.1748,2.2044,2.252,2.2805,2.3048,2.3259,2.3502,2.3661,2.3661,2.3661,2.3661,2.3661,2.3661,2.3661,2.3661,2.3661,2.3661,2.3661,2.3661,2.3661,2.3661,2.3661,2.3661,2.3661,2.3661,2.3661,2.3661,2.3661,2.3661,2.3661,2.3661,2.3661,2.3661,2.3661,2.3661,2.3661,2.3661,2.3661,2.3661,2.3661,2.3925,2.4369,2.4369,2.4781,2.5404,2.5404,2.5468,2.5552,2.5552,2.5468,2.5373,2.551,2.5552,2.5595,2.5817,2.5975,2.6113,2.6218,2.6334,2.644,2.644,2.644,2.644,2.644,2.644,2.644,2.644,2.644,2.6419,2.6313,2.6028,2.5711,2.5457,2.5214,2.5056,2.5056,2.5056,2.5056,2.5056,2.5056,2.5056,2.5056,2.5056,2.5056,2.5056,2.5056,2.5056,2.5056,2.5056,2.5056,2.5056,2.5056,2.5257,2.5711,2.5732,2.5954,2.644,2.644,2.644,2.644,2.644,2.644,2.644,2.644,2.644,1.7215,1.8197,1.9222,1.9994,2.0554,2.103,2.1484,2.178,2.2086,2.253,2.2784,2.2995,2.3217,2.3449,2.3619,2.365,2.3661,2.3661,2.3661,2.3661,2.3661,2.3661,2.3661,2.3661,2.3661,2.3661,2.3661,2.3661,2.3661,2.3661,2.3661,2.3661,2.3661,2.3661,2.3661,2.3661,2.3661,2.3661,2.3661,2.3661,2.3661,2.3661,2.3661,2.3661,2.3661,2.3661,2.3661,2.3925,2.4369,2.4401,2.4823,2.5457,2.5489,2.5616,2.5774,2.5774,2.5764,2.5743,2.5764,2.5774,2.5817,2.606,2.6134,2.6176,2.6377,2.644,2.644,2.644,2.644,2.644,2.644,2.644,2.644,2.644,2.644,2.6366,2.6102,2.5732,2.5436,2.5373,2.5193,2.5056,2.5056,2.5056,2.5056,2.5056,2.5056,2.5056,2.5056,2.5056,2.5056,2.5056,2.5056,2.5056,2.5056,2.5056,2.5056,2.5056,2.5056,2.5257,2.5711,2.5732,2.5954,2.644,2.644,2.644,2.644,2.644,2.644,2.644,2.644,2.644,1.7215,1.7965,1.8821,1.992,2.0681,2.1241,2.1516,2.1907,2.2287,2.2562,2.2646,2.2752,2.2985,2.3217,2.3428,2.3629,2.3661,2.3661,2.3661,2.3661,2.3661,2.3661,2.3661,2.3661,2.3661,2.3661,2.3661,2.3661,2.3661,2.3661,2.3661,2.3661,2.3661,2.3661,2.3661,2.3661,2.3661,2.3661,2.3661,2.3661,2.3661,2.3661,2.3661,2.3661,2.3661,2.3661,2.3661,2.3925,2.4379,2.457,2.5045,2.569,2.5891,2.5996,2.6028,2.6028,2.5901,2.5764,2.5965,2.6028,2.607,2.6303,2.6387,2.6387,2.643,2.644,2.644,2.644,2.644,2.644,2.644,2.644,2.644,2.644,2.644,2.6324,2.5891,2.5732,2.5563,2.5183,2.5077,2.5056,2.5056,2.5056,2.5056,2.5056,2.5056,2.5056,2.5056,2.5056,2.5056,2.5056,2.5056,2.5056,2.5056,2.5056,2.5056,2.5056,2.5056,2.5257,2.5711,2.5732,2.5954,2.644,2.644,2.644,2.644,2.644,2.644,2.644,2.644,2.644,1.7246,1.7997,1.8789,1.9465,2.0343,2.1135,2.1494,2.1843,2.215,2.2382,2.253,2.2657,2.2773,2.3069,2.3344,2.3449,2.3576,2.3661,2.3661,2.3661,2.3661,2.3661,2.3661,2.3661,2.3661,2.3661,2.3661,2.3661,2.3661,2.3661,2.3661,2.3661,2.3661,2.3661,2.3661,2.3661,2.3661,2.3661,2.3661,2.3661,2.3661,2.3661,2.3661,2.3661,2.3661,2.3661,2.3661,2.3925,2.4379,2.4601,2.5109,2.5753,2.5996,2.6165,2.6271,2.6271,2.6197,2.6123,2.6229,2.6271,2.6292,2.6408,2.644,2.644,2.644,2.644,2.644,2.644,2.644,2.644,2.644,2.644,2.644,2.644,2.626,2.6017,2.5785,2.5542,2.5309,2.5098,2.5056,2.5056,2.5056,2.5056,2.5056,2.5056,2.5056,2.5056,2.5056,2.5056,2.5056,2.5056,2.5056,2.5056,2.5056,2.5056,2.5056,2.5056,2.5056,2.5257,2.5711,2.5732,2.5954,2.644,2.644,2.644,2.644,2.644,2.644,2.644,2.644,2.644,1.7289,1.8081,1.8853,1.9064,1.993,2.0871,2.1452,2.1716,2.1907,2.2139,2.2382,2.2562,2.2615,2.2953,2.3249,2.3291,2.3502,2.3661,2.3661,2.3661,2.3661,2.3661,2.3661,2.3661,2.3661,2.3661,2.3661,2.3661,2.3661,2.3661,2.3661,2.3661,2.3661,2.3661,2.3661,2.3661,2.3661,2.3661,2.3661,2.3661,2.3661,2.3661,2.3661,2.3661,2.3661,2.3661,2.3661,2.3925,2.439,2.4665,2.5151,2.5764,2.6049,2.6282,2.644,2.644,2.644,2.644,2.644,2.644,2.644,2.644,2.644,2.644,2.644,2.644,2.644,2.644,2.644,2.644,2.644,2.644,2.644,2.644,2.6123,2.5795,2.5743,2.5415,2.5109,2.5066,2.5056,2.5056,2.5056,2.5056,2.5056,2.5056,2.5056,2.5056,2.5056,2.5056,2.5056,2.5056,2.5056,2.5056,2.5056,2.5056,2.5056,2.5056,2.5056,2.5257,2.5711,2.5785,2.6007,2.644,2.644,2.644,2.644,2.644,2.644,2.644,2.644,2.644,1.7331,1.8081,1.8853,1.9064,1.9687,2.048,2.1378,2.16,2.1674,2.1896,2.2129,2.2361,2.2583,2.2826,2.3069,2.327,2.3502,2.3661,2.3661,2.3661,2.3661,2.3661,2.3661,2.3661,2.3661,2.3661,2.3661,2.3661,2.3661,2.3661,2.3661,2.3661,2.3661,2.3661,2.3661,2.3661,2.3661,2.3661,2.3661,2.3661,2.3661,2.3661,2.3661,2.3661,2.3661,2.3661,2.3661,2.3925,2.4401,2.4834,2.5299,2.5774,2.6229,2.643,2.644,2.644,2.644,2.644,2.644,2.644,2.644,2.644,2.644,2.644,2.644,2.644,2.644,2.644,2.644,2.644,2.644,2.644,2.644,2.644,2.625,2.5996,2.5774,2.5542,2.5309,2.5098,2.5056,2.5056,2.5056,2.5056,2.5056,2.5056,2.5056,2.5056,2.5056,2.5056,2.5056,2.5056,2.5056,2.5056,2.5056,2.5056,2.5056,2.5056,2.5056,2.5257,2.5711,2.5943,2.6176,2.644,2.644,2.644,2.644,2.644,2.644,2.644,2.644,2.644,1.7331,1.8081,1.8853,1.9064,1.9656,2.0321,2.0829,2.1156,2.1473,2.1833,2.1991,2.2129,2.2361,2.2604,0.0,2.3069,2.3291,2.3492,2.364,2.3661,2.3661,2.3661,2.3661,2.3661,2.3661,2.3661,2.3661,2.3661,2.3661,2.3661,2.3661,2.3661,2.3661,2.3661,2.3661,2.3661,2.3661,2.3661,2.3661,2.3661,2.3661,2.3661,2.3661,2.3661,2.3661,2.3661,2.3661,2.3767,2.3999,2.4749,2.532,2.5774,2.626,2.644,2.644,2.644,2.644,2.644,2.644,2.644,2.644,2.644,2.644,2.644,2.644,2.644,2.644,2.644,2.644,2.644,2.644,2.644,2.6408,2.626,2.6049,2.5817,2.5584,2.5352,2.5161,2.5066,2.5056,2.5056,2.5056,2.5056,2.5056,2.5056,2.5056,2.5056,2.5056,2.5056,2.5056,2.5056,2.5056,2.5056,2.5056,2.5056,2.5056,2.5056,2.5183,2.5404,2.5722,2.5965,2.6197,2.644,2.644,2.644,2.644,2.644,2.644,2.644,2.644,2.6366,1.7331,1.8081,1.8831,1.899,1.9613,2.0226,2.0385,2.0734,2.1146,2.1611,2.1759,2.1885,2.2118,2.235,0.0,2.2921,2.3164,2.3386,2.3629,2.3661,2.3661,2.3661,2.3661,2.3661,2.3661,2.3661,2.3661,2.3661,2.3661,2.3661,2.3661,2.3661,2.3661,2.3661,2.3661,2.3661,2.3661,2.3661,2.3661,2.3661,2.3661,2.3661,2.3661,2.3661,2.3661,2.3661,2.3661,2.3703,2.3819,2.4549,2.5204,2.5774,2.626,2.644,2.644,2.644,2.644,2.644,2.644,2.644,2.644,2.644,2.644,2.644,2.644,2.644,2.644,2.644,2.644,2.644,2.644,2.644,2.6387,2.6144,2.5901,2.5669,2.5457,2.5225,2.5056,2.5056,2.5056,2.5056,2.5056,2.5056,2.5056,2.5056,2.5056,2.5056,2.5056,2.5056,2.5056,2.5056,2.5056,2.5056,2.5056,2.5056,2.5056,2.5056,2.5278,2.551,2.5722,2.6028,2.6271,2.644,2.644,2.644,2.644,2.644,2.6408,2.6334,2.6334,2.6208,1.7331,1.8081,1.88,1.88,1.9497,2.0184,2.0195,2.0364,2.066,2.1135,2.1421,2.1653,2.1875,2.2107,2.2424,2.29,2.3164,2.3386,2.3629,2.3661,2.3661,2.3661,2.3661,2.3661,2.3661,2.3661,2.3661,2.3661,2.3661,2.3661,2.3661,2.3661,2.3661,2.3661,2.3661,2.3661,2.3661,2.3661,2.3661,2.3661,2.3661,2.3661,2.3661,2.3661,2.3661,2.3661,2.3661,2.3798,2.4031,2.4274,2.4908,2.5774,2.626,2.644,2.644,2.644,2.644,2.644,2.644,2.644,2.644,2.644,2.644,2.644,2.644,2.644,2.644,2.644,2.644,2.644,2.644,2.644,2.6387,2.6144,2.5901,2.5669,2.5457,2.5225,2.5056,2.5056,2.5056,2.5056,2.5056,2.5056,2.5056,2.5056,2.5056,2.5056,2.5056,2.5056,2.5056,2.5056,2.5056,2.5056,2.5056,2.5056,2.5056,2.5056,2.5278,2.551,2.5722,2.6186,2.644,2.644,2.644,2.644,2.644,2.644,2.6324,2.6091,2.6091,2.5965,1.7331,1.7849,1.8419,1.8905,1.936,1.9751,1.9909,2.0237,2.0565,2.0712,2.1061,2.141,2.1642,2.1864,2.2129,2.2435,2.2815,2.3154,2.3386,2.3555,2.3661,2.3661,2.3661,2.3661,2.3661,2.3661,2.3661,2.3661,2.3661,2.3661,2.3661,2.3661,2.3661,2.3661,2.3661,2.3661,2.3661,2.3661,2.3661,2.3661,2.3661,2.3661,2.3661,2.3661,2.3661,2.3661,2.3661,2.3798,2.4031,2.4274,2.4728,2.5331,2.5954,2.6303,2.644,2.644,2.644,2.644,2.644,2.644,2.644,2.644,2.644,2.644,2.644,2.644,2.644,2.644,2.644,2.644,2.644,2.644,2.6345,2.5943,2.5785,2.5626,2.5246,2.5109,2.5056,2.5056,2.5056,2.5056,2.5056,2.5056,2.5056,2.5056,2.5056,2.5056,2.5056,2.5056,2.5056,2.5056,2.5056,2.5056,2.5056,2.5056,2.5056,2.5056,2.5415,2.5732,2.5965,2.6282,2.644,2.644,2.644,2.644,2.644,2.6282,2.6165,2.6081,2.5922,2.5722,1.7289,1.7732,1.8229,1.8842,1.9043,1.9191,1.9603,1.992,2.0205,2.0459,2.0755,2.103,2.1273,2.1568,2.1896,2.2213,2.2594,2.2942,2.3259,2.3428,2.3555,2.365,2.3661,2.3661,2.3661,2.3661,2.3661,2.3661,2.3661,2.3661,2.3661,2.3661,2.3661,2.3661,2.3661,2.3661,2.3661,2.3661,2.3661,2.3661,2.3661,2.3661,2.3661,2.3661,2.3661,2.3661,2.3756,2.3925,2.4168,2.4401,2.477,2.5235,2.5753,2.6155,2.644,2.644,2.644,2.644,2.644,2.644,2.644,2.644,2.644,2.644,2.644,2.644,2.644,2.644,2.644,2.644,2.644,2.644,2.6324,2.5848,2.5732,2.5605,2.5151,2.5056,2.5056,2.5056,2.5056,2.5056,2.5056,2.5056,2.5056,2.5056,2.5056,2.5056,2.5056,2.5056,2.5056,2.5056,2.5056,2.5056,2.5056,2.5056,2.5087,2.5183,2.5531,2.5838,2.6081,2.6324,2.644,2.644,2.644,2.644,2.644,2.6208,2.6039,2.5954,2.5722,2.5489,1.7215,1.7711,1.8155,1.8652,1.861,1.862,1.9296,1.9465,1.9666,2.0332,2.0501,2.0586,2.0808,2.122,2.1685,2.2139,2.2424,2.2752,2.3217,0.0,2.3386,2.3629,2.3661,2.3661,2.3661,2.3661,2.3661,2.3661,2.3661,2.3661,2.3661,2.3661,2.3661,2.3661,2.3661,2.3661,2.3661,2.3661,2.3661,2.3661,2.3661,2.3661,2.3661,2.3661,2.3661,2.3671,2.3914,2.4147,2.4379,2.4601,2.4971,2.5404,2.5626,2.5986,2.6398,2.643,2.644,2.644,2.644,2.644,2.644,2.644,2.644,2.644,2.644,2.644,2.644,2.644,2.644,2.644,2.644,2.644,2.6324,2.5848,2.5732,2.5605,2.5151,2.5056,2.5056,2.5056,2.5056,2.5056,2.5056,2.5056,2.5056,2.5077,2.5066,2.5056,2.5077,2.5066,2.5056,2.5056,2.5056,2.5056,2.5056,2.5056,2.5161,2.5415,2.5637,2.5859,2.6102,2.6324,2.644,2.644,2.644,2.644,2.644,2.6186,2.5954,2.5732,2.5489,2.5267,1.7257,1.7479,1.7711,1.8366,1.8483,1.8578,1.9085,1.9349,1.9571,1.992,2.0279,2.0533,2.0596,2.0839,2.1188,2.1664,2.2086,2.2509,2.2985,2.3196,2.3386,2.3629,2.3661,2.3661,2.3661,2.3661,2.3661,2.3661,2.3661,2.3661,2.3661,2.3661,2.3661,2.3661,2.3661,2.3661,2.3661,2.3661,2.3661,2.3661,2.3661,2.3661,2.3661,2.3661,2.3661,2.3671,2.3914,2.4147,2.4379,2.4601,2.4866,2.5161,2.5394,2.5658,2.5943,2.6313,2.644,2.644,2.644,2.644,2.644,2.644,2.644,2.644,2.644,2.644,2.644,2.644,2.644,2.644,2.644,2.644,2.6324,2.5848,2.5732,2.5605,2.5151,2.5056,2.5056,2.5056,2.5056,2.5056,2.5056,2.5056,2.5119,2.5299,2.5172,2.5119,2.5299,2.5161,2.5056,2.5056,2.5056,2.5056,2.5056,2.5056,2.5225,2.5626,2.588,2.6113,2.6356,2.6419,2.644,2.644,2.644,2.644,2.644,2.6017,2.5785,2.5722,2.532,2.5109,1.7267,1.7479,1.768,1.8155,1.8271,1.8398,1.8863,1.9074,1.9296,1.974,2.0026,2.0269,2.048,2.0617,2.086,2.1336,2.1801,2.2308,2.2889,2.308,2.328,0.0,0.0,2.3661,2.3661,2.3661,2.3661,2.3661,2.3661,2.3661,2.3661,2.3661,2.3661,2.3661,2.3661,2.3661,2.3661,2.3661,2.3661,2.3661,2.3661,2.3661,2.3661,2.3661,2.3661,2.3682,2.4031,2.4253,2.439,2.4728,2.494,2.5077,2.532,2.5542,2.5774,2.6144,2.6356,2.644,2.644,2.644,2.644,2.644,2.644,2.644,2.644,2.644,2.644,2.644,2.644,2.644,2.644,2.644,2.6324,2.5848,2.5732,2.5605,2.5151,2.5056,2.5056,2.5056,2.5056,2.5056,2.5056,2.5056,2.513,2.5373,2.5299,2.5267,2.5394,2.5299,2.5172,2.5066,2.5056,2.5056,2.5056,2.5056,2.5204,2.5563,2.5795,2.6081,2.643,2.644,2.644,2.644,2.644,2.644,2.644,2.5965,2.5732,2.5722,2.5267,2.5056,1.7278,1.7595,1.7849,1.8039,1.8081,1.8197,1.8641,1.8768,1.8969,1.9592,1.9783,1.9952,2.0343,2.0469,2.0649,2.1051,2.1537,2.2107,2.2815,2.2953,2.3132,2.3555,2.364,2.3661,2.3661,2.3661,2.3661,2.3661,2.3661,2.3661,2.3661,2.3661,2.3661,2.3661,2.3661,2.3661,2.3661,2.3661,2.3661,2.3661,2.3661,2.3661,2.3661,2.3661,2.3661,2.3682,2.4158,2.4369,2.4401,2.4866,2.5056,2.5066,2.5278,2.5489,2.5711,2.5943,2.6186,2.6387,2.6387,2.6387,2.6387,2.6387,2.6419,2.644,2.644,2.644,2.644,2.644,2.644,2.644,2.644,2.644,2.6324,2.5848,2.5732,2.5605,2.5151,2.5056,2.5056,2.5056,2.5056,2.5056,2.5056,2.5056,2.514,2.5415,2.5426,2.5415,2.5457,2.5426,2.532,2.5077,2.5056,2.5056,2.5056,2.5056,2.5161,2.5436,2.5669,2.5986,2.643,2.644,2.644,2.644,2.644,2.644,2.644,2.5965,2.5732,2.5722,2.5267,2.5056,1.7331,1.7711,1.8039,1.8081,1.8081,1.8155,1.843,1.8652,1.8874,1.917,1.955,1.9856,1.992,2.0258,2.0543,2.0617,2.1188,2.1875,2.2572,2.2847,2.3069,2.3323,2.3534,2.3661,2.3661,2.3661,2.3661,2.3661,2.3661,2.3661,2.3661,2.3661,2.3661,2.3661,2.3661,2.3661,2.3661,2.3661,2.3661,2.3661,2.3661,2.3661,2.3661,2.3661,2.3661,2.3682,2.4158,2.4369,2.4401,2.4866,2.5056,2.5056,2.5098,2.5246,2.5478,2.5711,2.5943,2.6144,2.6144,2.6144,2.6144,2.6144,2.6282,2.644,2.644,2.644,2.644,2.644,2.644,2.644,2.644,2.644,2.6324,2.5848,2.5732,2.5605,2.5151,2.5056,2.5056,2.5056,2.5056,2.5056,2.5056,2.5056,2.5193,2.5616,2.5531,2.5478,2.5658,2.5521,2.532,2.5077,2.5056,2.5056,2.5056,2.5056,2.5235,2.5658,2.5901,2.6155,2.643,2.644,2.644,2.644,2.644,2.644,2.644,2.5965,2.5732,2.5722,2.5267,2.5056,1.7532,1.7838,1.8081,1.8081,1.8081,1.8145,1.8388,1.8525,1.8673,1.8895,1.9212,1.9487,1.9613,2.0026,2.0374,2.0501,2.1008,2.1547,2.1991,2.2583,2.3058,2.328,2.3513,2.3661,2.3661,2.3661,2.3661,2.3661,2.3661,2.3661,2.3661,2.3661,2.3661,2.3661,2.3661,2.3661,2.3661,2.3661,2.3661,2.3661,2.3661,2.3661,2.3661,2.3661,2.3661,2.3682,2.4158,2.4369,2.4401,2.4866,2.5056,2.5056,2.5056,2.5193,2.5415,2.5521,2.57,2.5901,2.5901,2.5901,2.5912,2.6049,2.625,2.644,2.644,2.644,2.644,2.644,2.644,2.644,2.644,2.644,2.6324,2.5848,2.5732,2.5605,2.5151,2.5056,2.5056,2.5056,2.5056,2.5056,2.5056,2.5161,2.5352,2.5679,2.5764,2.5817,2.5912,2.5722,2.55,2.5267,2.513,2.5056,2.5056,2.5172,2.5436,2.5901,2.6028,2.6197,2.643,2.644,2.644,2.644,2.644,2.644,2.644,2.5965,2.5732,2.5722,2.5267,2.4982,1.7838,0.0,1.8176,1.824,1.825,1.8282,0.0,1.8483,1.8557,1.8683,1.8927,1.918,1.936,1.9783,2.0174,2.0406,2.0839,2.1241,2.1537,2.2245,2.2847,2.3185,2.3481,2.3661,2.3661,2.3661,2.3661,2.3661,2.3661,2.3661,2.3661,2.3661,2.3661,2.3661,2.3661,2.3661,2.3661,2.3661,2.3661,2.3661,2.3661,2.3661,2.3661,2.3661,2.3661,2.3682,2.4158,2.4369,2.4401,2.4866,2.5056,2.5056,2.5056,2.513,2.5246,2.5299,2.5394,2.55,2.5552,2.5574,2.5626,2.5912,2.6208,2.644,2.644,2.644,2.644,2.644,2.644,2.644,2.644,2.644,2.6324,2.5848,2.5732,2.5605,2.5151,2.5056,2.5056,2.5056,2.5056,2.5056,2.5056,2.5246,2.5478,2.57,2.5933,2.6091,2.6091,2.588,2.5648,2.5436,2.5193,2.5077,2.513,2.5352,2.5658,2.606,2.6144,2.625,2.644,2.644,2.644,2.644,2.644,2.644,2.644,2.5965,2.5711,2.5648,2.5183,2.4844,0.0,1.8398,1.8472,1.8694,1.8747,1.8694,1.8483,1.861,0.0,1.8514,1.8821,1.9127,1.9148,1.9539,1.9941,2.0174,2.0596,2.1061,2.1516,2.1812,2.2234,2.2921,2.3386,2.3661,2.3661,2.3661,2.3661,2.3661,2.3661,2.3661,2.3661,2.3661,2.3661,2.3661,2.3661,2.3661,2.3661,2.3661,2.3661,2.3661,2.3661,2.3661,2.3661,2.3661,2.3661,2.3682,2.4158,2.4369,2.4401,2.4866,2.5056,2.5056,2.5056,2.4929,2.477,2.4992,2.495,2.4802,2.5024,2.5098,2.5172,2.5616,2.607,2.644,2.644,2.644,2.644,2.644,2.644,2.644,2.644,2.644,2.6324,2.5848,2.5732,2.5605,2.5151,2.5056,2.5056,2.5056,2.5056,2.5056,2.5056,2.5246,2.5478,2.57,2.5933,2.6091,2.6091,2.588,2.5648,2.5436,2.5193,2.514,2.5362,2.5584,2.5817,2.607,2.6292,2.643,2.644,2.644,2.644,2.644,2.644,2.644,2.644,2.5965,2.5626,2.5415,2.494,2.4601,1.8398,1.8546,1.8683,1.8779,1.88,1.8768,1.8683,1.8726,1.8768,1.8683,1.8905,1.9117,1.9117,1.9508,1.9909,2.0152,2.0575,2.104,2.1516,2.1896,2.234,2.2911,2.3376,2.3661,2.3661,2.3661,2.3661,2.3661,2.3661,2.3661,2.3661,2.3661,2.3661,2.3661,2.3661,2.3661,2.3661,2.3661,2.3661,2.3661,2.3661,2.3661,2.3661,2.3661,2.3661,2.3682,2.401,2.4231,0.0,2.4696,2.4918,2.5035,2.4887,2.477,2.4686,2.4644,2.457,2.4506,2.4591,2.4622,2.4728,2.5331,2.5658,2.588,2.6313,2.644,2.644,2.644,2.644,2.644,2.644,2.644,2.6324,2.5848,2.5732,2.5605,2.5151,2.5056,2.5056,2.5056,2.5056,2.5098,2.5246,2.5457,2.569,2.5922,2.6155,2.6313,2.6313,2.6102,2.5869,2.5637,2.5404,2.5426,2.5795,2.5912,2.606,2.6292,2.6398,2.644,2.644,2.644,2.644,2.644,2.644,2.644,2.644,2.6113,2.569,2.5172,2.4707,2.4369,1.8705,1.8884,1.9032,1.9106,1.9127,1.9085,1.8937,1.8895,1.8884,1.881,1.8969,1.9117,1.9117,1.9508,1.9909,2.0152,2.0575,2.104,2.1516,2.1917,2.2361,2.2911,2.3249,2.3502,2.365,2.3661,2.3661,2.3661,2.3661,2.3661,2.3661,2.3661,2.3661,2.3661,2.3661,2.3661,2.3661,2.3661,2.3661,2.3661,2.3661,2.3661,2.3661,2.3661,2.3661,2.3671,2.3914,2.4105,2.4274,2.4496,2.4686,2.4823,2.4654,2.4549,2.4464,2.4316,2.421,2.4158,2.4231,2.4253,2.4358,2.4982,2.5288,2.551,2.6049,2.6176,2.6134,2.6197,2.6324,2.644,2.644,2.644,2.6345,2.5943,2.5848,2.5743,2.5352,2.5267,2.5267,2.5267,2.5267,2.532,2.5478,2.57,2.5901,2.606,2.6292,2.644,2.644,2.6239,2.6028,2.5859,2.5648,2.5669,2.606,2.6091,2.6186,2.643,2.644,2.644,2.644,2.644,2.644,2.644,2.644,2.6408,2.6334,2.6091,2.5658,2.5045,2.458,2.42,1.9296,1.9476,1.9539,1.9783,1.9835,1.9709,1.9233,1.9127,1.9064,1.8853,1.8979,1.9127,1.9127,1.9518,1.9909,2.0152,2.0575,2.104,2.1516,2.178,2.2181,2.2889,2.2974,2.3154,2.3619,2.3661,2.3661,2.3661,2.3661,2.3661,2.3661,2.3661,2.3661,2.3661,2.3661,2.3661,2.3661,2.3661,2.3661,2.3661,2.3661,2.3661,2.3661,2.3661,2.3661,2.3671,2.3904,2.401,2.4031,2.4263,2.4369,2.4369,2.4369,2.4221,2.402,2.401,2.3862,2.3693,2.3925,2.401,2.4084,2.4549,2.5013,2.5436,2.5658,2.5574,2.5447,2.5669,2.607,2.643,2.643,2.644,2.6377,2.6144,2.6091,2.6028,2.5785,2.5732,2.5732,2.5732,2.5732,2.5732,2.5732,2.5933,2.6091,2.6091,2.6292,2.644,2.644,2.6239,2.6091,2.6091,2.588,2.5838,2.607,2.6091,2.6197,2.643,2.644,2.644,2.644,2.644,2.644,2.644,2.644,2.6324,2.6081,2.5838,2.5489,2.5035,2.458,2.4115,1.9423,1.9719,1.9994,2.0068,1.9952,1.9793,1.9656,1.9497,1.936,1.9286,1.9328,1.9423,1.9592,1.974,1.9962,2.0353,2.0818,2.123,2.1537,2.2055,2.2551,2.2932,2.3111,2.3323,2.3629,2.3661,2.3661,2.3661,2.3661,2.3661,2.3661,2.3661,2.3661,2.3661,2.3661,2.3661,2.3661,2.3661,2.3661,2.3661,2.3661,2.3661,2.3661,2.3661,2.3661,2.3661,2.3735,2.3862,2.402,2.4094,2.4221,2.4348,2.4179,2.4073,2.3999,2.383,2.3724,2.3671,2.3745,2.3767,2.384,2.4305,2.4559,2.4686,2.4749,2.495,2.5172,2.5235,2.5352,2.55,2.5669,2.5954,2.6176,2.6102,2.6091,2.6028,2.5785,2.5732,2.5732,2.5732,2.5732,2.5785,2.5954,2.6039,2.6144,2.6313,2.6398,2.644,2.644,2.6377,2.6271,2.6113,2.6176,2.626,2.6334,2.6345,2.6366,2.644,2.644,2.644,2.644,2.644,2.644,2.644,2.6282,2.6081,2.5838,2.5447,2.5013,2.4559,2.4263,2.3957,1.9814,2.01,2.0321,2.0321,2.0216,2.0078,1.9994,1.9867,1.9761,1.9761,1.9761,1.9804,1.9952,2.0047,2.0226,2.0596,2.1061,2.1452,2.1685,2.216,2.2604,2.2932,2.309,2.3302,2.3629,2.3661,2.3661,2.3661,2.3661,2.3661,2.3661,2.3661,2.3661,2.3661,2.3661,2.3661,2.3661,2.3661,2.3661,2.3661,2.3661,2.3661,2.3661,2.3661,2.3661,2.3661,2.3661,2.3745,2.3872,2.3872,2.3957,2.4073,2.3925,2.3872,2.3851,2.3714,2.3661,2.3661,2.3661,2.3661,2.3703,2.3988,2.4084,2.4084,2.4084,2.4348,2.4654,2.4749,2.4844,2.4961,2.5204,2.5468,2.57,2.5795,2.588,2.5933,2.5891,2.5954,2.6017,2.6017,2.6017,2.606,2.6208,2.6229,2.6282,2.6419,2.644,2.644,2.644,2.644,2.6387,2.625,2.6356,2.644,2.644,2.644,2.644,2.644,2.644,2.644,2.644,2.6356,2.6303,2.6303,2.5986,2.57,2.5457,2.5003,2.4591,2.4221,2.3988,2.3798,2.0311,2.0522,2.0554,2.0554,2.0533,2.0469,2.0269,2.0205,2.0184,2.0184,2.0184,2.0195,2.0216,2.0385,2.0607,2.086,2.1283,2.1664,2.1885,2.2118,2.2446,2.2921,2.2974,2.3154,2.3619,2.3661,2.3661,2.3661,2.3661,2.3661,2.3661,2.3661,2.3661,2.3661,2.3661,2.3661,2.3661,2.3661,2.3661,2.3661,2.3661,2.3661,2.3661,2.3661,2.3661,2.3661,2.3661,2.3661,2.3661,2.3661,2.3661,2.3661,2.3661,2.3661,2.3661,2.3661,2.3661,2.3661,2.3661,2.3661,2.3661,2.3661,2.3661,2.3661,2.3661,2.3809,2.4031,2.4242,2.4443,2.4654,2.4897,2.4971,2.5045,2.5288,2.551,2.5732,2.5943,2.6197,2.6377,2.6377,2.6419,2.644,2.644,2.644,2.644,2.644,2.644,2.644,2.644,2.644,2.644,2.644,2.644,2.644,2.644,2.644,2.644,2.6419,2.6408,2.6398,2.6377,2.6155,2.6028,2.6028,2.5574,2.5225,2.4992,2.4549,2.421,2.3978,2.3756,2.3661,2.0216,2.0522,2.0797,2.0797,2.066,2.0501,2.0459,2.0311,2.0184,2.0184,2.0184,2.0237,2.0417,2.0491,2.066,2.1082,2.1389,2.1664,2.1885,2.2118,2.2446,2.2921,2.2974,2.3154,2.3619,2.3661,2.3661,2.3661,2.3661,2.3661,2.3661,2.3661,2.3661,2.3661,2.3661,2.3661,2.3661,2.3661,2.3661,2.3661,2.3661,2.3661,2.3661,2.3661,2.3661,2.3661,2.3661,2.3661,2.3661,2.3661,2.3661,2.3661,2.3661,2.3661,2.3661,2.3661,2.3661,2.3661,2.3661,2.3661,2.3661,2.3661,2.3661,2.3661,2.3661,2.3693,2.3745,2.3798,2.384,2.3936,2.4179,2.4379,2.457,2.4792,2.5024,2.5214,2.5267,2.5595,2.5891,2.5891,2.6186,2.644,2.644,2.644,2.644,2.644,2.644,2.644,2.644,2.644,2.644,2.644,2.644,2.644,2.644,2.644,2.6366,2.6176,2.6165,2.6081,2.5891,2.5669,2.5552,2.5552,2.5087,2.4739,2.4517,2.4231,2.3967,2.3735,2.3682,2.3661,2.029,2.0522,2.0734,2.0839,2.0776,2.0691,2.0691,2.0596,2.0512,2.0512,2.0533,2.0575,2.067,2.0702,2.086,2.1325,2.1494,2.1695,2.2033,2.2192,2.2403,2.2763,2.2911,2.3111,2.3449,2.3587,2.3661,2.3661,2.3661,2.3661,2.3661,2.3661,2.3661,2.3661,2.3661,2.3661,2.3661,2.3661,2.3661,2.3661,2.3661,2.3661,2.3661,2.3661,2.3661,2.3661,2.3661,2.3661,2.3661,2.3661,2.3661,2.3661,2.3661,2.3661,2.3661,2.3661,2.3661,2.3661,2.3661,2.3661,2.3661,2.3661,2.3661,2.3661,2.3661,2.3661,2.3661,2.3661,2.3661,2.3682,2.3809,2.3936,2.4052,2.4168,2.4379,2.458,2.4696,2.5087,2.5404,2.5404,2.57,2.5943,2.5943,2.6123,2.6271,2.6271,2.6366,2.644,2.644,2.625,2.6102,2.6102,2.6102,2.6102,2.6102,2.6102,2.6049,2.5922,2.5817,2.5711,2.5584,2.5246,2.5066,2.5066,2.4612,2.4316,2.42,2.3957,2.3777,2.3661,2.3661,2.3661,2.03,2.0459,2.0565,2.0755,2.0839,2.0871,2.0871,2.0871,2.0882,2.0882,2.0903,2.0913,2.0882,2.0934,2.1114,2.1516,2.1611,2.178,2.2203,2.2266,2.235,2.2594,2.2794,2.3016,2.328,2.3481,0.0,0.0,2.3619,2.3619,2.3661,2.3661,2.3661,2.3661,2.3661,2.3661,2.3661,2.3661,2.3661,2.3661,2.3661,2.3661,2.3661,2.3661,2.3661,2.3661,2.3661,2.3661,2.3661,2.3661,2.3661,2.3661,2.3661,2.3661,2.3661,2.3661,2.3661,2.3661,2.3661,2.3661,2.3661,2.3661,2.3661,2.3661,2.3661,2.3661,2.3661,2.3661,2.3661,2.3661,2.3661,2.3661,2.3661,2.3661,2.3809,2.401,2.42,2.4538,2.4834,2.4918,2.5151,2.5341,2.5341,2.569,2.5975,2.5975,2.6176,2.6324,2.6324,2.5943,2.5679,2.5679,2.5711,2.5732,2.5732,2.57,2.5658,2.5616,2.5404,2.5267,2.5225,2.4813,2.458,2.458,2.4168,2.3957,2.3957,2.3756,2.3661,2.3661,2.3661,2.3661,1.9909,2.0216,2.0522,2.0554,2.0723,2.0871,2.0871,2.0892,2.0913,2.0913,2.0924,2.0924,2.0913,2.1061,2.1273,2.1537,2.1748,2.1959,2.2224,2.2266,2.235,2.2594,2.2646,2.2837,2.3259,2.3333,2.3439,2.364,2.3471,2.3439,2.365,2.3661,2.3661,2.3661,2.3661,2.3661,2.3661,2.3661,2.3661,2.3661,2.3661,2.3661,2.3661,2.3661,2.3661,2.3661,2.3661,2.3661,2.3661,2.3661,2.3661,2.3661,2.3661,2.3661,2.3661,2.3661,2.3661,2.3661,2.3661,2.3661,2.3661,2.3661,2.3661,2.3661,2.3661,2.3661,2.3661,2.3661,2.3661,2.3661,2.3661,2.3661,2.3661,2.3661,2.3682,2.3714,2.3745,2.3798,2.3967,2.4379,2.4802,2.5098,2.5098,2.532,2.55,2.55,2.569,2.5827,2.5827,2.5605,2.5447,2.5447,2.5616,2.5732,2.5732,2.5563,2.5362,2.5151,2.4918,2.4707,2.4517,2.4253,2.4105,2.4105,2.384,2.3703,2.3703,2.3671,2.3661,2.3661,2.3661,2.3661,1.973,1.9878,1.9994,2.0269,2.0501,2.067,2.067,2.0786,2.0892,2.0892,2.0913,2.0913,2.0892,2.0998,2.1199,2.1526,2.1685,0.0,2.2213,2.2266,2.2308,0.0,2.2541,0.0,2.29,2.3037,2.3217,0.0,2.3249,2.3217,2.3449,2.346,2.3523,2.365,2.3661,2.3661,2.3661,2.3661,2.3661,2.3661,2.3661,2.3661,2.3661,2.3661,2.3661,2.3661,2.3661,2.3661,2.3661,2.3661,2.3661,2.3661,2.3661,2.3661,2.3661,2.3661,2.3661,2.3661,2.3661,2.3661,2.3661,2.3661,2.3661,2.3661,2.3661,2.3661,2.3661,2.3661,2.3661,2.3661,2.3661,2.3661,2.3661,2.3661,2.3661,2.3661,2.3661,2.3661,2.3724,2.3925,2.4242,2.4475,2.4475,2.477,2.5013,2.5013,2.5204,2.5257,2.5003,2.4887,2.4823,2.4823,2.4908,2.4961,2.4961,2.4876,2.4781,2.4675,2.4443,2.4274,2.4179,2.3936,2.3819,2.3819,2.3714,2.3661,2.3661,2.3661,2.3661,2.3661,2.3661,2.3661,1.9444,1.9539,1.9582,1.993,2.0226,2.0438,2.0438,2.0586,2.0723,2.0786,2.0818,2.085,2.0882,2.0966,2.0499,1.9835,2.097,0.0,2.2224,2.2276,0.0,2.2266,0.0,2.2551,2.2615,2.2784,0.0,0.0,2.2974,2.2985,2.3206,2.3217,2.3302,2.3481,2.3534,2.3566,2.3566,2.3629,2.3661,2.3661,2.3661,2.3661,2.3661,2.3661,2.3661,2.3661,2.3661,2.3661,2.3661,2.3661,2.3661,2.3661,2.3661,2.3661,2.3661,2.3661,2.3661,2.3661,2.3661,2.3661,2.3661,2.3661,2.3661,2.3661,2.3661,2.3661,2.3661,2.3661,2.3661,2.3661,2.3661,2.3661,2.3661,2.3661,2.3661,2.3661,2.3661,2.3661,2.3661,2.3661,2.3798,2.3925,2.3925,2.4253,2.4517,2.4517,2.4728,2.4707,2.4242,2.4242,2.4274,2.4274,2.4337,2.4369,2.4369,2.4316,2.4274,2.4274,2.4052,2.3957,2.401,2.384,2.3777,2.384,2.384,2.3809,2.3745,2.3745,2.3724,2.3661,2.3661,2.3661,1.9177,1.9499,1.9843,1.9561,1.9888,2.0216,2.054,2.0258,2.0016,2.0224,2.0586,2.066,0.0,0.0,1.962,1.5466,1.8687,2.1991,2.2276,2.2287,2.2266,0.0,0.0,0.0,0.0,0.0,0.0,2.2646,2.2646,2.2741,2.2985,2.2995,2.2995,2.3006,2.3217,2.3323,2.3323,2.3545,2.3661,2.3661,2.3661,2.3661,2.3661,2.3661,2.3661,2.3661,2.3661,2.3661,2.3661,2.3661,2.3661,2.3661,2.3661,2.3661,2.3661,2.3661,2.3661,2.3661,2.3661,2.3661,2.3661,2.3661,2.3661,2.3661,2.3661,2.3661,2.3661,2.3661,2.3661,2.3661,2.3661,2.3661,2.3661,2.3661,2.3661,2.3661,2.3661,2.3661,2.3661,2.3661,2.3671,2.3682,2.3682,2.3883,2.4052,2.4052,2.4253,2.4231,2.3756,2.3893,2.4031,2.4031,2.4231,2.4369,2.4369,2.4158,2.4031,2.4031,2.3809,2.3777,2.401,2.3999,2.4105,2.4327,2.4327,2.4221,2.3999,2.3999,2.3883,2.3661,2.3661,2.3661,1.4017,1.6188,1.922,1.9381,1.6597,1.498,1.9465,2.024,2.01,2.0332,2.0501,2.0628,2.0723,2.0913,2.0469,1.9006,1.7845,1.8367,2.1671,2.2181,2.2266,2.2266,2.2266,2.2298,0.0,0.0,2.2393,2.2393,2.2393,2.2498,2.2731,2.2741,2.2815,2.2974,2.3048,2.309,2.309,2.3175,2.3291,2.3428,2.3587,2.3661,2.3661,2.3661,2.3661,2.3661,2.3661,2.3661,2.3661,2.3661,2.3661,2.3661,2.3661,2.3661,2.3661,2.3661,2.3661,2.3661,2.3661,2.3661,2.3661,2.3661,2.3661,2.3661,2.3661,2.3661,2.3661,2.3661,2.3661,2.3661,2.3661,2.3661,2.3661,2.3661,2.3661,2.3661,2.3661,2.3661,2.3661,2.3661,2.3661,2.3661,2.3661,2.3735,2.3788,2.3788,2.3862,2.3851,2.3682,2.3735,2.3788,2.3788,2.3862,2.3914,2.3914,2.383,2.3851,2.3999,2.3788,2.3767,2.3999,2.3872,2.383,2.3914,2.3914,2.3872,2.3788,2.3788,2.3745,2.3661,2.3661,2.3661,1.2532,1.5752,1.805,1.3834,1.168,1.1853,1.8595,1.8187,1.6842,1.7042,1.7251,1.7415,1.7479,1.7385,1.8285,2.0828,1.8674,1.7871,2.1556,2.2065,2.2181,2.2255,2.2266,0.0,0.0,0.0,2.2266,2.2266,2.2266,2.2329,2.2488,2.2498,2.2572,2.2731,2.2815,2.2858,2.2858,2.2932,2.3048,2.3196,2.3354,2.3428,2.3428,2.3428,2.3428,2.3428,2.3428,2.3428,2.3439,2.3513,2.3534,2.3545,2.3629,2.3661,2.3661,2.3661,2.3566,2.3428,2.3428,2.3428,2.3439,2.3513,2.3534,2.3555,2.364,2.3661,2.3661,2.3661,2.3661,2.3661,2.3661,2.3661,2.3661,2.3661,2.3661,2.3661,2.3661,2.3661,2.3661,2.3661,2.3661,2.3661,2.3661,2.3661,2.3661,2.3661,2.3661,2.3661,2.3661,2.3661,2.3661,2.3661,2.3661,2.3661,2.3661,2.3661,2.3724,2.3883,2.3745,2.3767,2.3999,2.3862,2.3819,2.3893,2.3893,2.3862,2.3777,2.3777,2.3735,2.3661,2.3661,2.3661,1.4463,1.8217,1.586,0.3048,0.4798,1.1221,1.7374,1.3993,0.9706,1.0134,1.0258,1.0077,1.0187,1.041,1.2885,1.9634,2.0828,2.1442,2.2268,2.2279,2.1991,2.2224,2.2255,2.2255,0.0,2.2255,2.2255,2.2266,2.2266,2.2266,2.2266,2.2266,2.2266,2.2266,2.2488,2.2604,2.2604,2.2837,2.2953,2.2963,2.2963,2.2963,2.2974,2.2974,2.2974,2.2974,2.2974,2.2974,2.2995,2.3206,2.3291,2.3312,2.3545,2.364,2.364,2.364,2.3354,2.2974,2.2974,2.2974,2.3006,2.3228,2.3291,2.3333,2.3566,2.364,2.364,2.364,2.364,2.365,2.365,2.365,2.3661,2.3661,2.3661,2.3661,2.3661,2.3661,2.3661,2.3661,2.3661,2.3661,2.3661,2.3661,2.3661,2.3661,2.3661,2.3661,2.3661,2.3661,2.3661,2.3661,2.3661,2.3661,2.3661,2.3661,2.3661,2.3671,2.3661,2.3767,2.3999,2.401,2.4105,2.4327,2.4337,2.4221,2.3978,2.3978,2.3862,2.364,2.364,2.364,0.5012,0.5041,0.0,0.0808,0.1357,0.3017,0.5038,0.3944,0.2841,0.2905,0.2947,0.2982,0.3018,1.1117,1.8577,2.0572,1.6796,1.5779,2.088,2.185,2.179,2.1981,2.2012,2.2012,2.2012,2.2012,2.2076,2.2255,2.2266,2.2266,2.2266,2.2266,2.2266,2.2266,2.2329,2.2361,2.2361,2.2424,2.2551,2.272,2.272,2.2805,2.2974,2.2974,2.2974,2.2974,2.2974,2.2974,2.2985,2.3037,2.3069,2.3069,2.3143,2.3164,2.3164,2.3164,2.308,2.2974,2.2974,2.2974,2.2985,2.3048,2.3069,2.308,2.3143,2.3164,2.3164,2.3164,2.328,2.3407,2.3407,2.3534,2.3661,2.3661,2.3661,2.3661,2.3661,2.3661,2.3661,2.3661,2.3661,2.3661,2.3661,2.3661,2.3661,2.3661,2.3661,2.3661,2.3661,2.3661,2.3661,2.3661,2.3661,2.3661,2.3661,2.3661,2.3735,2.3904,2.3756,2.3767,2.3999,2.3851,2.3703,2.3597,2.3597,2.3481,2.3259,2.3259,2.3228,2.3164,2.3164,2.3164,0.0757,0.0,0.0,0.0,0.0,0.0,0.0,0.0,0.0,0.0,0.0,0.0,0.0,0.6579,1.221,0.0,1.3871,1.6719,2.1131,2.1791,2.1753,2.1968,2.1903,2.1537,2.1621,2.1716,2.1833,2.197,2.2065,2.2118,2.2118,2.2213,2.2266,2.2266,2.2266,2.2266,2.2266,2.2266,2.2329,2.2477,2.2477,2.2541,2.2678,2.2678,2.2678,2.2678,2.2678,2.2678,2.2689,2.2784,2.2826,2.2837,2.2932,2.2974,2.2953,2.2752,2.2678,2.2678,2.2678,2.2678,2.2699,2.2794,2.2826,2.2847,2.2942,2.2974,2.2974,2.2974,2.3069,2.3164,2.3164,2.327,2.3376,2.3376,2.3376,2.3397,2.3492,2.3513,2.3534,2.364,2.3661,2.3661,2.3661,2.3661,2.3661,2.3661,2.3661,2.3661,2.3661,2.3661,2.3661,2.3661,2.3661,2.3661,2.3661,2.3661,2.3724,2.3851,2.364,2.3576,2.3714,2.3492,2.3312,2.3164,2.3164,2.3101,2.2974,2.2974,2.2974,2.2974,2.2974,2.2889,0.0,0.0,0.0,0.0,0.0,0.0,0.0,0.0,0.0,0.0,0.0,0.0,0.0,0.0,0.0,0.0,1.0421,1.9393,2.1796,2.1699,2.1551,2.1737,2.1259,2.1238,2.1135,2.1368,2.1516,2.1537,2.1748,2.1875,2.1875,2.2076,2.2203,2.2224,2.2224,2.2234,2.2266,2.2266,2.2266,2.2266,2.2266,2.2266,2.2266,2.2266,2.2266,2.2266,2.2266,2.2266,2.2287,2.2498,2.2583,2.2604,2.2815,2.29,2.2847,2.2424,2.2266,2.2266,2.2266,2.2266,2.2298,2.2509,2.2583,2.2615,2.2826,2.29,2.29,2.29,2.2911,2.2932,2.2932,2.2953,2.2974,2.2974,2.2974,2.3027,2.3228,2.327,2.3323,2.3545,2.3587,2.3587,2.3619,2.3619,2.3608,2.3587,2.3587,2.3587,2.3587,2.3587,2.3587,2.3587,2.3587,2.3587,2.3587,2.3587,2.3587,2.3587,2.3386,2.327,2.327,2.308,2.2963,2.2932,2.2932,2.2921,2.29,2.29,2.29,2.29,2.29,2.1964,0.0,0.0,0.0,0.0,0.0,0.0,0.0,0.0,0.0,0.0,0.0,0.0,0.0,0.0,0.0,0.0,0.2348,0.8109,1.9455,2.0969,2.1057,2.0902,2.068,2.0583,2.098,2.1238,2.1452,2.1283,2.1516,2.1642,2.1642,2.1685,2.1801,2.197,2.1981,2.2076,2.2266,2.2266,2.2266,2.2266,2.2266,2.2266,2.2266,2.2266,2.2266,2.2266,2.2266,2.2266,2.2266,2.2319,2.2329,2.234,2.2382,2.2403,2.2393,2.2298,2.2266,2.2266,2.2266,2.2266,2.2276,2.2319,2.2329,2.234,2.2393,2.2403,2.2403,2.2403,2.2541,2.2689,2.2689,2.2826,2.2974,2.2974,2.2974,2.2985,2.3027,2.3037,2.3048,2.3101,2.3111,2.3164,2.3344,2.3376,2.3312,2.3132,2.3111,2.3111,2.3111,2.3111,2.3111,2.3111,2.3111,2.3111,2.3111,2.3111,2.3111,2.3111,2.3069,2.3037,2.3037,2.2995,2.2889,2.2689,2.2689,2.2594,2.2403,2.2403,2.2414,2.2446,2.2446,1.593,0.0,0.0,0.0,0.0,0.0,0.0,0.0,0.0,0.0,0.0,0.0,0.0,0.0,0.0,0.0,0.0,0.0,0.2311,0.9481,1.627,2.0595,2.004,2.0206,1.9288,1.5935,1.8685,2.083,2.0712,2.0945,2.1125,2.122,2.1336,2.1505,2.1738,2.1748,2.1801,2.1928,2.1928,2.1928,2.1928,2.2033,2.2086,2.2097,2.2213,2.2266,2.2266,2.2266,2.2266,2.2266,2.2266,2.2266,2.2245,2.2012,2.1928,2.1928,2.1928,2.1928,2.1928,2.1928,2.1928,2.1928,2.1928,2.2002,2.2086,2.2086,2.2171,2.2266,2.2266,2.235,2.2446,2.2446,2.253,2.2625,2.2625,2.2625,2.2657,2.2773,2.2794,2.2837,2.2953,2.2974,2.3006,2.3122,2.3037,2.2963,2.2974,2.2974,2.2974,2.2974,2.2974,2.2974,2.2974,2.2974,2.2974,2.2974,2.2974,2.2974,2.2974,2.2858,2.2794,2.2794,2.2678,2.2562,2.2446,2.2329,2.2213,2.2461,2.2012,2.2311,2.2332,1.7985,1.0391,0.0,0.0,0.0,0.0,0.0,0.0,0.0,0.0,0.0,0.0,0.0,0.0,0.0,0.0,0.0,0.0,0.0,0.0,0.0,0.9791,1.6463,1.5833,1.6268,1.5628,1.2652,1.7119,1.9814,1.8431,1.9964,2.083,2.067,2.0903,2.1135,2.1368,2.1378,2.1421,2.1516,2.1516,2.1537,2.159,2.1759,0.0,2.1854,2.2044,2.2139,2.2139,2.2139,2.2139,2.2139,2.2139,2.2139,2.2086,2.1621,2.1442,2.1442,2.1442,2.1442,2.1442,2.1442,2.1473,2.1516,2.1516,2.1664,2.1843,2.1843,2.1981,0.0,2.2139,2.2139,2.2139,2.2139,2.216,2.2203,2.2203,2.2234,2.2319,2.2509,2.2551,2.2604,2.2805,2.2837,2.2847,2.29,2.271,2.2615,2.2805,2.2837,2.2837,2.2837,2.2837,2.2837,2.2837,2.2837,2.2837,2.2837,2.2837,2.2837,2.2837,2.2657,2.2551,2.2551,2.2329,2.2203,2.2203,2.2279,2.215,2.2171,2.1946,2.1171,1.9815,1.1748,0.5157,0.0,0.0,0.0,0.0,0.0,0.0,0.0,0.0,0.0,0.0,0.0,0.0,0.0,0.0,0.0,0.0,0.0,0.0,0.0,0.1357,0.242,0.2226,0.2238,0.6505,1.7463,1.9808,1.8216,1.2031,1.724,2.0293,2.0315,0.0,0.0,0.0,0.0,2.0839,2.1262,2.1262,2.1368,2.1579,2.1611,2.1621,2.1621,2.1642,2.1664,2.1664,2.1664,2.1664,2.1664,2.1664,2.1664,2.1611,2.1135,2.0945,2.0945,2.0945,2.0945,2.0945,2.0945,0.0,0.0,2.1262,2.1421,2.1621,2.1621,2.1632,2.1664,2.1664,2.1664,2.1664,2.1664,2.1801,2.1949,2.1949,2.2118,2.2276,2.2298,2.2308,2.2319,2.234,2.235,2.2414,2.2625,2.2467,2.2319,2.234,2.235,2.235,2.235,2.235,2.235,2.235,2.235,0.0,2.235,2.235,2.235,2.235,2.2319,2.2308,2.2308,2.2451,2.2332,2.1949,2.2271,2.2053,2.1304,2.1442,1.8033,1.1125,0.4078,0.0616,0.0,0.0,0.0,0.0,0.0,0.0,0.0,0.0,0.0,0.0,0.0,0.0,0.0,0.0,0.0,0.0,0.0,0.0,0.0,0.0,0.0,0.0,0.0,0.2179,0.7613,0.8527,1.0611,1.5392,1.8339,2.0084,2.0217,2.0102,2.0014,2.0251,2.0057,2.0216,2.0417,2.0554,2.067,2.0776,2.0903,2.0966,2.0966,2.1103,2.1167,2.1167,2.1167,2.1167,2.1167,2.1167,2.1167,2.1093,0.0,0.0,0.0,0.0,2.0057,2.0057,2.0057,2.0216,2.0417,2.0417,2.066,2.0966,2.0966,2.1061,2.1167,2.1167,2.1167,2.1199,2.1336,2.1442,2.1547,2.1685,2.1801,2.1864,2.1864,2.197,2.2055,2.2055,2.2171,0.0,2.2044,2.1938,2.1917,2.2044,2.2055,2.2107,2.2245,2.2266,2.2266,2.2266,2.2266,2.2266,2.2266,2.2266,0.0,0.0,0.0,2.2055,2.2055,2.1854,0.0,0.0,0.0,1.9045,1.4483,1.8398,0.0,0.0,0.116,0.0,0.0,0.0,0.0,0.0,0.0,0.0,0.0,0.0,0.0,0.0,0.0,0.0,0.0,0.0,0.0,0.0,0.0,0.0,0.0,0.0,0.0,0.0,0.0,0.0,0.0,0.0,0.3859,1.3477,1.739,1.8737,1.7414,1.7009,1.7476,1.9435,1.965,1.9497,1.955,1.9783,1.993,1.9994,2.0152,2.0237,2.0237,2.0406,2.0491,2.0491,2.0491,2.0491,2.0491,2.0491,2.0491,2.0395,1.9455,1.9096,1.9096,1.9096,1.9096,1.9096,1.9096,1.9254,1.9465,1.9529,1.9814,2.0142,2.0216,2.0353,2.0491,2.0491,2.0533,2.0628,2.0797,2.0934,2.1072,2.1251,2.1336,2.1399,2.1473,2.1611,2.1738,2.1812,2.1854,2.178,2.1442,2.1442,2.1537,2.1695,2.178,2.1885,2.2055,2.2129,2.2171,2.2171,2.2224,2.2266,2.2266,2.2203,2.2171,2.2171,2.1949,2.179,2.1727,2.1568,2.1315,2.0966,2.0237,1.6734,0.0,0.0,0.0,0.0,0.0,0.0,0.0,0.0,0.0,0.0,0.0,0.0,0.0,0.0,0.0,0.0,0.0,0.0,0.0,0.0,0.0,0.0,0.0,0.0,0.0,0.0,0.0,0.0,0.0,0.0,0.0,0.0,0.0265,0.0545,1.2176,1.675,1.0286,1.0122,1.2452,1.7842,1.8684,1.8931,1.8831,1.9043,1.9275,1.9497,1.9508,1.9508,1.9508,1.9518,1.9518,1.9518,1.9518,1.9518,1.9518,1.9518,1.9518,1.9423,1.8493,1.8123,1.8123,1.8123,1.8123,1.8123,1.8123,1.8282,1.8525,1.8757,1.8979,1.9212,1.9444,1.9518,1.9518,1.9518,1.9687,1.9867,1.9878,2.0205,2.0543,2.0554,2.0723,2.0956,2.1188,2.1241,2.1315,2.1547,2.123,2.0913,2.0892,2.1082,2.1241,2.1241,2.1442,0.0,2.16,2.179,2.1917,2.1917,2.2129,2.2266,2.2266,2.2055,2.1917,2.1917,2.1716,2.1484,2.1251,2.1241,2.0934,1.9964,1.88,1.6242,1.2332,0.0,0.0,0.0,0.0,0.0,0.0,0.0,0.0,0.0,0.0,0.0,0.0,0.0,0.0,0.0,0.0,0.0,0.0,0.0,0.0,0.0,0.0,0.0,0.0,0.0,0.0,0.0,0.0,0.0,0.0,0.0,0.0,0.0,0.3958,0.5609,0.3469,1.0634,1.4071,1.2117,1.5917,1.8039,1.8102,1.8324,1.8472,1.8557,1.8557,1.8557,1.8557,1.8557,1.8641,1.8789,1.8789,1.8789,1.8789,1.8789,1.8514,1.8071,1.7754,1.7627,1.7627,1.7627,1.7627,1.7627,1.7627,1.769,1.7796,1.8028,1.8261,1.8451,1.8525,1.8557,1.8557,1.8557,1.8726,1.8948,1.9106,1.937,1.9635,1.9793,1.9888,2.0015,2.0247,2.0427,2.0607,2.0839,2.0712,2.0347,2.0163,2.0247,2.0406,2.0712,2.0956,2.1167,2.1325,2.1547,2.1695,2.1695,2.1769,2.1812,2.1812,2.1738,2.1695,2.1695,2.1325,2.1019,2.0808,2.048,1.9983,1.9318,1.8706,1.7453,1.5588,0.0,0.0,0.0,0.0,0.0,0.0,0.0,0.0,0.0,0.0,0.0,0.0,0.0,0.0,0.0,0.0,0.0,0.0,0.0,0.0,0.0,0.0,0.0,0.0,0.0,0.0,0.0,0.0,0.0,0.0,0.0,0.0,0.0,0.0,0.1781,0.5628,0.9371,1.1331,1.1901,1.5552,1.7589,1.7394,1.7606,1.7754,1.7838,1.7838,1.7838,1.7838,1.7838,1.7923,1.8071,1.8071,1.8071,1.8049,1.7806,1.7384,1.6908,1.6908,1.6908,1.6908,1.6908,1.6908,1.6908,1.6908,1.6908,1.6929,1.7088,1.7289,1.7489,1.7563,1.7648,1.7722,1.7722,1.7944,1.8229,1.8388,1.8588,1.8789,1.8948,1.8979,1.9074,1.9392,1.9592,1.9698,1.9656,1.9607,1.9392,1.9318,1.9423,1.9635,2.0412,2.0374,2.0617,2.0839,2.1146,2.1357,2.1699,2.1505,2.16,2.1611,2.1463,2.1368,2.1368,2.0839,2.0427,2.0216,1.973,1.918,1.8588,1.8123,1.5731,0.0,0.0,0.0,0.0,0.0,0.0,0.0,0.0,0.0,0.0,0.0,0.0,0.0,0.0,0.0,0.0,0.0,0.0,0.0,0.0,0.0,0.0,0.0,0.0,0.0,0.0,0.0,0.0,0.0,0.0,0.0,0.0,0.0,0.0,0.0,0.4572,1.5185,0.6362,0.5667,1.6291,1.6768,1.6997,1.6956,1.7149,1.7098,1.7331,1.7331,1.7331,1.7331,1.7331,1.7341,1.7352,1.7352,1.7352,1.7289,1.6602,1.6179,1.5968,1.5968,1.5968,1.5968,1.5968,1.5968,1.5968,1.5968,1.5968,1.5968,1.5968,1.6126,1.6348,1.6559,1.6781,0.0,0.0,1.731,1.7669,1.768,1.7859,1.8028,1.8028,1.8039,1.8176,1.8641,1.8757,1.8909,1.8113,1.8028,1.8123,1.8102,0.0,1.8937,1.9413,2.0004,2.0251,2.0465,2.0586,2.1216,2.1595,2.1315,2.1234,2.159,2.1188,2.0609,2.0924,2.0258,1.9751,1.9487,1.9022,1.8546,1.8081,1.6785,0.0,0.0,0.0,0.0,0.0,0.0,0.0,0.0,0.0,0.0,0.0,0.0,0.0,0.0,0.0,0.0,0.0,0.0,0.0,0.0,0.0,0.0,0.0,0.0,0.0,0.0,0.0,0.0,0.0,0.0,0.0,0.0,0.0,0.0,0.0,0.0,0.0,0.4123,0.9384,1.3837,1.6557,1.2843,1.2529,1.6248,1.6518,1.6659,1.6645,1.6369,1.6359,1.6359,1.6359,1.6464,1.6623,1.6623,1.6623,1.657,1.5862,1.5534,1.5482,1.5482,1.5482,1.5482,1.5482,1.5482,1.5482,1.5482,1.5482,1.5482,1.5482,1.5524,1.5587,1.564,0.0,0.0,0.0,0.0,1.6496,1.6676,1.7014,1.731,1.731,1.7447,1.7658,1.7954,1.8028,1.7838,1.7215,1.6968,1.7176,1.7975,1.4822,0.0,0.0,0.0,1.9852,1.9972,1.7133,1.6706,2.0395,2.083,2.0586,2.0586,2.0469,2.0321,2.0142,1.9783,1.9339,1.8779,1.8472,1.7933,1.7141,0.0,0.0,0.0,0.0,0.0,0.0,0.0,0.0,0.0,0.0,0.0,0.0,0.0,0.0,0.0,0.0,0.0,0.0,0.0,0.0,0.0,0.0,0.0,0.0,0.0,0.0,0.0,0.0,0.0,0.0,0.0,0.0,0.0,0.0,0.0,0.0,0.0,0.0,0.0,0.0,0.0,0.9333,1.078,1.3011,1.6329,1.5926,1.608,1.6093,1.5915,1.5703,1.5969,1.5703,1.5767,1.5894,1.5894,1.5661,1.526,1.4858,1.4689,1.4689,0.0,0.0,0.0,0.0,1.4689,1.4689,1.4689,1.4689,1.4689,1.4689,0.0,0.0,0.0,0.0,0.0,0.0,0.0,1.5587,1.5714,1.6094,1.6443,1.6443,1.6623,1.6855,1.7098,1.6919,1.687,1.6473,1.4466,1.2318,1.0476,0.7435,0.0,0.0,0.0,1.2823,1.8462,1.7565,1.5045,1.1796,1.1541,1.3784,1.9496,2.0026,1.9825,1.9789,1.9127,1.8715,1.824,1.7785,1.4806,0.0,0.0,0.0,0.0,0.0,0.0,0.0,0.0,0.0,0.0,0.0,0.0,0.0,0.0,0.0,0.0,0.0,0.0,0.0,0.0,0.0,0.0,0.0,0.0,0.0,0.0,0.0,0.0,0.0,0.0,0.0,0.0,0.0,0.0,0.0,0.0,0.0,0.0,0.0,0.0,0.0,0.0,0.0,0.0,1.3733,1.4535,1.5052,1.5567,1.5836,1.4815,1.4663,1.5657,1.5378,1.5357,1.5122,1.5059,0.0,1.377,1.3994,0.0,0.0,0.0,0.0,0.0,0.0,0.0,0.0,0.0,0.0,0.0,0.0,0.0,0.0,0.0,0.0,0.0,0.0,0.0,0.0,0.0,0.0,1.5722,1.5765,1.5703,1.5657,1.5264,1.5103,1.4714,1.3996,1.0214,0.5754,0.0,0.0,0.0,0.0,0.0,0.0,1.7028,1.8277,1.3478,0.1213,0.1531,0.7091,1.8613,1.872,1.8117,1.8004,1.7275,1.6898,1.6896,1.5201,0.0,0.0,0.0,0.0,0.0,0.0,0.0,0.0,0.0,0.0,0.0,0.0,0.0,0.0,0.0,0.0,0.0,0.0,0.0,0.0,0.0,0.0,0.0,0.0,0.0,0.0,0.0,0.0,0.0,0.0,0.0,0.0,0.0,0.0,0.0,0.0,0.0,0.0,0.0,0.0,0.0,0.0,0.0,0.0,0.0,0.0,0.0,0.0,0.0,0.0,1.1069,1.1077,1.4676,1.4676,1.4655,1.4622,1.3791,1.3421,1.3275,1.3296,0.0,0.0,0.0,0.0,0.0,0.0,0.0,0.0,0.0,0.0,0.0,0.0,0.0,0.0,0.0,0.0,0.0,0.0,0.0,0.0,0.0,0.0,1.5047,1.5724,1.5483,1.385,0.9941,0.0,0.0,0.0,0.0,0.0,0.0,0.0,0.0,0.0,0.0,0.0,1.8762,0.9992,0.2596,0.0295,0.9502,1.7,1.9127,1.4413,1.1292,1.084,1.0677,1.0419,0.0,0.0,0.0,0.0,0.0,0.0,0.0,0.0,0.0,0.0,0.0,0.0,0.0,0.0,0.0,0.0,0.0,0.0,0.0,0.0,0.0,0.0,0.0,0.0,0.0,0.0,0.0,0.0,0.0,0.0,0.0,0.0,0.0,0.0,0.0,0.0,0.0,0.0,0.0,0.0,0.0,0.0,0.0,0.0,0.0,0.0,0.0,0.0,0.0,0.0,0.0,0.0,0.0,0.0,0.0,0.0,0.0,0.0,0.0,1.2693,0.0,0.0,0.0,0.0,0.0,0.0,0.0,0.0,0.0,0.0,0.0,0.0,0.0,0.0,0.0,0.0,0.0,0.0,0.0,0.0,0.0,0.0,0.0,0.0,0.0,0.0,0.0,0.0,0.0,0.0,0.0,0.0,0.0,0.0,0.0,0.0,0.0,0.0,0.0,0.0,0.9229,0.3854,0.0,0.0,0.574,0.9471,0.9243,0.6558,0.4486,0.4396,0.4338,0.0,0.0,0.0,0.0,0.0,0.0,0.0,0.0,0.0,0.0,0.0,0.0,0.0,0.0,0.0,0.0,0.0,0.0,0.0,0.0,0.0,0.0,0.0,0.0,0.0,0.0,0.0,0.0,0.0,0.0,0.0,0.0,0.0,0.0,0.0,0.0,0.0,0.0,0.0,0.0,0.0,0.0,0.0,0.0,0.0,0.0,0.0,0.0,0.0,0.0,0.0,0.0,0.0,0.0,0.0,0.0,0.0,0.0,0.0,1.0309,0.0,0.0,0.0,0.0,0.0,0.0,0.0,0.0,0.0,0.0,0.0,0.0,0.0,0.0,0.0,0.0,0.0,0.0,0.0,0.0,0.0,0.0,0.0,0.0,0.0,0.0,0.0,0.0,0.0,0.0,0.0,0.0,0.0,0.0,0.0,0.0,0.0,0.0,0.0,0.0,0.0,0.0,0.0,0.0,0.0,0.0,0.0,0.0,0.0,0.0,0.0,0.0,0.0,0.0,0.0,0.0,0.0,0.0,0.0,0.0,0.0,0.0,0.0,0.0,0.0,0.0,0.0,0.0,0.0,0.0,0.0,0.0,0.0,0.0,0.0,0.0,0.0,0.0,0.0,0.0,0.0,0.0,0.0,0.0,0.0,0.0,0.0,0.0,0.0,0.0,0.0,0.0,0.0,0.0,0.0,0.0,0.0,0.0,0.0,0.0,0.0,0.0,0.0,0.0,0.0,0.0,0.0,0.0,0.0,0.0,0.0,0.0,0.0,0.0,0.0,0.0,0.0,0.0,0.0,0.0,0.0,0.0,0.0,0.0,0.0,0.0,0.0,0.0,0.0,0.0,0.0,0.0,0.0,0.0,0.0,0.0,0.0,0.0,0.0,0.0,0.0,0.0,0.0,0.0,0.0,0.0,0.0,0.0,0.0,0.0,0.0,0.0,0.0,0.0,0.0,0.0,0.0,0.0,0.0,0.0,0.0,0.0,0.0,0.0,0.0,0.0,0.0,0.0,0.0,0.0,0.0,0.0,0.0,0.0,0.0,0.0,0.0,0.0,0.0,0.0,0.0,0.0,0.0,0.0,0.0,0.0,0.0,0.0,0.0,0.0,0.0,0.0,0.0,0.0,0.0,0.0,0.0,0.0,0.0,0.0,0.0,0.0,0.0,0.0,0.0,0.0,0.0,0.0,0.0,0.0,0.0,0.0,0.0,0.0,0.0,0.0,0.0,0.0,0.0,0.0,0.0,0.0,0.0,0.0,0.0,0.0,0.0,0.0,0.0,0.0,0.0,0.0,0.0,0.0,0.0,0.0,0.0,0.0,0.0,0.0,0.0,0.0,0.0,0.0,0.0,0.0,0.0,0.0,0.0,0.0,0.0,0.0,0.0,0.0,0.0,0.0,0.0,0.0,0.0,0.0,0.0,0.0,0.0,0.0,0.0,0.0,0.0,0.0,0.0,0.0,0.0,0.0,0.0,0.0,0.0,0.0,0.0,0.0,0.0,0.0,0.0,0.0,0.0,0.0,0.0,0.0,0.0,0.0,0.0,0.0,0.0,0.0,0.0,0.0,0.0,0.0,0.0,0.0,0.0,0.0,0.0,0.0,0.0,0.0,0.0,0.0,0.0,0.0,0.0,0.0,0.0,0.0,0.0,0.0,0.0,0.0,0.0,0.0,0.0,0.0,0.0,0.0,0.0,0.0,0.0,0.0,0.0,0.0,0.0,0.0,0.0,0.0,0.0,0.0,0.0,0.0,0.0,0.0,0.0,0.0,0.0,0.0,0.0,0.0,0.0,0.0,0.0,0.0,0.0,0.0,0.0,0.0,0.0,0.0,0.0,0.0,0.0,0.0,0.0,0.0,0.0,0.0,0.0,0.0,0.0,0.0,0.0,0.0,0.0,0.0,0.0,0.0,0.0,0.0,0.0,0.0,0.0,0.0,0.0,-0.0259,-0.106,-0.0526,0.0,0.0,0.0,0.0,0.0,0.0,0.0,0.0,0.0,0.0,0.0,0.0,0.0,0.0,0.0,0.0,0.0,0.0,0.0,0.0,0.0,0.0,0.0,0.0,0.0,0.0,0.0,0.0,0.0,0.0,0.0,0.0,0.0,0.0,0.0,0.0,0.0,0.0,0.0,0.0,0.0,0.0,0.0,0.0,0.0,0.0,0.0,0.0,0.0,0.0,0.0,0.0,0.0,0.0,0.0,0.0,0.0,0.0,0.0,0.0,0.0,0.0,0.0,0.0,0.0,0.0,0.0,0.0,0.0,0.0,0.0,0.0,0.0,0.0,0.0,0.0,0.0,0.0,0.0,0.0,0.0,0.0,0.0,0.0,0.0,0.0,0.0,0.0,0.0,0.0,0.0,0.0,0.0,0.0,0.0,0.0,0.0,0.0,0.0,0.0,0.0,0.0,0.0,0.0,0.0,0.0,0.0,0.0,0.0,-0.103,-0.3659,-0.157,0.0,0.0,0.0,0.0,0.0,0.0,0.0,0.0,0.0,0.0,0.0,0.0,0.0,0.0,0.0,0.0,0.0,0.0,0.0,0.0,0.0,0.0,0.0,0.0,0.0,0.0,0.0,0.0,0.0,0.0,0.0,0.0,0.0,0.0,0.0,0.0,0.0,0.0,0.0,0.0,0.0,0.0,0.0,0.0,0.0,0.0,0.0,0.0,0.0,0.0,0.0,0.0,0.0,0.0,0.0,0.0,0.0,0.0,0.0,0.0,0.0,0.0,0.0,0.0,0.0,0.0,0.0,0.0,0.0,0.0,0.0,0.0,0.0,0.0,0.0,0.0,0.0,0.0,0.0,0.0,0.0,0.0,0.0,0.0,0.0,0.0,0.0,0.0,0.0,0.0,0.0,0.0,0.0,0.0,0.0,0.0,0.0,0.0,0.0,0.0,0.0,0.0,0.0,0.0,0.0,0.0,0.0,0.0,-0.1472,-0.2253,0.0,-0.0509,0.0,0.0,0.0,-0.0499,-0.1211,0.0,0.0,0.0,0.0,0.0,0.0,0.0,0.0,0.0,0.0,0.0,0.0,0.0,0.0,0.0,0.0,0.0,0.0,0.0,0.0,0.0,0.0,0.0,0.0,0.0,0.0,0.0,0.0,0.0,0.0,0.0,0.0,0.0,0.0,0.0,0.0,0.0,0.0,0.0,0.0,0.0,0.0,0.0,0.0,0.0,0.0,0.0,0.0,0.0,0.0,0.0,0.0,0.0,0.0,0.0,0.0,0.0,0.0,0.0,0.0,0.0,0.0,0.0,0.0,0.0,0.0,0.0,0.0,0.0,0.0,0.0,0.0,0.0,0.0,0.0,0.0,0.0,0.0,0.0,0.0,0.0,0.0,0.0,0.0,0.0,0.0,0.0,0.0,0.0,0.0,0.0,0.0,0.0,0.0,0.0,0.0,0.0,0.0,0.0,0.0,0.0,0.0,0.0,-0.1908,-0.171,0.0,0.0,0.0,0.0,-0.0994,-0.171,-0.2145,0.0,0.0,0.0,0.0,0.0,0.0,0.0,0.0,0.0,0.0,0.0,0.0,0.0,0.0,0.0,0.0,0.0,0.0,0.0,0.0,0.0,0.0,0.0,0.0,0.0,0.0,0.0,0.0,0.0,0.0,0.0,0.0,0.0,0.0,0.0,0.0,0.0,0.0,0.0,0.0,0.0,0.0,0.0,0.0,0.0,0.0,0.0,0.0,0.0,0.0,0.0,0.0,0.0,0.0,0.0,0.0,0.0,0.0,0.0,0.0,0.0,0.0,0.0,0.0,0.0,0.0,0.0,0.0,0.0,0.0,0.0,0.0,0.0,0.0,0.0,0.0,0.0,0.0,0.0,0.0,0.0,0.0,0.0,0.0,0.0,0.0,0.0,0.0,0.0,0.0,0.0,0.0,0.0,0.0,0.0,0.0,0.0,0.0,0.0,0.0,0.0,0.0,0.0,-0.1385,0.0,0.0,0.0,-0.0,-0.025,-0.2437,-0.3568,-0.2571,-0.3084,0.0,0.0,0.0,0.0,0.0,0.0,0.0,0.0,0.0,0.0,0.0,0.0,0.0,0.0,0.0,0.0,0.0,0.0,0.0,0.0,0.0,0.0,0.0,0.0,0.0,0.0,0.0,0.0,0.0,0.0,0.0,0.0,0.0,0.0,0.0,0.0,0.0,0.0,0.0,0.0,0.0,0.0,0.0,0.0,0.0,0.0,0.0,0.0,0.0,0.0,0.0,0.0,0.0,0.0,0.0,0.0,0.0,0.0,0.0,0.0,0.0,0.0,0.0,0.0,0.0,0.0,0.0,0.0,0.0,0.0,0.0,0.0,0.0,0.0,0.0,0.0,0.0,0.0,0.0,0.0,0.0,0.0,0.0,0.0,0.0,0.0,0.0,0.0,0.0,0.0,0.0,0.0,0.0,0.0,0.0,0.0,0.0,0.0,0.0,0.0,0.0,0.0,-0.1371,0.0,0.0,0.0,-0.0725,-0.2864,-0.3553,-0.371,-0.3339,-0.324,0.0,0.0,0.0,0.0,0.0,0.0,0.0,0.0,0.0,0.0,0.0,0.0,0.0,0.0,0.0,0.0,0.0,0.0,0.0,0.0,0.0,0.0,0.0,0.0,0.0,0.0,0.0,0.0,0.0,0.0,0.0,0.0,0.0,0.0,0.0,0.0,0.0,0.0,0.0,0.0,0.0,0.0,0.0,0.0,0.0,0.0,0.0,0.0,0.0,0.0,0.0,0.0,0.0,0.0,0.0,0.0,0.0,0.0,0.0,0.0,0.0,0.0,0.0,0.0,0.0,0.0,0.0,0.0,0.0,0.0,0.0,0.0,0.0,0.0,0.0,0.0,0.0,0.0,0.0,0.0,0.0,0.0,0.0,0.0,0.0,0.0,0.0,0.0,0.0,0.0,0.0,0.0,0.0,0.0,0.0,0.0,0.0,0.0,0.0,0.0,0.0,0.0,-0.1301,0.0,0.0,0.0,-0.0705,-0.2815,-0.3448,-0.3591,-0.3495,-0.336,0.0,0.0,0.0,0.0,0.0,0.0,0.0,0.0,0.0,0.0,0.0,0.0,0.0,0.0,0.0,0.0,0.0,0.0,0.0,0.0,0.0,0.0,0.0,0.0,0.0,0.0,0.0,0.0,0.0,0.0,0.0,0.0,0.0,0.0,0.0,0.0,0.0,0.0,0.0,0.0,0.0,0.0,0.0,0.0,0.0,0.0,0.0,0.0,0.0,0.0,0.0,0.0,0.0,0.0,0.0,0.0,0.0,0.0,0.0,0.0,0.0,0.0,0.0,0.0,0.0,0.0,0.0,0.0,0.0,0.0,0.0,0.0,0.0,0.0,0.0,0.0,0.0,0.0,0.0,0.0,0.0,0.0,0.0,0.0,0.0,0.0,0.0,0.0,0.0,0.0,0.0,0.0,0.0,0.0,0.0,0.0,0.0,0.0,0.0,0.0,0.0,0.0,0.0,-0.0414,-0.0442,-0.0453,-0.0689,-0.2087,-0.2905,-0.3477,-0.3453,0.0,0.0,0.0,0.0,0.0,0.0,0.0,0.0,0.0,0.0,0.0,0.0,0.0,0.0,0.0,0.0,0.0,0.0,0.0,0.0,0.0,0.0,0.0,0.0,0.0,0.0,0.0,0.0,0.0,0.0,0.0,0.0,0.0,0.0,0.0,0.0,0.0,0.0,0.0,0.0,0.0,0.0,0.0,0.0,0.0,0.0,0.0,0.0,0.0,0.0,0.0,0.0,0.0,0.0,0.0,0.0,0.0,0.0,0.0,0.0,0.0,0.0,0.0,0.0,0.0,0.0,0.0,0.0,0.0,0.0,0.0,0.0,0.0,0.0,0.0,0.0,0.0,0.0,0.0,0.0,0.0,0.0,0.0,0.0,0.0,0.0,0.0,0.0,0.0,0.0,0.0,0.0,0.0,0.0,0.0,0.0,0.0,0.0,0.0,0.0,0.0,0.0,0.0,0.0,0.0,-0.2612,-0.2025,-0.1814,-0.3096,-0.3284,-0.3426,-0.3281,0.0,0.0,0.0,0.0,0.0,0.0,0.0,0.0,0.0,0.0,0.0,0.0,0.0,0.0]}]]]